<?xml version='1.0' encoding='UTF-8'?><gpx version="1.1" creator="JPX - https://github.com/jenetics/jpx" xmlns="http://www.topografix.com/GPX/1/1"><trk><trkseg><trkpt lat="39.79667871508841" lon="18.368231009800603"><ele>60.99999999999999</ele><time>2026-04-03T12:27:09.131Z</time></trkpt><trkpt lat="39.79672999674487" lon="18.368169409814875"><ele>61.0</ele><time>2026-04-03T12:27:10.356Z</time></trkpt><trkpt lat="39.79671192903018" lon="18.368261794859162"><ele>60.99999999999999</ele><time>2026-04-03T12:27:28.015Z</time></trkpt><trkpt lat="39.7966700573164" lon="18.368197132896274"><ele>60.99999999999999</ele><time>2026-04-03T12:27:33.011Z</time></trkpt><trkpt lat="39.79660535570367" lon="18.368157009090567"><ele>61.0</ele><time>2026-04-03T12:27:37.008Z</time></trkpt><trkpt lat="39.796558824392754" lon="18.368098092291685"><ele>60.99999999999999</ele><time>2026-04-03T12:27:43.006Z</time></trkpt><trkpt lat="39.79649447295906" lon="18.368049673191297"><ele>60.99999999999999</ele><time>2026-04-03T12:27:50.004Z</time></trkpt><trkpt lat="39.7964697342925" lon="18.367961882766853"><ele>58.99999999999999</ele><time>2026-04-03T12:27:56.002Z</time></trkpt><trkpt lat="39.79645078082662" lon="18.36784602729679"><ele>57.0</ele><time>2026-04-03T12:28:02.002Z</time></trkpt><trkpt lat="39.79638271978553" lon="18.367826461672554"><ele>55.0</ele><time>2026-04-03T12:28:24Z</time></trkpt><trkpt lat="39.79631046416184" lon="18.36782013986425"><ele>53.0</ele><time>2026-04-03T12:28:29Z</time></trkpt><trkpt lat="39.796283351197026" lon="18.36774408600294"><ele>50.99999999999999</ele><time>2026-04-03T12:28:50Z</time></trkpt><trkpt lat="39.796283503095985" lon="18.367837561545958"><ele>49.0</ele><time>2026-04-03T12:30:41Z</time></trkpt><trkpt lat="39.7963504981154" lon="18.36776767769463"><ele>49.0</ele><time>2026-04-03T12:30:48Z</time></trkpt><trkpt lat="39.79647721057949" lon="18.367769249659045"><ele>49.0</ele><time>2026-04-03T12:30:50Z</time></trkpt><trkpt lat="39.79664848083508" lon="18.367773130653635"><ele>49.0</ele><time>2026-04-03T12:30:53Z</time></trkpt><trkpt lat="39.79673569205118" lon="18.367773783274757"><ele>49.0</ele><time>2026-04-03T12:30:55Z</time></trkpt><trkpt lat="39.796794318195936" lon="18.367839245718105"><ele>49.0</ele><time>2026-04-03T12:30:57Z</time></trkpt><trkpt lat="39.79680230443842" lon="18.367929860733454"><ele>49.0</ele><time>2026-04-03T12:30:59Z</time></trkpt><trkpt lat="39.79678366622413" lon="18.368015161514922"><ele>49.0</ele><time>2026-04-03T12:31:03Z</time></trkpt><trkpt lat="39.796921146612306" lon="18.367973777706634"><ele>49.0</ele><time>2026-04-03T12:31:04Z</time></trkpt><trkpt lat="39.797034894145504" lon="18.36790629927885"><ele>49.0</ele><time>2026-04-03T12:31:06Z</time></trkpt><trkpt lat="39.797102536517215" lon="18.367881623524223"><ele>49.49999999999999</ele><time>2026-04-03T12:31:07Z</time></trkpt><trkpt lat="39.79717255966079" lon="18.367861077882257"><ele>50.0</ele><time>2026-04-03T12:31:08Z</time></trkpt><trkpt lat="39.797248589132806" lon="18.36784876381101"><ele>50.5</ele><time>2026-04-03T12:31:09Z</time></trkpt><trkpt lat="39.79733518170894" lon="18.36784418818832"><ele>51.0</ele><time>2026-04-03T12:31:10Z</time></trkpt><trkpt lat="39.79742937304775" lon="18.367845281309638"><ele>51.49999999999999</ele><time>2026-04-03T12:31:11Z</time></trkpt><trkpt lat="39.797529784892866" lon="18.367847479078932"><ele>52.0</ele><time>2026-04-03T12:31:12Z</time></trkpt><trkpt lat="39.797638708867744" lon="18.3678544906033"><ele>51.5</ele><time>2026-04-03T12:31:13Z</time></trkpt><trkpt lat="39.79775274003183" lon="18.36787991578844"><ele>51.0</ele><time>2026-04-03T12:31:14Z</time></trkpt><trkpt lat="39.79786897778831" lon="18.36792210458629"><ele>50.5</ele><time>2026-04-03T12:31:15Z</time></trkpt><trkpt lat="39.797982434291626" lon="18.367975751834674"><ele>50.0</ele><time>2026-04-03T12:31:16Z</time></trkpt><trkpt lat="39.79808863943996" lon="18.368027907797302"><ele>51.8</ele><time>2026-04-03T12:31:17Z</time></trkpt><trkpt lat="39.79818969471504" lon="18.368079721852"><ele>53.6</ele><time>2026-04-03T12:31:18Z</time></trkpt><trkpt lat="39.79829014680958" lon="18.36813136742192"><ele>55.400000000000006</ele><time>2026-04-03T12:31:19Z</time></trkpt><trkpt lat="39.798384991497564" lon="18.368172336162278"><ele>57.2</ele><time>2026-04-03T12:31:20Z</time></trkpt><trkpt lat="39.79846691670465" lon="18.36818874210737"><ele>59.0</ele><time>2026-04-03T12:31:21Z</time></trkpt><trkpt lat="39.79854756422966" lon="18.36818800984907"><ele>59.00000000000001</ele><time>2026-04-03T12:31:23Z</time></trkpt><trkpt lat="39.798619922816485" lon="18.368250434684214"><ele>59.0</ele><time>2026-04-03T12:31:27Z</time></trkpt><trkpt lat="39.79866238634011" lon="18.36834690690459"><ele>59.0</ele><time>2026-04-03T12:31:29Z</time></trkpt><trkpt lat="39.79873264551997" lon="18.368345103943277"><ele>59.0</ele><time>2026-04-03T12:31:31Z</time></trkpt><trkpt lat="39.798817533826515" lon="18.36828385790186"><ele>59.00000000000001</ele><time>2026-04-03T12:31:33Z</time></trkpt><trkpt lat="39.79888566031183" lon="18.36825170585976"><ele>59.0</ele><time>2026-04-03T12:31:34Z</time></trkpt><trkpt lat="39.798964969468805" lon="18.368228560778352"><ele>59.0</ele><time>2026-04-03T12:31:34.999Z</time></trkpt><trkpt lat="39.79904553241176" lon="18.36820654150299"><ele>59.00000000000001</ele><time>2026-04-03T12:31:35.999Z</time></trkpt><trkpt lat="39.79914418945873" lon="18.36818009176301"><ele>59.00000000000001</ele><time>2026-04-03T12:31:36.999Z</time></trkpt><trkpt lat="39.79925353970626" lon="18.36815024204248"><ele>59.0</ele><time>2026-04-03T12:31:37.999Z</time></trkpt><trkpt lat="39.799375784210305" lon="18.368116055950047"><ele>59.0</ele><time>2026-04-03T12:31:38.999Z</time></trkpt><trkpt lat="39.79950805597891" lon="18.36808061892732"><ele>59.75</ele><time>2026-04-03T12:31:39.999Z</time></trkpt><trkpt lat="39.79963628219008" lon="18.368044629707022"><ele>60.5</ele><time>2026-04-03T12:31:40.999Z</time></trkpt><trkpt lat="39.79976891849692" lon="18.368005919552534"><ele>61.25</ele><time>2026-04-03T12:31:41.999Z</time></trkpt><trkpt lat="39.79990827534614" lon="18.367966515880592"><ele>62.0</ele><time>2026-04-03T12:31:42.999Z</time></trkpt><trkpt lat="39.80004938317801" lon="18.367922309190934"><ele>61.25</ele><time>2026-04-03T12:31:43.999Z</time></trkpt><trkpt lat="39.8001903176194" lon="18.367875719092897"><ele>60.5</ele><time>2026-04-03T12:31:44.999Z</time></trkpt><trkpt lat="39.80033445394901" lon="18.367829475330154"><ele>59.75</ele><time>2026-04-03T12:31:45.999Z</time></trkpt><trkpt lat="39.800481748527325" lon="18.367782242650666"><ele>59.0</ele><time>2026-04-03T12:31:46.999Z</time></trkpt><trkpt lat="39.80063339999349" lon="18.367734267760827"><ele>59.0</ele><time>2026-04-03T12:31:47.999Z</time></trkpt><trkpt lat="39.80078231638755" lon="18.36768612977945"><ele>59.0</ele><time>2026-04-03T12:31:48.999Z</time></trkpt><trkpt lat="39.800928910476365" lon="18.36764001771159"><ele>59.0</ele><time>2026-04-03T12:31:49.999Z</time></trkpt><trkpt lat="39.801074439093796" lon="18.367594222594537"><ele>60.0</ele><time>2026-04-03T12:31:50.999Z</time></trkpt><trkpt lat="39.80121914188335" lon="18.367549747029326"><ele>61.0</ele><time>2026-04-03T12:31:51.999Z</time></trkpt><trkpt lat="39.80136694560155" lon="18.3675072191461"><ele>62.0</ele><time>2026-04-03T12:31:52.999Z</time></trkpt><trkpt lat="39.80151676680256" lon="18.36747040609324"><ele>62.0</ele><time>2026-04-03T12:31:54Z</time></trkpt><trkpt lat="39.80166702767513" lon="18.36742898878691"><ele>62.0</ele><time>2026-04-03T12:31:55Z</time></trkpt><trkpt lat="39.80181848236571" lon="18.367386376845886"><ele>62.0</ele><time>2026-04-03T12:31:56Z</time></trkpt><trkpt lat="39.80196990434562" lon="18.367337527774026"><ele>61.0</ele><time>2026-04-03T12:31:57Z</time></trkpt><trkpt lat="39.80212317090718" lon="18.367289185050307"><ele>60.0</ele><time>2026-04-03T12:31:58Z</time></trkpt><trkpt lat="39.802280048495476" lon="18.36724204442665"><ele>59.0</ele><time>2026-04-03T12:31:59Z</time></trkpt><trkpt lat="39.802437832181774" lon="18.36719110608299"><ele>59.0</ele><time>2026-04-03T12:32:00Z</time></trkpt><trkpt lat="39.80259618866521" lon="18.36713822398346"><ele>59.0</ele><time>2026-04-03T12:32:01Z</time></trkpt><trkpt lat="39.80275601201192" lon="18.36708597338545"><ele>59.0</ele><time>2026-04-03T12:32:02Z</time></trkpt><trkpt lat="39.80291611581404" lon="18.367034048608442"><ele>60.333333333333336</ele><time>2026-04-03T12:32:03Z</time></trkpt><trkpt lat="39.80307717158132" lon="18.366982982972704"><ele>61.66666666666667</ele><time>2026-04-03T12:32:04Z</time></trkpt><trkpt lat="39.80323880653055" lon="18.366934462284583"><ele>63.0</ele><time>2026-04-03T12:32:05Z</time></trkpt><trkpt lat="39.803401537413826" lon="18.366886860455384"><ele>64.33333333333333</ele><time>2026-04-03T12:32:06Z</time></trkpt><trkpt lat="39.80356562938718" lon="18.36683743097244"><ele>65.66666666666666</ele><time>2026-04-03T12:32:07Z</time></trkpt><trkpt lat="39.80373212796228" lon="18.366785933920294"><ele>67.0</ele><time>2026-04-03T12:32:08Z</time></trkpt><trkpt lat="39.803901350470824" lon="18.366734358980473"><ele>67.0</ele><time>2026-04-03T12:32:09Z</time></trkpt><trkpt lat="39.804073061046545" lon="18.366682225605796"><ele>67.0</ele><time>2026-04-03T12:32:10Z</time></trkpt><trkpt lat="39.804246311254964" lon="18.36662974951604"><ele>67.0</ele><time>2026-04-03T12:32:11Z</time></trkpt><trkpt lat="39.80442204294667" lon="18.366577937986715"><ele>68.33333333333333</ele><time>2026-04-03T12:32:12Z</time></trkpt><trkpt lat="39.80459920581902" lon="18.36652492054939"><ele>69.66666666666667</ele><time>2026-04-03T12:32:13Z</time></trkpt><trkpt lat="39.804777538178165" lon="18.36647127173604"><ele>71.0</ele><time>2026-04-03T12:32:14Z</time></trkpt><trkpt lat="39.80495404168501" lon="18.36641792207576"><ele>71.0</ele><time>2026-04-03T12:32:15Z</time></trkpt><trkpt lat="39.80512846799384" lon="18.366362067259"><ele>71.0</ele><time>2026-04-03T12:32:16Z</time></trkpt><trkpt lat="39.805301180763266" lon="18.36630637216993"><ele>71.0</ele><time>2026-04-03T12:32:17Z</time></trkpt><trkpt lat="39.805472161743396" lon="18.366254785971098"><ele>70.66666666666667</ele><time>2026-04-03T12:32:18Z</time></trkpt><trkpt lat="39.805641528771304" lon="18.366203769020604"><ele>70.33333333333333</ele><time>2026-04-03T12:32:19Z</time></trkpt><trkpt lat="39.805811122168556" lon="18.366152680336704"><ele>70.0</ele><time>2026-04-03T12:32:20Z</time></trkpt><trkpt lat="39.8059780722251" lon="18.366104067463063"><ele>71.66666666666666</ele><time>2026-04-03T12:32:21Z</time></trkpt><trkpt lat="39.806143457025634" lon="18.366053267529185"><ele>73.33333333333333</ele><time>2026-04-03T12:32:22Z</time></trkpt><trkpt lat="39.806307750361036" lon="18.36600400229758"><ele>75.0</ele><time>2026-04-03T12:32:23Z</time></trkpt><trkpt lat="39.806472601448384" lon="18.365956944597354"><ele>75.0</ele><time>2026-04-03T12:32:24Z</time></trkpt><trkpt lat="39.80663927070044" lon="18.36590943123836"><ele>75.0</ele><time>2026-04-03T12:32:25Z</time></trkpt><trkpt lat="39.80680894914058" lon="18.365864413631208"><ele>75.0</ele><time>2026-04-03T12:32:26Z</time></trkpt><trkpt lat="39.80697955355636" lon="18.36582698558707"><ele>76.66666666666667</ele><time>2026-04-03T12:32:27Z</time></trkpt><trkpt lat="39.80715134924478" lon="18.365798772937698"><ele>78.33333333333334</ele><time>2026-04-03T12:32:28Z</time></trkpt><trkpt lat="39.80732227908918" lon="18.365786696714636"><ele>80.0</ele><time>2026-04-03T12:32:29Z</time></trkpt><trkpt lat="39.80749559239128" lon="18.365788499970055"><ele>80.66666666666667</ele><time>2026-04-03T12:32:30Z</time></trkpt><trkpt lat="39.807669726122526" lon="18.365806157201085"><ele>81.33333333333333</ele><time>2026-04-03T12:32:31Z</time></trkpt><trkpt lat="39.80784738205088" lon="18.365835935770722"><ele>82.0</ele><time>2026-04-03T12:32:32Z</time></trkpt><trkpt lat="39.80802731980011" lon="18.365876269772464"><ele>82.0</ele><time>2026-04-03T12:32:33Z</time></trkpt><trkpt lat="39.808209973027616" lon="18.36592021565713"><ele>82.0</ele><time>2026-04-03T12:32:34Z</time></trkpt><trkpt lat="39.80839370398022" lon="18.365966129285603"><ele>82.0</ele><time>2026-04-03T12:32:35Z</time></trkpt><trkpt lat="39.80857938236715" lon="18.366009770071077"><ele>81.66666666666666</ele><time>2026-04-03T12:32:36Z</time></trkpt><trkpt lat="39.808766914326014" lon="18.36605760536867"><ele>81.33333333333333</ele><time>2026-04-03T12:32:37Z</time></trkpt><trkpt lat="39.8089572894461" lon="18.366107809599686"><ele>81.0</ele><time>2026-04-03T12:32:38Z</time></trkpt><trkpt lat="39.809148032725425" lon="18.36615456830875"><ele>81.0</ele><time>2026-04-03T12:32:39Z</time></trkpt><trkpt lat="39.809340779279516" lon="18.366205021043392"><ele>81.0</ele><time>2026-04-03T12:32:40Z</time></trkpt><trkpt lat="39.80953573668561" lon="18.366257473701307"><ele>81.0</ele><time>2026-04-03T12:32:41Z</time></trkpt><trkpt lat="39.80973493880863" lon="18.36630838325595"><ele>81.0</ele><time>2026-04-03T12:32:42Z</time></trkpt><trkpt lat="39.809937178648646" lon="18.36636050400153"><ele>81.0</ele><time>2026-04-03T12:32:43Z</time></trkpt><trkpt lat="39.81014290943961" lon="18.366411216790986"><ele>81.0</ele><time>2026-04-03T12:32:44Z</time></trkpt><trkpt lat="39.81034997269913" lon="18.366465777534287"><ele>82.0</ele><time>2026-04-03T12:32:45Z</time></trkpt><trkpt lat="39.81055787294535" lon="18.36651772444175"><ele>83.0</ele><time>2026-04-03T12:32:46Z</time></trkpt><trkpt lat="39.81076425049216" lon="18.36656756044206"><ele>84.0</ele><time>2026-04-03T12:32:47Z</time></trkpt><trkpt lat="39.8109678226521" lon="18.366622134194035"><ele>85.0</ele><time>2026-04-03T12:32:48Z</time></trkpt><trkpt lat="39.81116848230403" lon="18.36667188304526"><ele>86.0</ele><time>2026-04-03T12:32:49Z</time></trkpt><trkpt lat="39.811365735607446" lon="18.36672290029931"><ele>87.0</ele><time>2026-04-03T12:32:50Z</time></trkpt><trkpt lat="39.81155917094207" lon="18.366774258500648"><ele>87.0</ele><time>2026-04-03T12:32:51Z</time></trkpt><trkpt lat="39.811749594760116" lon="18.366821851079422"><ele>87.0</ele><time>2026-04-03T12:32:52Z</time></trkpt><trkpt lat="39.811936089117026" lon="18.366867108557877"><ele>87.0</ele><time>2026-04-03T12:32:53Z</time></trkpt><trkpt lat="39.81211683567181" lon="18.36691286395141"><ele>87.66666666666667</ele><time>2026-04-03T12:32:54Z</time></trkpt><trkpt lat="39.81229351749193" lon="18.366966545328058"><ele>88.33333333333334</ele><time>2026-04-03T12:32:55Z</time></trkpt><trkpt lat="39.81246880489319" lon="18.367033370140607"><ele>89.0</ele><time>2026-04-03T12:32:56Z</time></trkpt><trkpt lat="39.812643164441184" lon="18.367112155160644"><ele>89.0</ele><time>2026-04-03T12:32:57Z</time></trkpt><trkpt lat="39.81282144429958" lon="18.367178576617434"><ele>89.0</ele><time>2026-04-03T12:32:58Z</time></trkpt><trkpt lat="39.81299219840348" lon="18.3672859335889"><ele>89.0</ele><time>2026-04-03T12:32:59Z</time></trkpt><trkpt lat="39.81314918036468" lon="18.367420200367643"><ele>91.0</ele><time>2026-04-03T12:33:00Z</time></trkpt><trkpt lat="39.81331376925562" lon="18.367541385504886"><ele>93.0</ele><time>2026-04-03T12:33:01Z</time></trkpt><trkpt lat="39.813478458530035" lon="18.3676652551128"><ele>95.0</ele><time>2026-04-03T12:33:02Z</time></trkpt><trkpt lat="39.8136441940057" lon="18.36778913854371"><ele>95.0</ele><time>2026-04-03T12:33:03Z</time></trkpt><trkpt lat="39.81381082867475" lon="18.36791533252769"><ele>95.0</ele><time>2026-04-03T12:33:04Z</time></trkpt><trkpt lat="39.81398007150401" lon="18.368041543867545"><ele>95.0</ele><time>2026-04-03T12:33:05Z</time></trkpt><trkpt lat="39.81414878277713" lon="18.368170402666898"><ele>96.66666666666667</ele><time>2026-04-03T12:33:06Z</time></trkpt><trkpt lat="39.81431899902624" lon="18.36829908572107"><ele>98.33333333333334</ele><time>2026-04-03T12:33:07Z</time></trkpt><trkpt lat="39.814498418303" lon="18.368409208041847"><ele>100.0</ele><time>2026-04-03T12:33:08Z</time></trkpt><trkpt lat="39.81466952288873" lon="18.368537623149482"><ele>101.33333333333334</ele><time>2026-04-03T12:33:09Z</time></trkpt><trkpt lat="39.81484126775341" lon="18.3686671140891"><ele>102.66666666666666</ele><time>2026-04-03T12:33:10Z</time></trkpt><trkpt lat="39.81500497951684" lon="18.36881617381106"><ele>104.0</ele><time>2026-04-03T12:33:11Z</time></trkpt><trkpt lat="39.81517641870577" lon="18.36894613722184"><ele>104.33333333333333</ele><time>2026-04-03T12:33:12Z</time></trkpt><trkpt lat="39.81534869439223" lon="18.36907297428708"><ele>104.66666666666666</ele><time>2026-04-03T12:33:13Z</time></trkpt><trkpt lat="39.815519640504924" lon="18.369203470799498"><ele>105.0</ele><time>2026-04-03T12:33:14Z</time></trkpt><trkpt lat="39.815690976550066" lon="18.369328910918476"><ele>105.0</ele><time>2026-04-03T12:33:15Z</time></trkpt><trkpt lat="39.8158622848088" lon="18.36945474015346"><ele>105.0</ele><time>2026-04-03T12:33:16Z</time></trkpt><trkpt lat="39.81603208049605" lon="18.36958239180136"><ele>105.0</ele><time>2026-04-03T12:33:17Z</time></trkpt><trkpt lat="39.81620157429391" lon="18.369710138208287"><ele>106.66666666666666</ele><time>2026-04-03T12:33:18Z</time></trkpt><trkpt lat="39.816370244925835" lon="18.36983976722559"><ele>108.33333333333333</ele><time>2026-04-03T12:33:19Z</time></trkpt><trkpt lat="39.81653740383282" lon="18.36996854105982"><ele>110.0</ele><time>2026-04-03T12:33:20Z</time></trkpt><trkpt lat="39.81670489977649" lon="18.370094713477627"><ele>110.66666666666666</ele><time>2026-04-03T12:33:21Z</time></trkpt><trkpt lat="39.816869126549264" lon="18.370214035762636"><ele>111.33333333333334</ele><time>2026-04-03T12:33:22Z</time></trkpt><trkpt lat="39.81702807946448" lon="18.370322926156316"><ele>112.0</ele><time>2026-04-03T12:33:23Z</time></trkpt><trkpt lat="39.817187777921376" lon="18.37042306073746"><ele>112.0</ele><time>2026-04-03T12:33:24Z</time></trkpt><trkpt lat="39.81735412028636" lon="18.370507449770994"><ele>112.0</ele><time>2026-04-03T12:33:25Z</time></trkpt><trkpt lat="39.817528397348894" lon="18.37057534321941"><ele>112.0</ele><time>2026-04-03T12:33:26Z</time></trkpt><trkpt lat="39.81770879940014" lon="18.37063009467119"><ele>112.33333333333334</ele><time>2026-04-03T12:33:27Z</time></trkpt><trkpt lat="39.81789463548108" lon="18.37066461428216"><ele>112.66666666666666</ele><time>2026-04-03T12:33:28Z</time></trkpt><trkpt lat="39.818085595171546" lon="18.370678386716875"><ele>113.0</ele><time>2026-04-03T12:33:29Z</time></trkpt><trkpt lat="39.8182793467509" lon="18.37067456437226"><ele>113.0</ele><time>2026-04-03T12:33:30Z</time></trkpt><trkpt lat="39.8184761366047" lon="18.370648186398693"><ele>113.0</ele><time>2026-04-03T12:33:31Z</time></trkpt><trkpt lat="39.81867519046781" lon="18.37060542612477"><ele>113.0</ele><time>2026-04-03T12:33:32Z</time></trkpt><trkpt lat="39.818875345562965" lon="18.370550001178874"><ele>113.0</ele><time>2026-04-03T12:33:33Z</time></trkpt><trkpt lat="39.819076109991855" lon="18.37049275181066"><ele>113.0</ele><time>2026-04-03T12:33:34Z</time></trkpt><trkpt lat="39.819277378832" lon="18.370432188686557"><ele>113.0</ele><time>2026-04-03T12:33:35Z</time></trkpt><trkpt lat="39.8194785649301" lon="18.370372548628637"><ele>113.0</ele><time>2026-04-03T12:33:36Z</time></trkpt><trkpt lat="39.81968178373414" lon="18.370313695093934"><ele>113.0</ele><time>2026-04-03T12:33:37Z</time></trkpt><trkpt lat="39.81988526188541" lon="18.370255252114205"><ele>113.0</ele><time>2026-04-03T12:33:38Z</time></trkpt><trkpt lat="39.82008807868099" lon="18.370198098078315"><ele>113.33333333333333</ele><time>2026-04-03T12:33:39Z</time></trkpt><trkpt lat="39.82029098880084" lon="18.370140094452825"><ele>113.66666666666666</ele><time>2026-04-03T12:33:40Z</time></trkpt><trkpt lat="39.82049116390124" lon="18.370084394788755"><ele>114.0</ele><time>2026-04-03T12:33:40.998Z</time></trkpt><trkpt lat="39.82069114637103" lon="18.37002900262635"><ele>114.0</ele><time>2026-04-03T12:33:41.998Z</time></trkpt><trkpt lat="39.82089022663887" lon="18.36997330056903"><ele>114.0</ele><time>2026-04-03T12:33:42.998Z</time></trkpt><trkpt lat="39.82109042448491" lon="18.36991784401887"><ele>114.0</ele><time>2026-04-03T12:33:43.998Z</time></trkpt><trkpt lat="39.8212907486785" lon="18.36985957679993"><ele>113.66666666666666</ele><time>2026-04-03T12:33:44.998Z</time></trkpt><trkpt lat="39.82149146209077" lon="18.36980174226119"><ele>113.33333333333333</ele><time>2026-04-03T12:33:45.998Z</time></trkpt><trkpt lat="39.82169299789106" lon="18.369745091549756"><ele>113.0</ele><time>2026-04-03T12:33:46.998Z</time></trkpt><trkpt lat="39.821895493704865" lon="18.369687388323083"><ele>113.0</ele><time>2026-04-03T12:33:47.998Z</time></trkpt><trkpt lat="39.82209751504493" lon="18.369628924889668"><ele>113.0</ele><time>2026-04-03T12:33:48.998Z</time></trkpt><trkpt lat="39.82229873190438" lon="18.369571130418574"><ele>113.0</ele><time>2026-04-03T12:33:49.998Z</time></trkpt><trkpt lat="39.8224994689045" lon="18.3695134739972"><ele>113.33333333333333</ele><time>2026-04-03T12:33:50.998Z</time></trkpt><trkpt lat="39.82269947556608" lon="18.369456540222213"><ele>113.66666666666666</ele><time>2026-04-03T12:33:51.998Z</time></trkpt><trkpt lat="39.82289878735167" lon="18.369400077084865"><ele>114.0</ele><time>2026-04-03T12:33:52.998Z</time></trkpt><trkpt lat="39.82309738914187" lon="18.36934286831392"><ele>114.0</ele><time>2026-04-03T12:33:53.999Z</time></trkpt><trkpt lat="39.82329560456381" lon="18.369286760111752"><ele>114.0</ele><time>2026-04-03T12:33:54.999Z</time></trkpt><trkpt lat="39.82349153210672" lon="18.36922896789155"><ele>114.0</ele><time>2026-04-03T12:33:55.999Z</time></trkpt><trkpt lat="39.82368679922858" lon="18.36917300997395"><ele>114.66666666666666</ele><time>2026-04-03T12:33:56.999Z</time></trkpt><trkpt lat="39.823881045221505" lon="18.369119535361147"><ele>115.33333333333333</ele><time>2026-04-03T12:33:57.999Z</time></trkpt><trkpt lat="39.82406822514849" lon="18.369069735307992"><ele>116.0</ele><time>2026-04-03T12:33:58.999Z</time></trkpt><trkpt lat="39.82425527363129" lon="18.3690150865422"><ele>115.66666666666666</ele><time>2026-04-03T12:33:59.999Z</time></trkpt><trkpt lat="39.824441304669065" lon="18.36896146280025"><ele>115.33333333333334</ele><time>2026-04-03T12:34:00.999Z</time></trkpt><trkpt lat="39.82462631569112" lon="18.36890645239232"><ele>115.0</ele><time>2026-04-03T12:34:01.999Z</time></trkpt><trkpt lat="39.82481179149329" lon="18.368856726841145"><ele>115.0</ele><time>2026-04-03T12:34:02.999Z</time></trkpt><trkpt lat="39.82499737406753" lon="18.368809840651927"><ele>115.0</ele><time>2026-04-03T12:34:03.999Z</time></trkpt><trkpt lat="39.82518357425596" lon="18.36876798840729"><ele>115.0</ele><time>2026-04-03T12:34:04.999Z</time></trkpt><trkpt lat="39.82537144635201" lon="18.36872901293717"><ele>114.66666666666667</ele><time>2026-04-03T12:34:05.999Z</time></trkpt><trkpt lat="39.82555853550107" lon="18.36868961815175"><ele>114.33333333333334</ele><time>2026-04-03T12:34:06.999Z</time></trkpt><trkpt lat="39.8257446431202" lon="18.368647705185133"><ele>114.0</ele><time>2026-04-03T12:34:07.999Z</time></trkpt><trkpt lat="39.8259305656228" lon="18.368605390541557"><ele>114.33333333333334</ele><time>2026-04-03T12:34:08.999Z</time></trkpt><trkpt lat="39.82611588809805" lon="18.368563496213714"><ele>114.66666666666667</ele><time>2026-04-03T12:34:09.999Z</time></trkpt><trkpt lat="39.826300935109565" lon="18.36852134056222"><ele>115.0</ele><time>2026-04-03T12:34:10.999Z</time></trkpt><trkpt lat="39.82648606691772" lon="18.368478575782586"><ele>115.0</ele><time>2026-04-03T12:34:11.999Z</time></trkpt><trkpt lat="39.82667206543123" lon="18.368436429561676"><ele>115.0</ele><time>2026-04-03T12:34:12.999Z</time></trkpt><trkpt lat="39.826862568965936" lon="18.368396994105574"><ele>115.0</ele><time>2026-04-03T12:34:13.999Z</time></trkpt><trkpt lat="39.827057349232824" lon="18.368355205917197"><ele>115.33333333333334</ele><time>2026-04-03T12:34:14.999Z</time></trkpt><trkpt lat="39.82725520391283" lon="18.36831340236385"><ele>115.66666666666666</ele><time>2026-04-03T12:34:15.999Z</time></trkpt><trkpt lat="39.82745545671052" lon="18.368272058322024"><ele>116.0</ele><time>2026-04-03T12:34:16.999Z</time></trkpt><trkpt lat="39.827658099585065" lon="18.368229861603186"><ele>116.66666666666666</ele><time>2026-04-03T12:34:17.999Z</time></trkpt><trkpt lat="39.82786127712777" lon="18.36818476668285"><ele>117.33333333333334</ele><time>2026-04-03T12:34:18.999Z</time></trkpt><trkpt lat="39.82806124541513" lon="18.368140103900778"><ele>118.0</ele><time>2026-04-03T12:34:19.999Z</time></trkpt><trkpt lat="39.8282590012066" lon="18.3680953331741"><ele>118.0</ele><time>2026-04-03T12:34:20.999Z</time></trkpt><trkpt lat="39.82845643402356" lon="18.368052638994094"><ele>118.0</ele><time>2026-04-03T12:34:21.999Z</time></trkpt><trkpt lat="39.828652434586274" lon="18.368007379821105"><ele>118.0</ele><time>2026-04-03T12:34:22.999Z</time></trkpt><trkpt lat="39.828849444769986" lon="18.36796323770486"><ele>118.0</ele><time>2026-04-03T12:34:24Z</time></trkpt><trkpt lat="39.82904803075926" lon="18.367918558109526"><ele>118.0</ele><time>2026-04-03T12:34:25Z</time></trkpt><trkpt lat="39.82924849687512" lon="18.36787563119212"><ele>118.0</ele><time>2026-04-03T12:34:26Z</time></trkpt><trkpt lat="39.829450048781666" lon="18.367832606289383"><ele>118.33333333333334</ele><time>2026-04-03T12:34:27Z</time></trkpt><trkpt lat="39.829651680121565" lon="18.36778926637222"><ele>118.66666666666666</ele><time>2026-04-03T12:34:28Z</time></trkpt><trkpt lat="39.82985130713041" lon="18.36774579145866"><ele>119.0</ele><time>2026-04-03T12:34:29Z</time></trkpt><trkpt lat="39.83004838826292" lon="18.367702922480333"><ele>119.33333333333333</ele><time>2026-04-03T12:34:30Z</time></trkpt><trkpt lat="39.83024512882183" lon="18.367660219265485"><ele>119.66666666666666</ele><time>2026-04-03T12:34:31Z</time></trkpt><trkpt lat="39.83044070042058" lon="18.36761623231002"><ele>120.0</ele><time>2026-04-03T12:34:32Z</time></trkpt><trkpt lat="39.83063483116632" lon="18.36757347191873"><ele>120.0</ele><time>2026-04-03T12:34:33Z</time></trkpt><trkpt lat="39.83082707229905" lon="18.36752856852411"><ele>120.0</ele><time>2026-04-03T12:34:34Z</time></trkpt><trkpt lat="39.83101926451134" lon="18.367484474377346"><ele>120.0</ele><time>2026-04-03T12:34:35Z</time></trkpt><trkpt lat="39.831209570253215" lon="18.36743961015513"><ele>120.66666666666666</ele><time>2026-04-03T12:34:36Z</time></trkpt><trkpt lat="39.831399606768706" lon="18.367396054676572"><ele>121.33333333333333</ele><time>2026-04-03T12:34:37Z</time></trkpt><trkpt lat="39.83158868212845" lon="18.36735195813896"><ele>122.0</ele><time>2026-04-03T12:34:38Z</time></trkpt><trkpt lat="39.8317778329765" lon="18.36730903663353"><ele>121.66666666666666</ele><time>2026-04-03T12:34:39Z</time></trkpt><trkpt lat="39.831966699114886" lon="18.367270213768354"><ele>121.33333333333334</ele><time>2026-04-03T12:34:40Z</time></trkpt><trkpt lat="39.83215519501058" lon="18.367230669420703"><ele>121.0</ele><time>2026-04-03T12:34:41Z</time></trkpt><trkpt lat="39.83234191659529" lon="18.367188959473282"><ele>121.0</ele><time>2026-04-03T12:34:42Z</time></trkpt><trkpt lat="39.8325279908494" lon="18.367147683472414"><ele>121.0</ele><time>2026-04-03T12:34:43Z</time></trkpt><trkpt lat="39.83270965997514" lon="18.367105945866136"><ele>121.0</ele><time>2026-04-03T12:34:44Z</time></trkpt><trkpt lat="39.83288772579374" lon="18.36706512433609"><ele>121.75</ele><time>2026-04-03T12:34:45Z</time></trkpt><trkpt lat="39.83305492125661" lon="18.367025820431518"><ele>122.5</ele><time>2026-04-03T12:34:46Z</time></trkpt><trkpt lat="39.833187580613995" lon="18.36699084006826"><ele>123.25</ele><time>2026-04-03T12:34:47Z</time></trkpt><trkpt lat="39.83328064510804" lon="18.366968963651814"><ele>124.0</ele><time>2026-04-03T12:34:48Z</time></trkpt><trkpt lat="39.833347046056865" lon="18.366949293273894"><ele>124.0</ele><time>2026-04-03T12:34:49Z</time></trkpt><trkpt lat="39.83343268339448" lon="18.36693589460298"><ele>124.0</ele><time>2026-04-03T12:34:51Z</time></trkpt><trkpt lat="39.833423190706576" lon="18.366782755539948"><ele>124.0</ele><time>2026-04-03T12:34:52Z</time></trkpt><trkpt lat="39.83340845808003" lon="18.366635104614303"><ele>124.0</ele><time>2026-04-03T12:34:54Z</time></trkpt><trkpt lat="39.83347705105517" lon="18.36651740734253"><ele>124.0</ele><time>2026-04-03T12:34:56Z</time></trkpt><trkpt lat="39.83354399862106" lon="18.366481649495647"><ele>124.80000000000001</ele><time>2026-04-03T12:34:57Z</time></trkpt><trkpt lat="39.8336218212831" lon="18.366454739262515"><ele>125.60000000000001</ele><time>2026-04-03T12:34:58Z</time></trkpt><trkpt lat="39.83370931306291" lon="18.366429933800852"><ele>126.4</ele><time>2026-04-03T12:34:59Z</time></trkpt><trkpt lat="39.83380365287909" lon="18.366410626729206"><ele>127.2</ele><time>2026-04-03T12:35:00Z</time></trkpt><trkpt lat="39.83390476127373" lon="18.366401475161815"><ele>128.0</ele><time>2026-04-03T12:35:01Z</time></trkpt><trkpt lat="39.83401076053299" lon="18.366398641245578"><ele>128.0</ele><time>2026-04-03T12:35:02Z</time></trkpt><trkpt lat="39.83411592650283" lon="18.366400291690297"><ele>128.0</ele><time>2026-04-03T12:35:03Z</time></trkpt><trkpt lat="39.83422069657893" lon="18.366396694429582"><ele>128.0</ele><time>2026-04-03T12:35:04Z</time></trkpt><trkpt lat="39.83432228204848" lon="18.366379211038353"><ele>128.0</ele><time>2026-04-03T12:35:05Z</time></trkpt><trkpt lat="39.83441961857481" lon="18.3663477681087"><ele>128.0</ele><time>2026-04-03T12:35:06Z</time></trkpt><trkpt lat="39.83451423082577" lon="18.366301269173768"><ele>128.25</ele><time>2026-04-03T12:35:07Z</time></trkpt><trkpt lat="39.83461487643869" lon="18.366262304879434"><ele>128.5</ele><time>2026-04-03T12:35:08Z</time></trkpt><trkpt lat="39.83470486635731" lon="18.3661726296884"><ele>128.75</ele><time>2026-04-03T12:35:09Z</time></trkpt><trkpt lat="39.83480535855745" lon="18.36609932104755"><ele>129.0</ele><time>2026-04-03T12:35:10Z</time></trkpt><trkpt lat="39.83490889084797" lon="18.366021804139766"><ele>129.0</ele><time>2026-04-03T12:35:11Z</time></trkpt><trkpt lat="39.835013550664996" lon="18.365946288441467"><ele>129.0</ele><time>2026-04-03T12:35:12Z</time></trkpt><trkpt lat="39.83511644009017" lon="18.365867446600344"><ele>129.0</ele><time>2026-04-03T12:35:13Z</time></trkpt><trkpt lat="39.835217369503795" lon="18.36578120800652"><ele>129.0</ele><time>2026-04-03T12:35:14Z</time></trkpt><trkpt lat="39.83531130471433" lon="18.365680517264952"><ele>129.0</ele><time>2026-04-03T12:35:15Z</time></trkpt><trkpt lat="39.835397003822045" lon="18.365566581990382"><ele>129.0</ele><time>2026-04-03T12:35:16Z</time></trkpt><trkpt lat="39.835488228792286" lon="18.36545852505443"><ele>129.0</ele><time>2026-04-03T12:35:17Z</time></trkpt><trkpt lat="39.83556592447968" lon="18.365333689810342"><ele>129.0</ele><time>2026-04-03T12:35:18Z</time></trkpt><trkpt lat="39.835642692775274" lon="18.365208268922352"><ele>129.0</ele><time>2026-04-03T12:35:19Z</time></trkpt><trkpt lat="39.83570797610679" lon="18.365069656533333"><ele>129.0</ele><time>2026-04-03T12:35:20Z</time></trkpt><trkpt lat="39.83579267163301" lon="18.364950470751992"><ele>129.0</ele><time>2026-04-03T12:35:21Z</time></trkpt><trkpt lat="39.83588828458676" lon="18.364841933991592"><ele>129.0</ele><time>2026-04-03T12:35:22Z</time></trkpt><trkpt lat="39.83599387264736" lon="18.36474227526832"><ele>129.25</ele><time>2026-04-03T12:35:23Z</time></trkpt><trkpt lat="39.836105754625116" lon="18.364662065501243"><ele>129.5</ele><time>2026-04-03T12:35:24Z</time></trkpt><trkpt lat="39.83622581454981" lon="18.364585878942123"><ele>129.75</ele><time>2026-04-03T12:35:25Z</time></trkpt><trkpt lat="39.83635550074987" lon="18.36451997728625"><ele>130.0</ele><time>2026-04-03T12:35:26Z</time></trkpt><trkpt lat="39.83649447217556" lon="18.364467580923403"><ele>130.0</ele><time>2026-04-03T12:35:27Z</time></trkpt><trkpt lat="39.836632535931315" lon="18.364417092719325"><ele>130.0</ele><time>2026-04-03T12:35:28Z</time></trkpt><trkpt lat="39.83677079182066" lon="18.364362005592415"><ele>130.0</ele><time>2026-04-03T12:35:29Z</time></trkpt><trkpt lat="39.83690970768982" lon="18.36431047932263"><ele>130.0</ele><time>2026-04-03T12:35:30Z</time></trkpt><trkpt lat="39.83704477194237" lon="18.364265175494403"><ele>130.5</ele><time>2026-04-03T12:35:31Z</time></trkpt><trkpt lat="39.837177968906836" lon="18.36422821462175"><ele>131.0</ele><time>2026-04-03T12:35:32Z</time></trkpt><trkpt lat="39.83730242559924" lon="18.364201580091933"><ele>131.5</ele><time>2026-04-03T12:35:33Z</time></trkpt><trkpt lat="39.83741905647403" lon="18.364183999459314"><ele>132.0</ele><time>2026-04-03T12:35:34Z</time></trkpt><trkpt lat="39.83753184648301" lon="18.364172185180724"><ele>132.25</ele><time>2026-04-03T12:35:35Z</time></trkpt><trkpt lat="39.83764011419158" lon="18.364144495167753"><ele>132.5</ele><time>2026-04-03T12:35:36Z</time></trkpt><trkpt lat="39.83774919381522" lon="18.364092385680827"><ele>132.75</ele><time>2026-04-03T12:35:37Z</time></trkpt><trkpt lat="39.83785781170688" lon="18.364035616348524"><ele>133.0</ele><time>2026-04-03T12:35:38Z</time></trkpt><trkpt lat="39.83796141509205" lon="18.363979503443854"><ele>133.0</ele><time>2026-04-03T12:35:39Z</time></trkpt><trkpt lat="39.83805828131353" lon="18.36392685662383"><ele>133.0</ele><time>2026-04-03T12:35:40Z</time></trkpt><trkpt lat="39.83814294939134" lon="18.363880053244"><ele>133.0</ele><time>2026-04-03T12:35:41Z</time></trkpt><trkpt lat="39.83820783988647" lon="18.36384456460536"><ele>133.0</ele><time>2026-04-03T12:35:42Z</time></trkpt><trkpt lat="39.83828394433129" lon="18.363817402237256"><ele>133.0</ele><time>2026-04-03T12:35:44Z</time></trkpt><trkpt lat="39.838363210504696" lon="18.36382854658987"><ele>133.0</ele><time>2026-04-03T12:35:48.998Z</time></trkpt><trkpt lat="39.83848352142515" lon="18.363795340700182"><ele>133.0</ele><time>2026-04-03T12:35:50.998Z</time></trkpt><trkpt lat="39.838558948561506" lon="18.363771571096436"><ele>133.0</ele><time>2026-04-03T12:35:51.998Z</time></trkpt><trkpt lat="39.83863489457167" lon="18.363737196629415"><ele>133.0</ele><time>2026-04-03T12:35:52.998Z</time></trkpt><trkpt lat="39.83871894403571" lon="18.363696776048027"><ele>133.0</ele><time>2026-04-03T12:35:53.998Z</time></trkpt><trkpt lat="39.838816083165696" lon="18.363647185818053"><ele>133.0</ele><time>2026-04-03T12:35:54.998Z</time></trkpt><trkpt lat="39.83892367644367" lon="18.363610307901336"><ele>133.0</ele><time>2026-04-03T12:35:55.998Z</time></trkpt><trkpt lat="39.839023333140304" lon="18.3635554119151"><ele>133.0</ele><time>2026-04-03T12:35:56.998Z</time></trkpt><trkpt lat="39.839119783187655" lon="18.363498185280967"><ele>133.0</ele><time>2026-04-03T12:35:57.998Z</time></trkpt><trkpt lat="39.83921331552425" lon="18.363439680224182"><ele>133.0</ele><time>2026-04-03T12:35:58.999Z</time></trkpt><trkpt lat="39.839304995797434" lon="18.3633842276751"><ele>133.0</ele><time>2026-04-03T12:35:59.999Z</time></trkpt><trkpt lat="39.83939498634179" lon="18.363332828321212"><ele>133.33333333333334</ele><time>2026-04-03T12:36:00.999Z</time></trkpt><trkpt lat="39.83948098041498" lon="18.36329171180477"><ele>133.66666666666669</ele><time>2026-04-03T12:36:01.999Z</time></trkpt><trkpt lat="39.83956386515457" lon="18.36325508429016"><ele>134.0</ele><time>2026-04-03T12:36:02.999Z</time></trkpt><trkpt lat="39.839648454995064" lon="18.363210432251694"><ele>134.33333333333334</ele><time>2026-04-03T12:36:03.999Z</time></trkpt><trkpt lat="39.83973424181444" lon="18.363160548530992"><ele>134.66666666666666</ele><time>2026-04-03T12:36:04.999Z</time></trkpt><trkpt lat="39.83980993890318" lon="18.363113921721137"><ele>135.0</ele><time>2026-04-03T12:36:05.999Z</time></trkpt><trkpt lat="39.83989845999023" lon="18.363058021396057"><ele>135.0</ele><time>2026-04-03T12:36:07.999Z</time></trkpt><trkpt lat="39.83997295766822" lon="18.362992405822617"><ele>135.0</ele><time>2026-04-03T12:36:11.999Z</time></trkpt><trkpt lat="39.84002706883751" lon="18.362944231931102"><ele>135.0</ele><time>2026-04-03T12:36:12.999Z</time></trkpt><trkpt lat="39.840083879102544" lon="18.36289557929677"><ele>135.0</ele><time>2026-04-03T12:36:13.999Z</time></trkpt><trkpt lat="39.84014663853364" lon="18.362842232592772"><ele>135.0</ele><time>2026-04-03T12:36:14.999Z</time></trkpt><trkpt lat="39.840208341684594" lon="18.36278868496738"><ele>135.0</ele><time>2026-04-03T12:36:15.999Z</time></trkpt><trkpt lat="39.84026004816543" lon="18.36274024883976"><ele>135.0</ele><time>2026-04-03T12:36:16.999Z</time></trkpt><trkpt lat="39.84034436912633" lon="18.362677407489812"><ele>135.0</ele><time>2026-04-03T12:36:18.999Z</time></trkpt><trkpt lat="39.84046157670726" lon="18.36269629811596"><ele>135.0</ele><time>2026-04-03T12:36:20.999Z</time></trkpt><trkpt lat="39.840539970002986" lon="18.362722348327544"><ele>135.0</ele><time>2026-04-03T12:36:21.999Z</time></trkpt><trkpt lat="39.84063369883092" lon="18.362748333253474"><ele>135.0</ele><time>2026-04-03T12:36:22.999Z</time></trkpt><trkpt lat="39.840736570070796" lon="18.362777184170916"><ele>135.0</ele><time>2026-04-03T12:36:23.999Z</time></trkpt><trkpt lat="39.84083760116145" lon="18.362808270123043"><ele>135.0</ele><time>2026-04-03T12:36:24.999Z</time></trkpt><trkpt lat="39.840945456095525" lon="18.362842025233235"><ele>135.0</ele><time>2026-04-03T12:36:26Z</time></trkpt><trkpt lat="39.84104888283364" lon="18.36287364870948"><ele>135.0</ele><time>2026-04-03T12:36:27Z</time></trkpt><trkpt lat="39.84114852024663" lon="18.36290116461924"><ele>135.0</ele><time>2026-04-03T12:36:28Z</time></trkpt><trkpt lat="39.84124891371925" lon="18.362918348026856"><ele>135.0</ele><time>2026-04-03T12:36:29Z</time></trkpt><trkpt lat="39.84134641612103" lon="18.362922496941913"><ele>135.0</ele><time>2026-04-03T12:36:30Z</time></trkpt><trkpt lat="39.841445194222736" lon="18.362921315409817"><ele>135.0</ele><time>2026-04-03T12:36:31Z</time></trkpt><trkpt lat="39.841547465636566" lon="18.362926923980297"><ele>135.0</ele><time>2026-04-03T12:36:32Z</time></trkpt><trkpt lat="39.841654262795444" lon="18.362953088583648"><ele>135.0</ele><time>2026-04-03T12:36:33Z</time></trkpt><trkpt lat="39.84176789647188" lon="18.362982954728665"><ele>135.0</ele><time>2026-04-03T12:36:34Z</time></trkpt><trkpt lat="39.841887878409366" lon="18.363014615249135"><ele>136.25</ele><time>2026-04-03T12:36:35Z</time></trkpt><trkpt lat="39.842009537751494" lon="18.363044901256814"><ele>137.5</ele><time>2026-04-03T12:36:36Z</time></trkpt><trkpt lat="39.84212583577466" lon="18.363074942179285"><ele>138.75</ele><time>2026-04-03T12:36:37Z</time></trkpt><trkpt lat="39.8422420810883" lon="18.363106714905964"><ele>140.0</ele><time>2026-04-03T12:36:38Z</time></trkpt><trkpt lat="39.842359736596855" lon="18.363137195711854"><ele>140.0</ele><time>2026-04-03T12:36:39Z</time></trkpt><trkpt lat="39.84247631329659" lon="18.363164068155623"><ele>140.0</ele><time>2026-04-03T12:36:40Z</time></trkpt><trkpt lat="39.842585904764306" lon="18.36318706502116"><ele>140.0</ele><time>2026-04-03T12:36:41Z</time></trkpt><trkpt lat="39.84268485295858" lon="18.36320773998475"><ele>140.0</ele><time>2026-04-03T12:36:42Z</time></trkpt><trkpt lat="39.84275852770261" lon="18.36322135363362"><ele>140.0</ele><time>2026-04-03T12:36:43Z</time></trkpt><trkpt lat="39.8428318816684" lon="18.36323543789831"><ele>140.33333333333331</ele><time>2026-04-03T12:36:44Z</time></trkpt><trkpt lat="39.84290160120647" lon="18.363249071205292"><ele>140.66666666666666</ele><time>2026-04-03T12:36:45Z</time></trkpt><trkpt lat="39.84297747948644" lon="18.363262259368934"><ele>141.0</ele><time>2026-04-03T12:36:46Z</time></trkpt><trkpt lat="39.84306274047283" lon="18.36326981445026"><ele>141.33333333333334</ele><time>2026-04-03T12:36:47Z</time></trkpt><trkpt lat="39.84315681833989" lon="18.363257048571135"><ele>141.66666666666669</ele><time>2026-04-03T12:36:48Z</time></trkpt><trkpt lat="39.843252302444455" lon="18.363224424947248"><ele>142.0</ele><time>2026-04-03T12:36:49Z</time></trkpt><trkpt lat="39.84335011861666" lon="18.363179895325274"><ele>142.0</ele><time>2026-04-03T12:36:50Z</time></trkpt><trkpt lat="39.84344713235967" lon="18.363138904819348"><ele>142.0</ele><time>2026-04-03T12:36:51Z</time></trkpt><trkpt lat="39.84354389904711" lon="18.36309833886955"><ele>142.0</ele><time>2026-04-03T12:36:52Z</time></trkpt><trkpt lat="39.84364306758616" lon="18.363058887830682"><ele>142.0</ele><time>2026-04-03T12:36:53Z</time></trkpt><trkpt lat="39.84374596169026" lon="18.363017177500126"><ele>142.0</ele><time>2026-04-03T12:36:54Z</time></trkpt><trkpt lat="39.84384166536428" lon="18.362960246549964"><ele>141.79999999999998</ele><time>2026-04-03T12:36:55Z</time></trkpt><trkpt lat="39.843927382762416" lon="18.36289678337455"><ele>141.6</ele><time>2026-04-03T12:36:56Z</time></trkpt><trkpt lat="39.84401320814019" lon="18.36283334603813"><ele>141.39999999999998</ele><time>2026-04-03T12:36:57Z</time></trkpt><trkpt lat="39.844103349985474" lon="18.362765013779356"><ele>141.2</ele><time>2026-04-03T12:36:58Z</time></trkpt><trkpt lat="39.844198191269534" lon="18.362696694038743"><ele>141.0</ele><time>2026-04-03T12:36:59Z</time></trkpt><trkpt lat="39.84429091857446" lon="18.362635642392704"><ele>141.2</ele><time>2026-04-03T12:37:00Z</time></trkpt><trkpt lat="39.84436328438965" lon="18.362589353382013"><ele>141.39999999999998</ele><time>2026-04-03T12:37:01Z</time></trkpt><trkpt lat="39.84446631884145" lon="18.362527380342936"><ele>141.6</ele><time>2026-04-03T12:37:03Z</time></trkpt><trkpt lat="39.8445864810419" lon="18.36248078080184"><ele>141.79999999999998</ele><time>2026-04-03T12:37:05Z</time></trkpt><trkpt lat="39.844656874658014" lon="18.36248540996022"><ele>142.0</ele><time>2026-04-03T12:37:06Z</time></trkpt><trkpt lat="39.844722707740125" lon="18.362472530794644"><ele>142.0</ele><time>2026-04-03T12:37:07Z</time></trkpt><trkpt lat="39.844789935661325" lon="18.362456750257028"><ele>142.0</ele><time>2026-04-03T12:37:08Z</time></trkpt><trkpt lat="39.84486475966784" lon="18.36243640233773"><ele>142.0</ele><time>2026-04-03T12:37:09Z</time></trkpt><trkpt lat="39.84494094965939" lon="18.362411648633852"><ele>142.0</ele><time>2026-04-03T12:37:10Z</time></trkpt><trkpt lat="39.84501403215517" lon="18.362384070330926"><ele>142.0</ele><time>2026-04-03T12:37:11Z</time></trkpt><trkpt lat="39.84508118725144" lon="18.362358388667534"><ele>142.0</ele><time>2026-04-03T12:37:12Z</time></trkpt><trkpt lat="39.84514418745246" lon="18.36231799088086"><ele>142.0</ele><time>2026-04-03T12:37:13Z</time></trkpt><trkpt lat="39.845214739520316" lon="18.362301690725985"><ele>142.16666666666669</ele><time>2026-04-03T12:37:14Z</time></trkpt><trkpt lat="39.84528857074541" lon="18.362272082858922"><ele>142.33333333333334</ele><time>2026-04-03T12:37:15Z</time></trkpt><trkpt lat="39.84536834172231" lon="18.362228363296524"><ele>142.5</ele><time>2026-04-03T12:37:16Z</time></trkpt><trkpt lat="39.84545287544976" lon="18.36218142682114"><ele>142.66666666666666</ele><time>2026-04-03T12:37:17Z</time></trkpt><trkpt lat="39.84552351341555" lon="18.362144654776344"><ele>142.83333333333331</ele><time>2026-04-03T12:37:18Z</time></trkpt><trkpt lat="39.845605278887554" lon="18.362101375021002"><ele>143.0</ele><time>2026-04-03T12:37:20Z</time></trkpt><trkpt lat="39.84567834650495" lon="18.362126014908352"><ele>143.0</ele><time>2026-04-03T12:37:22Z</time></trkpt><trkpt lat="39.84568720156056" lon="18.362214172309876"><ele>143.0</ele><time>2026-04-03T12:37:23Z</time></trkpt><trkpt lat="39.84572325579405" lon="18.362290302623293"><ele>143.0</ele><time>2026-04-03T12:37:24Z</time></trkpt><trkpt lat="39.845763140115544" lon="18.362373336933555"><ele>143.0</ele><time>2026-04-03T12:37:25Z</time></trkpt><trkpt lat="39.84580033568665" lon="18.36244885332758"><ele>143.0</ele><time>2026-04-03T12:37:26Z</time></trkpt><trkpt lat="39.845889377267525" lon="18.362557501822753"><ele>143.0</ele><time>2026-04-03T12:37:28Z</time></trkpt><trkpt lat="39.84595582162951" lon="18.362578506213666"><ele>143.0</ele><time>2026-04-03T12:37:30Z</time></trkpt><trkpt lat="39.84602389030334" lon="18.362397992705386"><ele>143.0</ele><time>2026-04-03T12:37:31Z</time></trkpt><trkpt lat="39.84606281124466" lon="18.36230378459336"><ele>143.0</ele><time>2026-04-03T12:37:32Z</time></trkpt><trkpt lat="39.84610515042599" lon="18.362207914683015"><ele>143.0</ele><time>2026-04-03T12:37:33Z</time></trkpt><trkpt lat="39.84612225098316" lon="18.36211164716687"><ele>143.0</ele><time>2026-04-03T12:37:34Z</time></trkpt><trkpt lat="39.84615672547201" lon="18.362039933282414"><ele>142.8</ele><time>2026-04-03T12:37:35Z</time></trkpt><trkpt lat="39.846162623078015" lon="18.361919310707783"><ele>142.60000000000002</ele><time>2026-04-03T12:37:37Z</time></trkpt><trkpt lat="39.84628357090758" lon="18.361871793087378"><ele>142.39999999999998</ele><time>2026-04-03T12:37:38Z</time></trkpt><trkpt lat="39.846410503246126" lon="18.3618219287672"><ele>142.2</ele><time>2026-04-03T12:37:40Z</time></trkpt><trkpt lat="39.84648395492288" lon="18.36179594574324"><ele>142.0</ele><time>2026-04-03T12:37:41.001Z</time></trkpt><trkpt lat="39.84655940542988" lon="18.36176722765933"><ele>142.0</ele><time>2026-04-03T12:37:42.001Z</time></trkpt><trkpt lat="39.84663872282754" lon="18.361742140953172"><ele>142.0</ele><time>2026-04-03T12:37:43.001Z</time></trkpt><trkpt lat="39.84671710824913" lon="18.361716787970025"><ele>142.0</ele><time>2026-04-03T12:37:44.001Z</time></trkpt><trkpt lat="39.84679623019522" lon="18.36168874147716"><ele>142.0</ele><time>2026-04-03T12:37:45.001Z</time></trkpt><trkpt lat="39.8468710815898" lon="18.36165825178575"><ele>142.0</ele><time>2026-04-03T12:37:46.001Z</time></trkpt><trkpt lat="39.846940099863374" lon="18.36162882162999"><ele>142.0</ele><time>2026-04-03T12:37:47.001Z</time></trkpt><trkpt lat="39.8470039030814" lon="18.361597061451324"><ele>142.4</ele><time>2026-04-03T12:37:48.001Z</time></trkpt><trkpt lat="39.847065821386124" lon="18.361563341841723"><ele>142.79999999999998</ele><time>2026-04-03T12:37:49.001Z</time></trkpt><trkpt lat="39.84715851109833" lon="18.361543221537246"><ele>143.2</ele><time>2026-04-03T12:37:51.001Z</time></trkpt><trkpt lat="39.84722535075732" lon="18.361504417290007"><ele>143.6</ele><time>2026-04-03T12:37:58.998Z</time></trkpt><trkpt lat="39.84733032395641" lon="18.361470390044317"><ele>144.0</ele><time>2026-04-03T12:38:02.998Z</time></trkpt><trkpt lat="39.84745095442089" lon="18.36143200226119"><ele>144.0</ele><time>2026-04-03T12:38:04.999Z</time></trkpt><trkpt lat="39.84752439627282" lon="18.36141013647995"><ele>144.0</ele><time>2026-04-03T12:38:06.999Z</time></trkpt><trkpt lat="39.84760775653242" lon="18.361379018645007"><ele>144.0</ele><time>2026-04-03T12:38:15.999Z</time></trkpt><trkpt lat="39.847715125511215" lon="18.361318572499584"><ele>144.0</ele><time>2026-04-03T12:38:17.999Z</time></trkpt><trkpt lat="39.84782195011076" lon="18.361268692916322"><ele>144.0</ele><time>2026-04-03T12:38:19.999Z</time></trkpt><trkpt lat="39.84788662258439" lon="18.361236219717505"><ele>143.83333333333334</ele><time>2026-04-03T12:38:20.999Z</time></trkpt><trkpt lat="39.847960476283106" lon="18.361201070577994"><ele>143.66666666666666</ele><time>2026-04-03T12:38:21.999Z</time></trkpt><trkpt lat="39.848040909429315" lon="18.361160070130644"><ele>143.5</ele><time>2026-04-03T12:38:22.999Z</time></trkpt><trkpt lat="39.84812427221318" lon="18.361115455208875"><ele>143.33333333333331</ele><time>2026-04-03T12:38:23.999Z</time></trkpt><trkpt lat="39.84821130588621" lon="18.36107499169272"><ele>143.16666666666666</ele><time>2026-04-03T12:38:24.999Z</time></trkpt><trkpt lat="39.848294827995076" lon="18.361034201011325"><ele>143.0</ele><time>2026-04-03T12:38:25.999Z</time></trkpt><trkpt lat="39.84838264939463" lon="18.36098581592339"><ele>143.0</ele><time>2026-04-03T12:38:26.999Z</time></trkpt><trkpt lat="39.848471142642865" lon="18.360924146718585"><ele>143.0</ele><time>2026-04-03T12:38:27.999Z</time></trkpt><trkpt lat="39.848561556543004" lon="18.360858189116485"><ele>143.0</ele><time>2026-04-03T12:38:29Z</time></trkpt><trkpt lat="39.848659487497585" lon="18.36078486764266"><ele>143.0</ele><time>2026-04-03T12:38:30Z</time></trkpt><trkpt lat="39.84875872903227" lon="18.36070818029393"><ele>143.0</ele><time>2026-04-03T12:38:31Z</time></trkpt><trkpt lat="39.848855766189054" lon="18.3606312865051"><ele>143.0</ele><time>2026-04-03T12:38:32Z</time></trkpt><trkpt lat="39.848951262653344" lon="18.360556785136016"><ele>143.0</ele><time>2026-04-03T12:38:33Z</time></trkpt><trkpt lat="39.84904265197842" lon="18.360484909326605"><ele>143.0</ele><time>2026-04-03T12:38:34Z</time></trkpt><trkpt lat="39.849129460719965" lon="18.360417566716738"><ele>143.0</ele><time>2026-04-03T12:38:35Z</time></trkpt><trkpt lat="39.84921208533434" lon="18.360352747753794"><ele>143.0</ele><time>2026-04-03T12:38:36Z</time></trkpt><trkpt lat="39.84929324922146" lon="18.360290258828748"><ele>143.20000000000002</ele><time>2026-04-03T12:38:37Z</time></trkpt><trkpt lat="39.84938064694789" lon="18.360225709261382"><ele>143.4</ele><time>2026-04-03T12:38:38Z</time></trkpt><trkpt lat="39.84947364459994" lon="18.36015978434143"><ele>143.60000000000002</ele><time>2026-04-03T12:38:39Z</time></trkpt><trkpt lat="39.84956433324012" lon="18.360092242044892"><ele>143.8</ele><time>2026-04-03T12:38:40Z</time></trkpt><trkpt lat="39.84964361707983" lon="18.36003107905707"><ele>144.0</ele><time>2026-04-03T12:38:41Z</time></trkpt><trkpt lat="39.84971863790596" lon="18.359971924965773"><ele>144.0</ele><time>2026-04-03T12:38:42Z</time></trkpt><trkpt lat="39.849793319151885" lon="18.359914349282626"><ele>144.0</ele><time>2026-04-03T12:38:43Z</time></trkpt><trkpt lat="39.84986987691542" lon="18.359854243518193"><ele>144.0</ele><time>2026-04-03T12:38:44Z</time></trkpt><trkpt lat="39.84994086940977" lon="18.359796285082403"><ele>144.0</ele><time>2026-04-03T12:38:45Z</time></trkpt><trkpt lat="39.84999858090728" lon="18.359754721049292"><ele>144.0</ele><time>2026-04-03T12:38:46Z</time></trkpt><trkpt lat="39.8501087893463" lon="18.359751581167455"><ele>144.0</ele><time>2026-04-03T12:38:48Z</time></trkpt><trkpt lat="39.8501761587975" lon="18.359867445292604"><ele>143.8</ele><time>2026-04-03T12:38:50Z</time></trkpt><trkpt lat="39.850197329741675" lon="18.35996079510966"><ele>143.60000000000002</ele><time>2026-04-03T12:38:51Z</time></trkpt><trkpt lat="39.85021794232245" lon="18.360066420686717"><ele>143.4</ele><time>2026-04-03T12:38:52Z</time></trkpt><trkpt lat="39.85023837361815" lon="18.36018337868235"><ele>143.20000000000002</ele><time>2026-04-03T12:38:53Z</time></trkpt><trkpt lat="39.850260607060044" lon="18.3603128182623"><ele>143.0</ele><time>2026-04-03T12:38:54Z</time></trkpt><trkpt lat="39.850280216461435" lon="18.360453813466155"><ele>143.4</ele><time>2026-04-03T12:38:55Z</time></trkpt><trkpt lat="39.85030173451366" lon="18.360594223274965"><ele>143.8</ele><time>2026-04-03T12:38:56Z</time></trkpt><trkpt lat="39.850323509149476" lon="18.36072962510277"><ele>144.2</ele><time>2026-04-03T12:38:57Z</time></trkpt><trkpt lat="39.85034589930489" lon="18.360864009397247"><ele>144.6</ele><time>2026-04-03T12:38:58Z</time></trkpt><trkpt lat="39.850367164905" lon="18.36098678122937"><ele>145.0</ele><time>2026-04-03T12:38:59Z</time></trkpt><trkpt lat="39.85039009974824" lon="18.361094932821658"><ele>145.0</ele><time>2026-04-03T12:39:00Z</time></trkpt><trkpt lat="39.850414391678264" lon="18.361177868300384"><ele>145.0</ele><time>2026-04-03T12:39:01Z</time></trkpt><trkpt lat="39.85046891170802" lon="18.36123137537796"><ele>145.0</ele><time>2026-04-03T12:39:02Z</time></trkpt><trkpt lat="39.8505826984616" lon="18.361218954949376"><ele>145.0</ele><time>2026-04-03T12:39:04Z</time></trkpt><trkpt lat="39.8506453701238" lon="18.36118184006435"><ele>145.0</ele><time>2026-04-03T12:39:05Z</time></trkpt><trkpt lat="39.85071308958644" lon="18.36114869790591"><ele>145.0</ele><time>2026-04-03T12:39:06Z</time></trkpt><trkpt lat="39.85078112452705" lon="18.361110379631494"><ele>145.0</ele><time>2026-04-03T12:39:07Z</time></trkpt><trkpt lat="39.850846544021415" lon="18.361060344561285"><ele>145.0</ele><time>2026-04-03T12:39:08Z</time></trkpt><trkpt lat="39.85088769076015" lon="18.360983319770014"><ele>145.0</ele><time>2026-04-03T12:39:09Z</time></trkpt><trkpt lat="39.850899094133496" lon="18.36088794322144"><ele>145.0</ele><time>2026-04-03T12:39:10Z</time></trkpt><trkpt lat="39.85088086234748" lon="18.360783971543896"><ele>145.0</ele><time>2026-04-03T12:39:11Z</time></trkpt><trkpt lat="39.85086726323264" lon="18.36069400618687"><ele>145.0</ele><time>2026-04-03T12:39:13Z</time></trkpt><trkpt lat="39.85099868672019" lon="18.360646842057605"><ele>145.0</ele><time>2026-04-03T12:39:29.001Z</time></trkpt><trkpt lat="39.851067848699735" lon="18.360625092524693"><ele>145.0</ele><time>2026-04-03T12:39:30.001Z</time></trkpt><trkpt lat="39.851134975977985" lon="18.36060079892113"><ele>145.0</ele><time>2026-04-03T12:39:31.001Z</time></trkpt><trkpt lat="39.85121275699537" lon="18.360573598619432"><ele>145.0</ele><time>2026-04-03T12:39:32.001Z</time></trkpt><trkpt lat="39.851297463857925" lon="18.36053915439183"><ele>145.0</ele><time>2026-04-03T12:39:33.001Z</time></trkpt><trkpt lat="39.85140835515146" lon="18.360501484151747"><ele>145.0</ele><time>2026-04-03T12:39:35.001Z</time></trkpt><trkpt lat="39.85153753381767" lon="18.360488125909548"><ele>145.0</ele><time>2026-04-03T12:39:37.001Z</time></trkpt><trkpt lat="39.851622097392884" lon="18.36047345061866"><ele>145.0</ele><time>2026-04-03T12:39:38.001Z</time></trkpt><trkpt lat="39.851709672563395" lon="18.36045897370501"><ele>145.0</ele><time>2026-04-03T12:39:39.001Z</time></trkpt><trkpt lat="39.851787682463474" lon="18.360445933839312"><ele>145.0</ele><time>2026-04-03T12:39:40.001Z</time></trkpt><trkpt lat="39.85185922871881" lon="18.360430080896453"><ele>145.0</ele><time>2026-04-03T12:39:41.001Z</time></trkpt><trkpt lat="39.85192365718056" lon="18.36041423670297"><ele>145.0</ele><time>2026-04-03T12:39:42.001Z</time></trkpt><trkpt lat="39.85202071506015" lon="18.36046151372918"><ele>145.33333333333334</ele><time>2026-04-03T12:39:44.001Z</time></trkpt><trkpt lat="39.85203801765796" lon="18.36054862599656"><ele>145.66666666666669</ele><time>2026-04-03T12:39:45.001Z</time></trkpt><trkpt lat="39.85208924935427" lon="18.360630008424817"><ele>146.0</ele><time>2026-04-03T12:39:46.001Z</time></trkpt><trkpt lat="39.85213208612263" lon="18.360722924471627"><ele>146.33333333333334</ele><time>2026-04-03T12:39:47.001Z</time></trkpt><trkpt lat="39.852171459743175" lon="18.360804674588014"><ele>146.66666666666666</ele><time>2026-04-03T12:39:48.001Z</time></trkpt><trkpt lat="39.85225581229587" lon="18.36085938308085"><ele>147.0</ele><time>2026-04-03T12:39:50.001Z</time></trkpt><trkpt lat="39.852334523972345" lon="18.360830383507125"><ele>147.0</ele><time>2026-04-03T12:39:52.001Z</time></trkpt><trkpt lat="39.85239677252446" lon="18.360810281873572"><ele>147.0</ele><time>2026-04-03T12:39:56.001Z</time></trkpt><trkpt lat="39.85248642772019" lon="18.36068871283155"><ele>147.0</ele><time>2026-04-03T12:39:58.001Z</time></trkpt><trkpt lat="39.852521664429105" lon="18.360604318504222"><ele>147.0</ele><time>2026-04-03T12:39:58.999Z</time></trkpt><trkpt lat="39.85256437174476" lon="18.360501557558198"><ele>147.0</ele><time>2026-04-03T12:39:59.999Z</time></trkpt><trkpt lat="39.8526138683496" lon="18.360377522423"><ele>147.5</ele><time>2026-04-03T12:40:00.999Z</time></trkpt><trkpt lat="39.852669601908026" lon="18.360240187232154"><ele>148.0</ele><time>2026-04-03T12:40:01.999Z</time></trkpt><trkpt lat="39.852733424044416" lon="18.36008602551251"><ele>148.5</ele><time>2026-04-03T12:40:02.999Z</time></trkpt><trkpt lat="39.85280249768932" lon="18.35992220815416"><ele>149.0</ele><time>2026-04-03T12:40:03.999Z</time></trkpt><trkpt lat="39.852870350217174" lon="18.35976225010517"><ele>148.66666666666666</ele><time>2026-04-03T12:40:04.999Z</time></trkpt><trkpt lat="39.85294387593563" lon="18.35958981855866"><ele>148.33333333333334</ele><time>2026-04-03T12:40:05.999Z</time></trkpt><trkpt lat="39.85302221996435" lon="18.359406078045268"><ele>148.0</ele><time>2026-04-03T12:40:06.999Z</time></trkpt><trkpt lat="39.85310431914886" lon="18.359212107526027"><ele>148.0</ele><time>2026-04-03T12:40:07.999Z</time></trkpt><trkpt lat="39.853182879957195" lon="18.35901911311246"><ele>148.0</ele><time>2026-04-03T12:40:08.999Z</time></trkpt><trkpt lat="39.85326556515802" lon="18.358818480728903"><ele>148.0</ele><time>2026-04-03T12:40:09.999Z</time></trkpt><trkpt lat="39.85335440528846" lon="18.358611466305042"><ele>147.66666666666669</ele><time>2026-04-03T12:40:10.999Z</time></trkpt><trkpt lat="39.853445148329556" lon="18.358398905208457"><ele>147.33333333333334</ele><time>2026-04-03T12:40:11.999Z</time></trkpt><trkpt lat="39.853537284371036" lon="18.35818126854771"><ele>147.0</ele><time>2026-04-03T12:40:12.999Z</time></trkpt><trkpt lat="39.85363014204401" lon="18.35795941257539"><ele>147.0</ele><time>2026-04-03T12:40:13.999Z</time></trkpt><trkpt lat="39.85372726288223" lon="18.357735297328862"><ele>147.0</ele><time>2026-04-03T12:40:14.999Z</time></trkpt><trkpt lat="39.85382870575186" lon="18.357518115090862"><ele>147.0</ele><time>2026-04-03T12:40:15.999Z</time></trkpt><trkpt lat="39.853938582229425" lon="18.357309483574845"><ele>147.0</ele><time>2026-04-03T12:40:16.999Z</time></trkpt><trkpt lat="39.8540567375569" lon="18.357106644989543"><ele>147.0</ele><time>2026-04-03T12:40:17.999Z</time></trkpt><trkpt lat="39.85418184424382" lon="18.356909723258248"><ele>147.0</ele><time>2026-04-03T12:40:18.999Z</time></trkpt><trkpt lat="39.85431453944314" lon="18.356719786395672"><ele>147.0</ele><time>2026-04-03T12:40:19.999Z</time></trkpt><trkpt lat="39.85445436779532" lon="18.356531971450988"><ele>147.0</ele><time>2026-04-03T12:40:20.999Z</time></trkpt><trkpt lat="39.85460197390358" lon="18.35634701785296"><ele>147.0</ele><time>2026-04-03T12:40:21.999Z</time></trkpt><trkpt lat="39.854753318650296" lon="18.356175899261835"><ele>147.0</ele><time>2026-04-03T12:40:22.999Z</time></trkpt><trkpt lat="39.85491490591407" lon="18.356015251502463"><ele>147.0</ele><time>2026-04-03T12:40:23.999Z</time></trkpt><trkpt lat="39.85508516730288" lon="18.35586145723717"><ele>147.0</ele><time>2026-04-03T12:40:25Z</time></trkpt><trkpt lat="39.85526061712304" lon="18.355713838118998"><ele>147.66666666666666</ele><time>2026-04-03T12:40:26Z</time></trkpt><trkpt lat="39.85544025138939" lon="18.355571366036905"><ele>148.33333333333331</ele><time>2026-04-03T12:40:27Z</time></trkpt><trkpt lat="39.85562274912589" lon="18.355429899804328"><ele>149.0</ele><time>2026-04-03T12:40:28Z</time></trkpt><trkpt lat="39.855806799237506" lon="18.355290491706825"><ele>149.0</ele><time>2026-04-03T12:40:29Z</time></trkpt><trkpt lat="39.855991900565726" lon="18.3551500739089"><ele>149.0</ele><time>2026-04-03T12:40:30Z</time></trkpt><trkpt lat="39.85617737515349" lon="18.35500616643126"><ele>149.0</ele><time>2026-04-03T12:40:31Z</time></trkpt><trkpt lat="39.85636389398433" lon="18.354862812672565"><ele>149.0</ele><time>2026-04-03T12:40:32Z</time></trkpt><trkpt lat="39.85655099576118" lon="18.35471811646704"><ele>149.0</ele><time>2026-04-03T12:40:33Z</time></trkpt><trkpt lat="39.85673975978493" lon="18.354572840681893"><ele>149.0</ele><time>2026-04-03T12:40:34Z</time></trkpt><trkpt lat="39.85693028042605" lon="18.35442709407109"><ele>148.0</ele><time>2026-04-03T12:40:35Z</time></trkpt><trkpt lat="39.85712101807131" lon="18.354280667626593"><ele>147.0</ele><time>2026-04-03T12:40:36Z</time></trkpt><trkpt lat="39.85731305726818" lon="18.354133031986947"><ele>146.0</ele><time>2026-04-03T12:40:37Z</time></trkpt><trkpt lat="39.85750521863872" lon="18.353983650322807"><ele>146.66666666666666</ele><time>2026-04-03T12:40:38Z</time></trkpt><trkpt lat="39.85769813770061" lon="18.353835282696213"><ele>147.33333333333334</ele><time>2026-04-03T12:40:39Z</time></trkpt><trkpt lat="39.857889886465564" lon="18.353686776658623"><ele>148.0</ele><time>2026-04-03T12:40:40Z</time></trkpt><trkpt lat="39.85808196970651" lon="18.35353818739097"><ele>148.0</ele><time>2026-04-03T12:40:41Z</time></trkpt><trkpt lat="39.858276170927255" lon="18.353389503413442"><ele>148.0</ele><time>2026-04-03T12:40:42Z</time></trkpt><trkpt lat="39.85847131157983" lon="18.353239019325013"><ele>148.0</ele><time>2026-04-03T12:40:43Z</time></trkpt><trkpt lat="39.85866749929075" lon="18.353088050601798"><ele>148.0</ele><time>2026-04-03T12:40:44Z</time></trkpt><trkpt lat="39.858865477835884" lon="18.35293639464829"><ele>148.0</ele><time>2026-04-03T12:40:45Z</time></trkpt><trkpt lat="39.85906419872826" lon="18.35278376696166"><ele>148.0</ele><time>2026-04-03T12:40:46Z</time></trkpt><trkpt lat="39.85926446552111" lon="18.352632238901897"><ele>149.0</ele><time>2026-04-03T12:40:47Z</time></trkpt><trkpt lat="39.85946449065107" lon="18.35247678579448"><ele>150.0</ele><time>2026-04-03T12:40:48Z</time></trkpt><trkpt lat="39.85966316399285" lon="18.352323938595056"><ele>150.0</ele><time>2026-04-03T12:40:49Z</time></trkpt><trkpt lat="39.859858059991375" lon="18.352173745869543"><ele>150.0</ele><time>2026-04-03T12:40:50Z</time></trkpt><trkpt lat="39.860050286009646" lon="18.352021227235003"><ele>150.66666666666666</ele><time>2026-04-03T12:40:51Z</time></trkpt><trkpt lat="39.860241093585074" lon="18.35187300751691"><ele>151.33333333333331</ele><time>2026-04-03T12:40:52Z</time></trkpt><trkpt lat="39.86043090554745" lon="18.351726469943436"><ele>152.0</ele><time>2026-04-03T12:40:53Z</time></trkpt><trkpt lat="39.860616769403855" lon="18.35158174768839"><ele>152.0</ele><time>2026-04-03T12:40:54Z</time></trkpt><trkpt lat="39.86079217652023" lon="18.351444629178047"><ele>152.0</ele><time>2026-04-03T12:40:55Z</time></trkpt><trkpt lat="39.860963168759945" lon="18.351308002975184"><ele>152.0</ele><time>2026-04-03T12:40:56Z</time></trkpt><trkpt lat="39.86113208034981" lon="18.351177649998306"><ele>152.33333333333331</ele><time>2026-04-03T12:40:57Z</time></trkpt><trkpt lat="39.86129774693144" lon="18.35105031572205"><ele>152.66666666666666</ele><time>2026-04-03T12:40:58Z</time></trkpt><trkpt lat="39.86145798596745" lon="18.350927074905673"><ele>153.0</ele><time>2026-04-03T12:40:59Z</time></trkpt><trkpt lat="39.86160462180787" lon="18.350812004640886"><ele>153.0</ele><time>2026-04-03T12:41:00Z</time></trkpt><trkpt lat="39.861738599502466" lon="18.350706284392647"><ele>153.0</ele><time>2026-04-03T12:41:01Z</time></trkpt><trkpt lat="39.86186670061001" lon="18.350607032670187"><ele>153.0</ele><time>2026-04-03T12:41:02Z</time></trkpt><trkpt lat="39.86199354682979" lon="18.350509480643005"><ele>153.0</ele><time>2026-04-03T12:41:03Z</time></trkpt><trkpt lat="39.862125324119425" lon="18.35040908260609"><ele>153.0</ele><time>2026-04-03T12:41:04Z</time></trkpt><trkpt lat="39.86226289379674" lon="18.350303938845578"><ele>153.0</ele><time>2026-04-03T12:41:05Z</time></trkpt><trkpt lat="39.86240562150795" lon="18.35019333180639"><ele>153.0</ele><time>2026-04-03T12:41:06Z</time></trkpt><trkpt lat="39.86255473719905" lon="18.35008001382377"><ele>153.0</ele><time>2026-04-03T12:41:07Z</time></trkpt><trkpt lat="39.86270875620673" lon="18.349961734935764"><ele>153.0</ele><time>2026-04-03T12:41:08.001Z</time></trkpt><trkpt lat="39.86286821193382" lon="18.34983890634875"><ele>153.33333333333334</ele><time>2026-04-03T12:41:09.001Z</time></trkpt><trkpt lat="39.86303273558518" lon="18.349713200447294"><ele>153.66666666666669</ele><time>2026-04-03T12:41:10.001Z</time></trkpt><trkpt lat="39.863203284959816" lon="18.349586018006963"><ele>154.0</ele><time>2026-04-03T12:41:11.001Z</time></trkpt><trkpt lat="39.863376361149406" lon="18.349455271904823"><ele>154.33333333333334</ele><time>2026-04-03T12:41:12.001Z</time></trkpt><trkpt lat="39.86355175564586" lon="18.349321922854028"><ele>154.66666666666666</ele><time>2026-04-03T12:41:13.001Z</time></trkpt><trkpt lat="39.86372175150552" lon="18.349189659342528"><ele>155.0</ele><time>2026-04-03T12:41:14.001Z</time></trkpt><trkpt lat="39.86389261424255" lon="18.349057433288703"><ele>155.0</ele><time>2026-04-03T12:41:15.001Z</time></trkpt><trkpt lat="39.86406715685498" lon="18.348923319243813"><ele>155.0</ele><time>2026-04-03T12:41:16.001Z</time></trkpt><trkpt lat="39.86424472577098" lon="18.34878798235925"><ele>155.0</ele><time>2026-04-03T12:41:17.001Z</time></trkpt><trkpt lat="39.864424071721736" lon="18.348651706319455"><ele>155.66666666666666</ele><time>2026-04-03T12:41:18.001Z</time></trkpt><trkpt lat="39.86460593386389" lon="18.34851293559874"><ele>156.33333333333334</ele><time>2026-04-03T12:41:19.001Z</time></trkpt><trkpt lat="39.864789720162435" lon="18.34837166288602"><ele>157.0</ele><time>2026-04-03T12:41:20.001Z</time></trkpt><trkpt lat="39.86497014560508" lon="18.348233990854713"><ele>157.33333333333334</ele><time>2026-04-03T12:41:21.001Z</time></trkpt><trkpt lat="39.86514763650738" lon="18.348097732192446"><ele>157.66666666666666</ele><time>2026-04-03T12:41:22.001Z</time></trkpt><trkpt lat="39.865324570866065" lon="18.34796085731926"><ele>158.0</ele><time>2026-04-03T12:41:23.001Z</time></trkpt><trkpt lat="39.86550044341904" lon="18.347822184730706"><ele>158.66666666666666</ele><time>2026-04-03T12:41:24.001Z</time></trkpt><trkpt lat="39.86567668463688" lon="18.347683054459658"><ele>159.33333333333334</ele><time>2026-04-03T12:41:25.001Z</time></trkpt><trkpt lat="39.865853477424004" lon="18.347544702541047"><ele>160.0</ele><time>2026-04-03T12:41:26.001Z</time></trkpt><trkpt lat="39.86603208140995" lon="18.347407096317152"><ele>160.33333333333334</ele><time>2026-04-03T12:41:27.001Z</time></trkpt><trkpt lat="39.86621303134273" lon="18.34726776096383"><ele>160.66666666666666</ele><time>2026-04-03T12:41:28.001Z</time></trkpt><trkpt lat="39.86639736873539" lon="18.347130646966722"><ele>161.0</ele><time>2026-04-03T12:41:29.001Z</time></trkpt><trkpt lat="39.86658214672377" lon="18.346988725468854"><ele>161.0</ele><time>2026-04-03T12:41:30.001Z</time></trkpt><trkpt lat="39.86676989901406" lon="18.346844915181716"><ele>161.0</ele><time>2026-04-03T12:41:31.001Z</time></trkpt><trkpt lat="39.86695932328565" lon="18.34670019482328"><ele>161.0</ele><time>2026-04-03T12:41:32.001Z</time></trkpt><trkpt lat="39.86715073962562" lon="18.346553729203457"><ele>161.33333333333331</ele><time>2026-04-03T12:41:33.001Z</time></trkpt><trkpt lat="39.86734314260567" lon="18.346405598743708"><ele>161.66666666666666</ele><time>2026-04-03T12:41:34.001Z</time></trkpt><trkpt lat="39.86753699064506" lon="18.346257212364588"><ele>162.0</ele><time>2026-04-03T12:41:35.001Z</time></trkpt><trkpt lat="39.86773102735534" lon="18.346106788154337"><ele>162.0</ele><time>2026-04-03T12:41:36.001Z</time></trkpt><trkpt lat="39.867922590307764" lon="18.345958187645078"><ele>162.0</ele><time>2026-04-03T12:41:37.001Z</time></trkpt><trkpt lat="39.86811343368981" lon="18.345810163914123"><ele>162.0</ele><time>2026-04-03T12:41:38.001Z</time></trkpt><trkpt lat="39.86830515528207" lon="18.345662213860493"><ele>162.0</ele><time>2026-04-03T12:41:39.001Z</time></trkpt><trkpt lat="39.868495505924585" lon="18.34551497833981"><ele>162.0</ele><time>2026-04-03T12:41:40.001Z</time></trkpt><trkpt lat="39.86868590182719" lon="18.345367977409524"><ele>162.0</ele><time>2026-04-03T12:41:41.001Z</time></trkpt><trkpt lat="39.86887585940269" lon="18.345223439200062"><ele>162.0</ele><time>2026-04-03T12:41:42.001Z</time></trkpt><trkpt lat="39.869063576273106" lon="18.345076448109477"><ele>162.0</ele><time>2026-04-03T12:41:43.001Z</time></trkpt><trkpt lat="39.86924959493601" lon="18.34493119695517"><ele>162.0</ele><time>2026-04-03T12:41:44.001Z</time></trkpt><trkpt lat="39.86943629363917" lon="18.34478868899313"><ele>162.0</ele><time>2026-04-03T12:41:45.001Z</time></trkpt><trkpt lat="39.86962153669027" lon="18.344647850942447"><ele>162.0</ele><time>2026-04-03T12:41:46.001Z</time></trkpt><trkpt lat="39.869805568002306" lon="18.344506824771198"><ele>162.0</ele><time>2026-04-03T12:41:47.001Z</time></trkpt><trkpt lat="39.869988446164086" lon="18.34436616647504"><ele>163.0</ele><time>2026-04-03T12:41:48.001Z</time></trkpt><trkpt lat="39.87016979686305" lon="18.34422500030286"><ele>164.0</ele><time>2026-04-03T12:41:49.001Z</time></trkpt><trkpt lat="39.87035241264625" lon="18.344085758694554"><ele>165.0</ele><time>2026-04-03T12:41:50.001Z</time></trkpt><trkpt lat="39.87053212155332" lon="18.343943533971117"><ele>165.33333333333334</ele><time>2026-04-03T12:41:51.001Z</time></trkpt><trkpt lat="39.870710688638525" lon="18.34380436509401"><ele>165.66666666666669</ele><time>2026-04-03T12:41:52.001Z</time></trkpt><trkpt lat="39.870890381839395" lon="18.343666679550704"><ele>166.0</ele><time>2026-04-03T12:41:53.001Z</time></trkpt><trkpt lat="39.871067220527955" lon="18.343530722105413"><ele>166.66666666666669</ele><time>2026-04-03T12:41:54.001Z</time></trkpt><trkpt lat="39.87123898875413" lon="18.34339956749041"><ele>167.33333333333334</ele><time>2026-04-03T12:41:55.001Z</time></trkpt><trkpt lat="39.87140674551666" lon="18.343269674147358"><ele>168.0</ele><time>2026-04-03T12:41:56.001Z</time></trkpt><trkpt lat="39.87157095908572" lon="18.343142185078733"><ele>168.66666666666666</ele><time>2026-04-03T12:41:57.001Z</time></trkpt><trkpt lat="39.87173101939416" lon="18.34301847175835"><ele>169.33333333333331</ele><time>2026-04-03T12:41:58.001Z</time></trkpt><trkpt lat="39.87188544914905" lon="18.342897583869014"><ele>170.0</ele><time>2026-04-03T12:41:59.001Z</time></trkpt><trkpt lat="39.872038042090026" lon="18.342779573815207"><ele>170.66666666666666</ele><time>2026-04-03T12:42:00.001Z</time></trkpt><trkpt lat="39.87218902704003" lon="18.342662095364652"><ele>171.33333333333334</ele><time>2026-04-03T12:42:01.001Z</time></trkpt><trkpt lat="39.8723372375123" lon="18.342547447257115"><ele>172.0</ele><time>2026-04-03T12:42:02.001Z</time></trkpt><trkpt lat="39.872483944418526" lon="18.342433107902306"><ele>172.33333333333334</ele><time>2026-04-03T12:42:03.001Z</time></trkpt><trkpt lat="39.87262806769948" lon="18.342319735184045"><ele>172.66666666666666</ele><time>2026-04-03T12:42:04.002Z</time></trkpt><trkpt lat="39.872766474618274" lon="18.342210251088968"><ele>173.0</ele><time>2026-04-03T12:42:04.999Z</time></trkpt><trkpt lat="39.872899072517264" lon="18.342105446736547"><ele>173.0</ele><time>2026-04-03T12:42:05.999Z</time></trkpt><trkpt lat="39.87302788443949" lon="18.34200275201071"><ele>173.0</ele><time>2026-04-03T12:42:06.999Z</time></trkpt><trkpt lat="39.87315709716994" lon="18.34190184461866"><ele>173.0</ele><time>2026-04-03T12:42:07.999Z</time></trkpt><trkpt lat="39.873288461797685" lon="18.341802398596705"><ele>173.0</ele><time>2026-04-03T12:42:08.999Z</time></trkpt><trkpt lat="39.8734195740999" lon="18.34170021256038"><ele>173.0</ele><time>2026-04-03T12:42:09.999Z</time></trkpt><trkpt lat="39.873548837973054" lon="18.341602565775023"><ele>173.0</ele><time>2026-04-03T12:42:10.999Z</time></trkpt><trkpt lat="39.87367473570986" lon="18.341510358829858"><ele>173.0</ele><time>2026-04-03T12:42:11.999Z</time></trkpt><trkpt lat="39.87380177017319" lon="18.341428753408575"><ele>174.0</ele><time>2026-04-03T12:42:12.999Z</time></trkpt><trkpt lat="39.87392992600784" lon="18.341359045907424"><ele>175.0</ele><time>2026-04-03T12:42:13.999Z</time></trkpt><trkpt lat="39.874057790832694" lon="18.341306862958845"><ele>176.0</ele><time>2026-04-03T12:42:14.999Z</time></trkpt><trkpt lat="39.87418390990396" lon="18.3412614504487"><ele>177.0</ele><time>2026-04-03T12:42:15.999Z</time></trkpt><trkpt lat="39.874313107040194" lon="18.34121747029935"><ele>177.5</ele><time>2026-04-03T12:42:16.999Z</time></trkpt><trkpt lat="39.874441229434595" lon="18.341170075778063"><ele>178.0</ele><time>2026-04-03T12:42:17.999Z</time></trkpt><trkpt lat="39.87456158198585" lon="18.341116365233326"><ele>178.5</ele><time>2026-04-03T12:42:18.999Z</time></trkpt><trkpt lat="39.874675793223425" lon="18.341058112696288"><ele>179.0</ele><time>2026-04-03T12:42:19.999Z</time></trkpt><trkpt lat="39.87478286671431" lon="18.340995828515563"><ele>179.0</ele><time>2026-04-03T12:42:20.999Z</time></trkpt><trkpt lat="39.874878940643576" lon="18.340934060516147"><ele>179.0</ele><time>2026-04-03T12:42:21.999Z</time></trkpt><trkpt lat="39.874953793899344" lon="18.34088353367571"><ele>179.0</ele><time>2026-04-03T12:42:22.999Z</time></trkpt><trkpt lat="39.87501512340254" lon="18.34084165548129"><ele>179.0</ele><time>2026-04-03T12:42:23.999Z</time></trkpt><trkpt lat="39.87508198979989" lon="18.34079749223755"><ele>179.0</ele><time>2026-04-03T12:42:26Z</time></trkpt><trkpt lat="39.87514362127545" lon="18.340763992295003"><ele>179.0</ele><time>2026-04-03T12:43:05.001Z</time></trkpt><trkpt lat="39.87524339210301" lon="18.34069896981228"><ele>179.16666666666666</ele><time>2026-04-03T12:43:07.001Z</time></trkpt><trkpt lat="39.8753438042482" lon="18.34064108885731"><ele>179.33333333333331</ele><time>2026-04-03T12:43:09.001Z</time></trkpt><trkpt lat="39.87540710651409" lon="18.340610852718463"><ele>179.5</ele><time>2026-04-03T12:43:10.001Z</time></trkpt><trkpt lat="39.87548088736265" lon="18.340575834665"><ele>179.66666666666666</ele><time>2026-04-03T12:43:11.001Z</time></trkpt><trkpt lat="39.875552198219474" lon="18.34052743991083"><ele>179.83333333333334</ele><time>2026-04-03T12:43:12.001Z</time></trkpt><trkpt lat="39.87563177537361" lon="18.340498211789672"><ele>180.0</ele><time>2026-04-03T12:43:13.001Z</time></trkpt><trkpt lat="39.87571381656142" lon="18.34046851471825"><ele>179.66666666666666</ele><time>2026-04-03T12:43:14.001Z</time></trkpt><trkpt lat="39.8757990463235" lon="18.34043677564126"><ele>179.33333333333334</ele><time>2026-04-03T12:43:15.001Z</time></trkpt><trkpt lat="39.87588251208193" lon="18.340405292393022"><ele>179.0</ele><time>2026-04-03T12:43:16.001Z</time></trkpt><trkpt lat="39.87596346168266" lon="18.340375027845912"><ele>178.66666666666669</ele><time>2026-04-03T12:43:17.001Z</time></trkpt><trkpt lat="39.87604205048364" lon="18.34034661895144"><ele>178.33333333333334</ele><time>2026-04-03T12:43:18.001Z</time></trkpt><trkpt lat="39.876114690435905" lon="18.34031351777226"><ele>178.0</ele><time>2026-04-03T12:43:19.001Z</time></trkpt><trkpt lat="39.87617713637974" lon="18.34027086628708"><ele>178.33333333333334</ele><time>2026-04-03T12:43:20.001Z</time></trkpt><trkpt lat="39.87622361824946" lon="18.34020577196363"><ele>178.66666666666669</ele><time>2026-04-03T12:43:21.001Z</time></trkpt><trkpt lat="39.876255876150346" lon="18.340111613055534"><ele>179.0</ele><time>2026-04-03T12:43:22.001Z</time></trkpt><trkpt lat="39.87629130403879" lon="18.340004560281148"><ele>179.33333333333334</ele><time>2026-04-03T12:43:23.001Z</time></trkpt><trkpt lat="39.87629976160251" lon="18.33987515773732"><ele>179.66666666666666</ele><time>2026-04-03T12:43:24.001Z</time></trkpt><trkpt lat="39.876289469275534" lon="18.339749384021083"><ele>180.0</ele><time>2026-04-03T12:43:25.001Z</time></trkpt><trkpt lat="39.876300269736696" lon="18.33962462457511"><ele>180.0</ele><time>2026-04-03T12:43:26.001Z</time></trkpt><trkpt lat="39.87631569856661" lon="18.33950055577634"><ele>180.0</ele><time>2026-04-03T12:43:27.001Z</time></trkpt><trkpt lat="39.876344236430874" lon="18.339370022103818"><ele>180.0</ele><time>2026-04-03T12:43:28.001Z</time></trkpt><trkpt lat="39.8763807783525" lon="18.339243635750538"><ele>180.0</ele><time>2026-04-03T12:43:29.001Z</time></trkpt><trkpt lat="39.876429307589824" lon="18.339126521736077"><ele>180.0</ele><time>2026-04-03T12:43:30.001Z</time></trkpt><trkpt lat="39.87649106758091" lon="18.33901962835946"><ele>180.0</ele><time>2026-04-03T12:43:31.001Z</time></trkpt><trkpt lat="39.876570202452825" lon="18.338920737435757"><ele>180.0</ele><time>2026-04-03T12:43:32.001Z</time></trkpt><trkpt lat="39.87666448607288" lon="18.33882687428415"><ele>180.0</ele><time>2026-04-03T12:43:33.001Z</time></trkpt><trkpt lat="39.876762359094535" lon="18.33873787827121"><ele>180.0</ele><time>2026-04-03T12:43:34.001Z</time></trkpt><trkpt lat="39.876859007667726" lon="18.33865316468105"><ele>178.75</ele><time>2026-04-03T12:43:35.001Z</time></trkpt><trkpt lat="39.876955849422316" lon="18.33857383012145"><ele>177.5</ele><time>2026-04-03T12:43:36.001Z</time></trkpt><trkpt lat="39.8770544226844" lon="18.338494938803855"><ele>176.25</ele><time>2026-04-03T12:43:37.001Z</time></trkpt><trkpt lat="39.8771563079428" lon="18.33842778806564"><ele>175.0</ele><time>2026-04-03T12:43:38.001Z</time></trkpt><trkpt lat="39.87726063895236" lon="18.33835673736938"><ele>175.0</ele><time>2026-04-03T12:43:39.001Z</time></trkpt><trkpt lat="39.877363838409885" lon="18.33828693765427"><ele>175.0</ele><time>2026-04-03T12:43:40.001Z</time></trkpt><trkpt lat="39.877469541271935" lon="18.338218673656016"><ele>175.0</ele><time>2026-04-03T12:43:41.001Z</time></trkpt><trkpt lat="39.87757534806957" lon="18.33815082181612"><ele>175.0</ele><time>2026-04-03T12:43:42.001Z</time></trkpt><trkpt lat="39.877684584387225" lon="18.338076701096558"><ele>173.25</ele><time>2026-04-03T12:43:43.001Z</time></trkpt><trkpt lat="39.877798005504275" lon="18.338004692151102"><ele>171.5</ele><time>2026-04-03T12:43:44.001Z</time></trkpt><trkpt lat="39.87791319032703" lon="18.337932061311456"><ele>169.75</ele><time>2026-04-03T12:43:45.001Z</time></trkpt><trkpt lat="39.87803151423209" lon="18.33785652873066"><ele>168.0</ele><time>2026-04-03T12:43:46.001Z</time></trkpt><trkpt lat="39.87814772045741" lon="18.337777973200193"><ele>168.0</ele><time>2026-04-03T12:43:47.001Z</time></trkpt><trkpt lat="39.878263035281876" lon="18.337700684542735"><ele>168.0</ele><time>2026-04-03T12:43:48.001Z</time></trkpt><trkpt lat="39.87837700816827" lon="18.33762571959745"><ele>168.0</ele><time>2026-04-03T12:43:49.001Z</time></trkpt><trkpt lat="39.8784888800616" lon="18.337551200588795"><ele>168.0</ele><time>2026-04-03T12:43:50.001Z</time></trkpt><trkpt lat="39.87860048060532" lon="18.337478828580547"><ele>167.0</ele><time>2026-04-03T12:43:51.001Z</time></trkpt><trkpt lat="39.87871013560141" lon="18.337405418187377"><ele>166.0</ele><time>2026-04-03T12:43:52.002Z</time></trkpt><trkpt lat="39.87881894249154" lon="18.3373359498519"><ele>165.0</ele><time>2026-04-03T12:43:53.002Z</time></trkpt><trkpt lat="39.87892512747743" lon="18.33726646683103"><ele>164.0</ele><time>2026-04-03T12:43:54.002Z</time></trkpt><trkpt lat="39.879027824778966" lon="18.337197168398387"><ele>164.0</ele><time>2026-04-03T12:43:55.002Z</time></trkpt><trkpt lat="39.87912918651427" lon="18.337128454573"><ele>164.0</ele><time>2026-04-03T12:43:56.002Z</time></trkpt><trkpt lat="39.879229598402546" lon="18.337061583439887"><ele>164.0</ele><time>2026-04-03T12:43:57.002Z</time></trkpt><trkpt lat="39.87932872946373" lon="18.336996848044347"><ele>164.0</ele><time>2026-04-03T12:43:58.002Z</time></trkpt><trkpt lat="39.87942774204958" lon="18.33693253506026"><ele>164.0</ele><time>2026-04-03T12:43:59.002Z</time></trkpt><trkpt lat="39.87952615385258" lon="18.336868746176194"><ele>163.0</ele><time>2026-04-03T12:44:00.002Z</time></trkpt><trkpt lat="39.87962429069139" lon="18.336805227643044"><ele>162.0</ele><time>2026-04-03T12:44:01.002Z</time></trkpt><trkpt lat="39.879721914918676" lon="18.33674247520572"><ele>161.0</ele><time>2026-04-03T12:44:02.002Z</time></trkpt><trkpt lat="39.87981697657116" lon="18.336674544026245"><ele>160.0</ele><time>2026-04-03T12:44:03.002Z</time></trkpt><trkpt lat="39.879909544809884" lon="18.336602339025028"><ele>159.0</ele><time>2026-04-03T12:44:04.002Z</time></trkpt><trkpt lat="39.88000611987232" lon="18.336527587396667"><ele>157.25</ele><time>2026-04-03T12:44:05.002Z</time></trkpt><trkpt lat="39.88010163892533" lon="18.33644129166434"><ele>155.5</ele><time>2026-04-03T12:44:06.002Z</time></trkpt><trkpt lat="39.88019174404005" lon="18.336334070602522"><ele>153.75</ele><time>2026-04-03T12:44:07.002Z</time></trkpt><trkpt lat="39.88027877483495" lon="18.33621492325409"><ele>152.0</ele><time>2026-04-03T12:44:08.002Z</time></trkpt><trkpt lat="39.88036000883655" lon="18.3360886158663"><ele>152.0</ele><time>2026-04-03T12:44:09.002Z</time></trkpt><trkpt lat="39.880438757438185" lon="18.335964939747527"><ele>152.0</ele><time>2026-04-03T12:44:10.002Z</time></trkpt><trkpt lat="39.88051928702625" lon="18.335840983766655"><ele>152.0</ele><time>2026-04-03T12:44:11Z</time></trkpt><trkpt lat="39.88060614455706" lon="18.335727811906402"><ele>152.0</ele><time>2026-04-03T12:44:11.999Z</time></trkpt><trkpt lat="39.88070714503457" lon="18.335639012904224"><ele>152.0</ele><time>2026-04-03T12:44:13Z</time></trkpt><trkpt lat="39.880819707388135" lon="18.335578760134606"><ele>152.0</ele><time>2026-04-03T12:44:14Z</time></trkpt><trkpt lat="39.88093392832053" lon="18.335541186910138"><ele>152.0</ele><time>2026-04-03T12:44:15Z</time></trkpt><trkpt lat="39.88105544276109" lon="18.335552568568225"><ele>152.0</ele><time>2026-04-03T12:44:16Z</time></trkpt><trkpt lat="39.881171462305055" lon="18.335562520125578"><ele>153.25</ele><time>2026-04-03T12:44:17Z</time></trkpt><trkpt lat="39.88128768327391" lon="18.33555273591401"><ele>154.5</ele><time>2026-04-03T12:44:18Z</time></trkpt><trkpt lat="39.88140277731123" lon="18.33552756230578"><ele>155.75</ele><time>2026-04-03T12:44:19Z</time></trkpt><trkpt lat="39.88151903424453" lon="18.33548867198369"><ele>157.0</ele><time>2026-04-03T12:44:20Z</time></trkpt><trkpt lat="39.881637412261895" lon="18.33544167265993"><ele>157.0</ele><time>2026-04-03T12:44:21Z</time></trkpt><trkpt lat="39.881755214355444" lon="18.33539205430448"><ele>157.0</ele><time>2026-04-03T12:44:22Z</time></trkpt><trkpt lat="39.881876085225336" lon="18.335341383126785"><ele>157.0</ele><time>2026-04-03T12:44:23Z</time></trkpt><trkpt lat="39.881998338811556" lon="18.335286126755133"><ele>157.0</ele><time>2026-04-03T12:44:24Z</time></trkpt><trkpt lat="39.882121732528134" lon="18.33522190392624"><ele>154.0</ele><time>2026-04-03T12:44:25Z</time></trkpt><trkpt lat="39.88224451055581" lon="18.335146611243587"><ele>151.0</ele><time>2026-04-03T12:44:26Z</time></trkpt><trkpt lat="39.88236521136712" lon="18.335062758053226"><ele>148.0</ele><time>2026-04-03T12:44:27Z</time></trkpt><trkpt lat="39.88248219095231" lon="18.33497167720696"><ele>145.0</ele><time>2026-04-03T12:44:28Z</time></trkpt><trkpt lat="39.88259596883684" lon="18.334873410510568"><ele>144.25</ele><time>2026-04-03T12:44:29Z</time></trkpt><trkpt lat="39.88270794170492" lon="18.334769632378862"><ele>143.5</ele><time>2026-04-03T12:44:30Z</time></trkpt><trkpt lat="39.88281902462122" lon="18.334664759635864"><ele>142.75</ele><time>2026-04-03T12:44:31Z</time></trkpt><trkpt lat="39.882928047429296" lon="18.33455966698102"><ele>142.0</ele><time>2026-04-03T12:44:32Z</time></trkpt><trkpt lat="39.883037905237344" lon="18.334456226138776"><ele>142.0</ele><time>2026-04-03T12:44:33Z</time></trkpt><trkpt lat="39.88315162880331" lon="18.33436378507729"><ele>142.0</ele><time>2026-04-03T12:44:34Z</time></trkpt><trkpt lat="39.8832775571402" lon="18.334299407628873"><ele>142.0</ele><time>2026-04-03T12:44:35Z</time></trkpt><trkpt lat="39.883410914257404" lon="18.33427461246496"><ele>142.0</ele><time>2026-04-03T12:44:36Z</time></trkpt><trkpt lat="39.88354310056004" lon="18.334268489449705"><ele>141.0</ele><time>2026-04-03T12:44:37Z</time></trkpt><trkpt lat="39.88367406762129" lon="18.334263732448676"><ele>140.0</ele><time>2026-04-03T12:44:38Z</time></trkpt><trkpt lat="39.88380445498673" lon="18.33425718965933"><ele>139.0</ele><time>2026-04-03T12:44:39Z</time></trkpt><trkpt lat="39.88393242491106" lon="18.33425148312004"><ele>138.0</ele><time>2026-04-03T12:44:40Z</time></trkpt><trkpt lat="39.88405944837437" lon="18.334246699545126"><ele>138.0</ele><time>2026-04-03T12:44:41Z</time></trkpt><trkpt lat="39.88418350686026" lon="18.33424285194189"><ele>138.0</ele><time>2026-04-03T12:44:42Z</time></trkpt><trkpt lat="39.8843023745991" lon="18.334240560797355"><ele>138.0</ele><time>2026-04-03T12:44:43Z</time></trkpt><trkpt lat="39.88440841625798" lon="18.334232759895873"><ele>138.0</ele><time>2026-04-03T12:44:44Z</time></trkpt><trkpt lat="39.88451092020557" lon="18.334211364020778"><ele>137.6</ele><time>2026-04-03T12:44:45Z</time></trkpt><trkpt lat="39.884609822089644" lon="18.334166882207775"><ele>137.20000000000002</ele><time>2026-04-03T12:44:46Z</time></trkpt><trkpt lat="39.88470922427404" lon="18.334116320841908"><ele>136.8</ele><time>2026-04-03T12:44:47Z</time></trkpt><trkpt lat="39.884806565231194" lon="18.334064211375047"><ele>136.4</ele><time>2026-04-03T12:44:48Z</time></trkpt><trkpt lat="39.884903317854416" lon="18.334010780831203"><ele>136.0</ele><time>2026-04-03T12:44:49Z</time></trkpt><trkpt lat="39.8850010891622" lon="18.333956814431136"><ele>136.2</ele><time>2026-04-03T12:44:50Z</time></trkpt><trkpt lat="39.88509773701391" lon="18.33390757766578"><ele>136.39999999999998</ele><time>2026-04-03T12:44:51Z</time></trkpt><trkpt lat="39.88519414282053" lon="18.33385744199855"><ele>136.6</ele><time>2026-04-03T12:44:52Z</time></trkpt><trkpt lat="39.88529187151026" lon="18.333808557690112"><ele>136.79999999999998</ele><time>2026-04-03T12:44:53Z</time></trkpt><trkpt lat="39.88538845789219" lon="18.333758913898983"><ele>137.0</ele><time>2026-04-03T12:44:54.001Z</time></trkpt><trkpt lat="39.88548302799079" lon="18.333706319919973"><ele>136.6</ele><time>2026-04-03T12:44:55.001Z</time></trkpt><trkpt lat="39.88557977024742" lon="18.333655611036825"><ele>136.2</ele><time>2026-04-03T12:44:56.001Z</time></trkpt><trkpt lat="39.8856764286812" lon="18.33360463533615"><ele>135.8</ele><time>2026-04-03T12:44:57.001Z</time></trkpt><trkpt lat="39.88577476668777" lon="18.33355258232318"><ele>135.4</ele><time>2026-04-03T12:44:58.001Z</time></trkpt><trkpt lat="39.8858700751118" lon="18.33350123312114"><ele>135.0</ele><time>2026-04-03T12:44:59.001Z</time></trkpt><trkpt lat="39.88596180405319" lon="18.333453316901455"><ele>135.0</ele><time>2026-04-03T12:45:00.001Z</time></trkpt><trkpt lat="39.886053698583304" lon="18.33340684654989"><ele>135.0</ele><time>2026-04-03T12:45:01.001Z</time></trkpt><trkpt lat="39.886143592985434" lon="18.3333591939983"><ele>135.0</ele><time>2026-04-03T12:45:02.001Z</time></trkpt><trkpt lat="39.88623038086195" lon="18.333311246752245"><ele>135.0</ele><time>2026-04-03T12:45:03.001Z</time></trkpt><trkpt lat="39.886313858009984" lon="18.333265593703523"><ele>135.0</ele><time>2026-04-03T12:45:04.001Z</time></trkpt><trkpt lat="39.88639289351017" lon="18.333221668568626"><ele>135.0</ele><time>2026-04-03T12:45:05.001Z</time></trkpt><trkpt lat="39.88647150638659" lon="18.333179467886577"><ele>135.0</ele><time>2026-04-03T12:45:06.001Z</time></trkpt><trkpt lat="39.88654718871768" lon="18.33314013395497"><ele>135.0</ele><time>2026-04-03T12:45:07.001Z</time></trkpt><trkpt lat="39.88662006394408" lon="18.33310039510516"><ele>135.0</ele><time>2026-04-03T12:45:08.001Z</time></trkpt><trkpt lat="39.88669371144106" lon="18.33306105855791"><ele>135.0</ele><time>2026-04-03T12:45:09.001Z</time></trkpt><trkpt lat="39.88676891291791" lon="18.333021409209653"><ele>135.0</ele><time>2026-04-03T12:45:10.001Z</time></trkpt><trkpt lat="39.8868461042669" lon="18.3329833945782"><ele>135.33333333333334</ele><time>2026-04-03T12:45:11.001Z</time></trkpt><trkpt lat="39.88692257545691" lon="18.332942203106704"><ele>135.66666666666666</ele><time>2026-04-03T12:45:12.001Z</time></trkpt><trkpt lat="39.88699731875087" lon="18.332901547374856"><ele>136.0</ele><time>2026-04-03T12:45:13.001Z</time></trkpt><trkpt lat="39.88707021602964" lon="18.33286266493002"><ele>136.33333333333331</ele><time>2026-04-03T12:45:14.001Z</time></trkpt><trkpt lat="39.88714205196538" lon="18.332823800889184"><ele>136.66666666666666</ele><time>2026-04-03T12:45:15.001Z</time></trkpt><trkpt lat="39.88721245540038" lon="18.332784200393576"><ele>137.0</ele><time>2026-04-03T12:45:16.001Z</time></trkpt><trkpt lat="39.88728301681566" lon="18.332745624133505"><ele>137.0</ele><time>2026-04-03T12:45:17.001Z</time></trkpt><trkpt lat="39.88735227816356" lon="18.332708491743507"><ele>137.0</ele><time>2026-04-03T12:45:18.001Z</time></trkpt><trkpt lat="39.88741709958943" lon="18.332673858537415"><ele>137.0</ele><time>2026-04-03T12:45:19.001Z</time></trkpt><trkpt lat="39.88748846124303" lon="18.332640695622857"><ele>137.0</ele><time>2026-04-03T12:45:20.001Z</time></trkpt><trkpt lat="39.8875646410707" lon="18.332603941319814"><ele>137.0</ele><time>2026-04-03T12:45:21.001Z</time></trkpt><trkpt lat="39.88763631247379" lon="18.332565304563637"><ele>137.0</ele><time>2026-04-03T12:45:22.001Z</time></trkpt><trkpt lat="39.88770663536286" lon="18.332528110061524"><ele>137.0</ele><time>2026-04-03T12:45:23.001Z</time></trkpt><trkpt lat="39.88777955500408" lon="18.33249092969965"><ele>137.0</ele><time>2026-04-03T12:45:24.001Z</time></trkpt><trkpt lat="39.88785454459693" lon="18.3324534634727"><ele>137.0</ele><time>2026-04-03T12:45:25.001Z</time></trkpt><trkpt lat="39.887931703607556" lon="18.33241669219433"><ele>137.0</ele><time>2026-04-03T12:45:26.001Z</time></trkpt><trkpt lat="39.888011142766146" lon="18.33237669799582"><ele>137.0</ele><time>2026-04-03T12:45:27.001Z</time></trkpt><trkpt lat="39.88809079245341" lon="18.332336002397305"><ele>137.0</ele><time>2026-04-03T12:45:28.001Z</time></trkpt><trkpt lat="39.88817303790383" lon="18.332294872815467"><ele>137.0</ele><time>2026-04-03T12:45:29.001Z</time></trkpt><trkpt lat="39.88825316816746" lon="18.332253252549137"><ele>137.0</ele><time>2026-04-03T12:45:30.001Z</time></trkpt><trkpt lat="39.88833128465868" lon="18.33221089390316"><ele>137.0</ele><time>2026-04-03T12:45:31.001Z</time></trkpt><trkpt lat="39.888406767335034" lon="18.332172545351252"><ele>137.0</ele><time>2026-04-03T12:45:32.001Z</time></trkpt><trkpt lat="39.88847634604498" lon="18.33214203230799"><ele>137.0</ele><time>2026-04-03T12:45:33.001Z</time></trkpt><trkpt lat="39.888567566062534" lon="18.33209490087817"><ele>137.0</ele><time>2026-04-03T12:45:35.001Z</time></trkpt><trkpt lat="39.88865548436967" lon="18.332050855712442"><ele>137.0</ele><time>2026-04-03T12:45:45.002Z</time></trkpt><trkpt lat="39.88873889198014" lon="18.33201175127678"><ele>137.0</ele><time>2026-04-03T12:45:47.002Z</time></trkpt><trkpt lat="39.88882998805612" lon="18.331969279243687"><ele>137.0</ele><time>2026-04-03T12:45:49.002Z</time></trkpt><trkpt lat="39.88893884493396" lon="18.331922081167683"><ele>137.0</ele><time>2026-04-03T12:45:51.002Z</time></trkpt><trkpt lat="39.889050241634955" lon="18.3318707107676"><ele>137.0</ele><time>2026-04-03T12:45:53.002Z</time></trkpt><trkpt lat="39.88914971841813" lon="18.33182095507313"><ele>137.0</ele><time>2026-04-03T12:45:55.002Z</time></trkpt><trkpt lat="39.88925900874398" lon="18.331764237848354"><ele>137.0</ele><time>2026-04-03T12:45:57.002Z</time></trkpt><trkpt lat="39.88936929140596" lon="18.33174264639671"><ele>137.0</ele><time>2026-04-03T12:45:59.002Z</time></trkpt><trkpt lat="39.88946580445408" lon="18.331784629097022"><ele>137.0</ele><time>2026-04-03T12:46:01.002Z</time></trkpt><trkpt lat="39.88956461052517" lon="18.331870119103066"><ele>137.0</ele><time>2026-04-03T12:46:03.002Z</time></trkpt><trkpt lat="39.88961461483714" lon="18.33193360399332"><ele>137.0</ele><time>2026-04-03T12:46:04.002Z</time></trkpt><trkpt lat="39.88967378823729" lon="18.331998738267636"><ele>137.0</ele><time>2026-04-03T12:46:05.002Z</time></trkpt><trkpt lat="39.88973146287341" lon="18.33206131547579"><ele>137.0</ele><time>2026-04-03T12:46:06.002Z</time></trkpt><trkpt lat="39.88978597469204" lon="18.332121324214707"><ele>137.0</ele><time>2026-04-03T12:46:07.002Z</time></trkpt><trkpt lat="39.88985926609899" lon="18.332198905922986"><ele>137.0</ele><time>2026-04-03T12:46:09.002Z</time></trkpt><trkpt lat="39.889916685330434" lon="18.33225265983347"><ele>137.0</ele><time>2026-04-03T12:46:11.002Z</time></trkpt><trkpt lat="39.88997733620159" lon="18.332213617524634"><ele>137.0</ele><time>2026-04-03T12:46:12.002Z</time></trkpt><trkpt lat="39.890077711015" lon="18.332111456633623"><ele>137.0</ele><time>2026-04-03T12:46:14.002Z</time></trkpt><trkpt lat="39.890137346252075" lon="18.33206434090173"><ele>137.0</ele><time>2026-04-03T12:46:15.002Z</time></trkpt><trkpt lat="39.89019864065985" lon="18.33201591431051"><ele>137.0</ele><time>2026-04-03T12:46:16.002Z</time></trkpt><trkpt lat="39.89026222735844" lon="18.331965676654587"><ele>137.0</ele><time>2026-04-03T12:46:17Z</time></trkpt><trkpt lat="39.89033346705292" lon="18.331923739155567"><ele>137.0</ele><time>2026-04-03T12:46:18Z</time></trkpt><trkpt lat="39.890400263769635" lon="18.331871270353787"><ele>136.66666666666666</ele><time>2026-04-03T12:46:19Z</time></trkpt><trkpt lat="39.89046801387178" lon="18.33181666286928"><ele>136.33333333333331</ele><time>2026-04-03T12:46:20Z</time></trkpt><trkpt lat="39.89053764563273" lon="18.331761536295048"><ele>136.0</ele><time>2026-04-03T12:46:21Z</time></trkpt><trkpt lat="39.890610817751714" lon="18.331702731983253"><ele>135.66666666666666</ele><time>2026-04-03T12:46:22Z</time></trkpt><trkpt lat="39.890690072949454" lon="18.33164144540399"><ele>135.33333333333334</ele><time>2026-04-03T12:46:23Z</time></trkpt><trkpt lat="39.89077377655075" lon="18.331575390952917"><ele>135.0</ele><time>2026-04-03T12:46:24Z</time></trkpt><trkpt lat="39.89086270734448" lon="18.33150504527172"><ele>134.0</ele><time>2026-04-03T12:46:25Z</time></trkpt><trkpt lat="39.89095659874633" lon="18.331431100642146"><ele>133.0</ele><time>2026-04-03T12:46:26Z</time></trkpt><trkpt lat="39.89105418847755" lon="18.331353148109436"><ele>132.0</ele><time>2026-04-03T12:46:27Z</time></trkpt><trkpt lat="39.891156807355515" lon="18.33127440933604"><ele>131.0</ele><time>2026-04-03T12:46:28Z</time></trkpt><trkpt lat="39.89125778918825" lon="18.331189811957994"><ele>131.0</ele><time>2026-04-03T12:46:29Z</time></trkpt><trkpt lat="39.891354126357726" lon="18.331111343518174"><ele>131.0</ele><time>2026-04-03T12:46:30Z</time></trkpt><trkpt lat="39.891447071354726" lon="18.331036473915244"><ele>131.0</ele><time>2026-04-03T12:46:31Z</time></trkpt><trkpt lat="39.8915421636754" lon="18.330962903294818"><ele>131.0</ele><time>2026-04-03T12:46:32Z</time></trkpt><trkpt lat="39.89163532833728" lon="18.33089009743248"><ele>131.0</ele><time>2026-04-03T12:46:33Z</time></trkpt><trkpt lat="39.8917269836519" lon="18.3308143543996"><ele>130.6</ele><time>2026-04-03T12:46:34Z</time></trkpt><trkpt lat="39.89181871210941" lon="18.33074023755168"><ele>130.2</ele><time>2026-04-03T12:46:35Z</time></trkpt><trkpt lat="39.891903378601945" lon="18.33067077480749"><ele>129.8</ele><time>2026-04-03T12:46:36Z</time></trkpt><trkpt lat="39.89197134266948" lon="18.330614637882327"><ele>129.4</ele><time>2026-04-03T12:46:37Z</time></trkpt><trkpt lat="39.89207475630432" lon="18.3305303977341"><ele>129.0</ele><time>2026-04-03T12:46:39Z</time></trkpt><trkpt lat="39.892139147447494" lon="18.33047620595995"><ele>129.0</ele><time>2026-04-03T12:46:40Z</time></trkpt><trkpt lat="39.892216770049146" lon="18.330413105956893"><ele>129.0</ele><time>2026-04-03T12:46:41Z</time></trkpt><trkpt lat="39.89229965269902" lon="18.33034834459852"><ele>129.0</ele><time>2026-04-03T12:46:42Z</time></trkpt><trkpt lat="39.89238370981847" lon="18.330281652639858"><ele>129.0</ele><time>2026-04-03T12:46:43Z</time></trkpt><trkpt lat="39.89246259731248" lon="18.330205244798925"><ele>129.0</ele><time>2026-04-03T12:46:44Z</time></trkpt><trkpt lat="39.89253224853995" lon="18.3301120554311"><ele>127.80000000000001</ele><time>2026-04-03T12:46:45Z</time></trkpt><trkpt lat="39.89260326400475" lon="18.330011503189137"><ele>126.60000000000001</ele><time>2026-04-03T12:46:46Z</time></trkpt><trkpt lat="39.89267053495612" lon="18.329906538171596"><ele>125.4</ele><time>2026-04-03T12:46:47Z</time></trkpt><trkpt lat="39.89273330510273" lon="18.329802610229187"><ele>124.2</ele><time>2026-04-03T12:46:48Z</time></trkpt><trkpt lat="39.892794189908535" lon="18.329702052412102"><ele>123.0</ele><time>2026-04-03T12:46:49Z</time></trkpt><trkpt lat="39.892854276559895" lon="18.329604986043982"><ele>123.0</ele><time>2026-04-03T12:46:50Z</time></trkpt><trkpt lat="39.89291552537667" lon="18.32950956070507"><ele>123.00000000000001</ele><time>2026-04-03T12:46:51Z</time></trkpt><trkpt lat="39.89297842998559" lon="18.329418188419847"><ele>123.00000000000001</ele><time>2026-04-03T12:46:52Z</time></trkpt><trkpt lat="39.89304618068615" lon="18.3293301158271"><ele>123.0</ele><time>2026-04-03T12:46:53Z</time></trkpt><trkpt lat="39.89311460978465" lon="18.32925112242692"><ele>123.0</ele><time>2026-04-03T12:46:54Z</time></trkpt><trkpt lat="39.89318522512734" lon="18.329178185985977"><ele>123.0</ele><time>2026-04-03T12:46:55Z</time></trkpt><trkpt lat="39.89325594489897" lon="18.3291030122149"><ele>123.00000000000001</ele><time>2026-04-03T12:46:56.001Z</time></trkpt><trkpt lat="39.893320490811114" lon="18.3290322422862"><ele>123.00000000000001</ele><time>2026-04-03T12:46:57.001Z</time></trkpt><trkpt lat="39.893393087535685" lon="18.328949740250664"><ele>123.0</ele><time>2026-04-03T12:46:58.001Z</time></trkpt><trkpt lat="39.89347450745102" lon="18.328858867926577"><ele>123.0</ele><time>2026-04-03T12:46:59.001Z</time></trkpt><trkpt lat="39.8935636591039" lon="18.3287608292011"><ele>121.5</ele><time>2026-04-03T12:47:00.001Z</time></trkpt><trkpt lat="39.89366013668528" lon="18.328657028446987"><ele>120.0</ele><time>2026-04-03T12:47:01.001Z</time></trkpt><trkpt lat="39.893766028076584" lon="18.32854103727472"><ele>118.5</ele><time>2026-04-03T12:47:02.001Z</time></trkpt><trkpt lat="39.89387702629718" lon="18.328410112481112"><ele>117.0</ele><time>2026-04-03T12:47:03.001Z</time></trkpt><trkpt lat="39.89398803686481" lon="18.328281564146028"><ele>117.0</ele><time>2026-04-03T12:47:04.001Z</time></trkpt><trkpt lat="39.89410315424371" lon="18.328146722660467"><ele>117.0</ele><time>2026-04-03T12:47:05.001Z</time></trkpt><trkpt lat="39.89422632983485" lon="18.328011072923672"><ele>117.0</ele><time>2026-04-03T12:47:06.001Z</time></trkpt><trkpt lat="39.89434863831976" lon="18.32787672368189"><ele>115.66666666666666</ele><time>2026-04-03T12:47:07.001Z</time></trkpt><trkpt lat="39.89446725783932" lon="18.327741256560767"><ele>114.33333333333333</ele><time>2026-04-03T12:47:08.001Z</time></trkpt><trkpt lat="39.89458553258958" lon="18.327609313597144"><ele>113.0</ele><time>2026-04-03T12:47:09.001Z</time></trkpt><trkpt lat="39.8947020936066" lon="18.327479568901587"><ele>113.0</ele><time>2026-04-03T12:47:10.001Z</time></trkpt><trkpt lat="39.89482009795134" lon="18.32734997930635"><ele>113.0</ele><time>2026-04-03T12:47:11.001Z</time></trkpt><trkpt lat="39.8949441144254" lon="18.327220417734708"><ele>113.0</ele><time>2026-04-03T12:47:12.001Z</time></trkpt><trkpt lat="39.895072582981804" lon="18.32709062257389"><ele>112.66666666666666</ele><time>2026-04-03T12:47:13.001Z</time></trkpt><trkpt lat="39.89520393245385" lon="18.326958608327065"><ele>112.33333333333334</ele><time>2026-04-03T12:47:14.001Z</time></trkpt><trkpt lat="39.895338776047375" lon="18.326823211548543"><ele>112.0</ele><time>2026-04-03T12:47:15.001Z</time></trkpt><trkpt lat="39.89547575537358" lon="18.326684937466563"><ele>112.0</ele><time>2026-04-03T12:47:16.001Z</time></trkpt><trkpt lat="39.895609895437346" lon="18.32654321036206"><ele>112.0</ele><time>2026-04-03T12:47:17.001Z</time></trkpt><trkpt lat="39.89573956566617" lon="18.326395329491483"><ele>112.0</ele><time>2026-04-03T12:47:18.001Z</time></trkpt><trkpt lat="39.895860581185254" lon="18.326237870570868"><ele>111.33333333333334</ele><time>2026-04-03T12:47:19.001Z</time></trkpt><trkpt lat="39.89597435438961" lon="18.326072043554003"><ele>110.66666666666666</ele><time>2026-04-03T12:47:20.001Z</time></trkpt><trkpt lat="39.89607705723183" lon="18.325895497318868"><ele>110.0</ele><time>2026-04-03T12:47:21.001Z</time></trkpt><trkpt lat="39.89617024299977" lon="18.32571175722598"><ele>111.33333333333333</ele><time>2026-04-03T12:47:22.001Z</time></trkpt><trkpt lat="39.89625454119002" lon="18.325521377065943"><ele>112.66666666666666</ele><time>2026-04-03T12:47:23.001Z</time></trkpt><trkpt lat="39.89633774066504" lon="18.325326478431382"><ele>114.0</ele><time>2026-04-03T12:47:24.001Z</time></trkpt><trkpt lat="39.89642257863674" lon="18.325132153054554"><ele>114.0</ele><time>2026-04-03T12:47:25.001Z</time></trkpt><trkpt lat="39.89650629267463" lon="18.32493718042385"><ele>114.0</ele><time>2026-04-03T12:47:26.001Z</time></trkpt><trkpt lat="39.896591002216056" lon="18.3247387076756"><ele>114.0</ele><time>2026-04-03T12:47:27.001Z</time></trkpt><trkpt lat="39.89667430350743" lon="18.324537082207446"><ele>112.66666666666666</ele><time>2026-04-03T12:47:28.001Z</time></trkpt><trkpt lat="39.89675878225528" lon="18.32433273548007"><ele>111.33333333333333</ele><time>2026-04-03T12:47:29.001Z</time></trkpt><trkpt lat="39.89684433037694" lon="18.324125919893255"><ele>110.0</ele><time>2026-04-03T12:47:30.001Z</time></trkpt><trkpt lat="39.89693189845525" lon="18.32391997488334"><ele>110.66666666666666</ele><time>2026-04-03T12:47:31.001Z</time></trkpt><trkpt lat="39.897025876327184" lon="18.32371815465382"><ele>111.33333333333334</ele><time>2026-04-03T12:47:32.001Z</time></trkpt><trkpt lat="39.897125346340324" lon="18.323518297235726"><ele>112.0</ele><time>2026-04-03T12:47:33.001Z</time></trkpt><trkpt lat="39.89723053639688" lon="18.32331892895591"><ele>112.0</ele><time>2026-04-03T12:47:34.001Z</time></trkpt><trkpt lat="39.89734042028647" lon="18.323120692427114"><ele>112.0</ele><time>2026-04-03T12:47:35.001Z</time></trkpt><trkpt lat="39.89745456040431" lon="18.32292348342223"><ele>112.0</ele><time>2026-04-03T12:47:36.001Z</time></trkpt><trkpt lat="39.89757691888974" lon="18.322730347180954"><ele>112.33333333333334</ele><time>2026-04-03T12:47:37.001Z</time></trkpt><trkpt lat="39.897706509688305" lon="18.32254308890447"><ele>112.66666666666666</ele><time>2026-04-03T12:47:38.001Z</time></trkpt><trkpt lat="39.89784147264417" lon="18.32235882016476"><ele>113.0</ele><time>2026-04-03T12:47:39.001Z</time></trkpt><trkpt lat="39.89797989301471" lon="18.322174631746435"><ele>113.0</ele><time>2026-04-03T12:47:40.001Z</time></trkpt><trkpt lat="39.898117724026626" lon="18.321989389193472"><ele>113.0</ele><time>2026-04-03T12:47:41.002Z</time></trkpt><trkpt lat="39.89825659640611" lon="18.32180395888029"><ele>113.0</ele><time>2026-04-03T12:47:42.002Z</time></trkpt><trkpt lat="39.898398261328765" lon="18.321619438018928"><ele>112.0</ele><time>2026-04-03T12:47:43.002Z</time></trkpt><trkpt lat="39.89854230592871" lon="18.321437347227786"><ele>111.0</ele><time>2026-04-03T12:47:44.002Z</time></trkpt><trkpt lat="39.898690391774096" lon="18.321261542186924"><ele>110.0</ele><time>2026-04-03T12:47:45.002Z</time></trkpt><trkpt lat="39.89884249241553" lon="18.321098472653"><ele>110.0</ele><time>2026-04-03T12:47:46.002Z</time></trkpt><trkpt lat="39.89899717126746" lon="18.32094983560254"><ele>110.0</ele><time>2026-04-03T12:47:47.002Z</time></trkpt><trkpt lat="39.89915438193964" lon="18.320812579272655"><ele>110.0</ele><time>2026-04-03T12:47:48.002Z</time></trkpt><trkpt lat="39.89931781848276" lon="18.320690388121047"><ele>110.33333333333333</ele><time>2026-04-03T12:47:49.002Z</time></trkpt><trkpt lat="39.89948698957373" lon="18.320579200950988"><ele>110.66666666666666</ele><time>2026-04-03T12:47:50.002Z</time></trkpt><trkpt lat="39.89965986452107" lon="18.32047849564567"><ele>111.0</ele><time>2026-04-03T12:47:51.002Z</time></trkpt><trkpt lat="39.899834468286464" lon="18.320385246619246"><ele>111.0</ele><time>2026-04-03T12:47:52.002Z</time></trkpt><trkpt lat="39.900007798249064" lon="18.320297324983425"><ele>111.0</ele><time>2026-04-03T12:47:53.002Z</time></trkpt><trkpt lat="39.90017754710806" lon="18.32021183030601"><ele>111.0</ele><time>2026-04-03T12:47:54.002Z</time></trkpt><trkpt lat="39.900344040969024" lon="18.320128119650004"><ele>110.66666666666666</ele><time>2026-04-03T12:47:55.002Z</time></trkpt><trkpt lat="39.90050138490102" lon="18.32004722866548"><ele>110.33333333333333</ele><time>2026-04-03T12:47:56.002Z</time></trkpt><trkpt lat="39.90064613815582" lon="18.319969446948285"><ele>110.0</ele><time>2026-04-03T12:47:57.002Z</time></trkpt><trkpt lat="39.90078854937351" lon="18.31989019440829"><ele>109.75</ele><time>2026-04-03T12:47:58.002Z</time></trkpt><trkpt lat="39.90092521728137" lon="18.319810118162994"><ele>109.5</ele><time>2026-04-03T12:47:59.002Z</time></trkpt><trkpt lat="39.901048552257336" lon="18.319727428017927"><ele>109.25</ele><time>2026-04-03T12:48:00.002Z</time></trkpt><trkpt lat="39.901150419881716" lon="18.319648217814397"><ele>109.0</ele><time>2026-04-03T12:48:01.002Z</time></trkpt><trkpt lat="39.90123128029995" lon="18.319578937935923"><ele>109.0</ele><time>2026-04-03T12:48:02.002Z</time></trkpt><trkpt lat="39.90129763008594" lon="18.319518191950788"><ele>109.0</ele><time>2026-04-03T12:48:03.002Z</time></trkpt><trkpt lat="39.901380757944196" lon="18.319467810897905"><ele>109.0</ele><time>2026-04-03T12:48:05.002Z</time></trkpt><trkpt lat="39.901484795007995" lon="18.319571998900894"><ele>109.0</ele><time>2026-04-03T12:48:11.002Z</time></trkpt><trkpt lat="39.901564395234004" lon="18.31961224728836"><ele>109.0</ele><time>2026-04-03T12:48:15.002Z</time></trkpt><trkpt lat="39.901631218529246" lon="18.31965902059228"><ele>108.83333333333334</ele><time>2026-04-03T12:48:17.002Z</time></trkpt><trkpt lat="39.90170117881262" lon="18.31973851324568"><ele>108.66666666666667</ele><time>2026-04-03T12:48:19.002Z</time></trkpt><trkpt lat="39.90174400995008" lon="18.319807558038814"><ele>108.5</ele><time>2026-04-03T12:48:23Z</time></trkpt><trkpt lat="39.90179418626206" lon="18.31987961108081"><ele>108.33333333333334</ele><time>2026-04-03T12:48:26Z</time></trkpt><trkpt lat="39.901854048582734" lon="18.31996385801067"><ele>108.16666666666667</ele><time>2026-04-03T12:48:29Z</time></trkpt><trkpt lat="39.901898033333275" lon="18.320029190012075"><ele>108.0</ele><time>2026-04-03T12:48:31Z</time></trkpt><trkpt lat="39.90194606784926" lon="18.3200982541535"><ele>107.80000000000001</ele><time>2026-04-03T12:48:33Z</time></trkpt><trkpt lat="39.9020017505099" lon="18.320212309855616"><ele>107.60000000000001</ele><time>2026-04-03T12:48:35Z</time></trkpt><trkpt lat="39.90207129073268" lon="18.32029751030935"><ele>107.39999999999999</ele><time>2026-04-03T12:48:37Z</time></trkpt><trkpt lat="39.90217418310672" lon="18.320317645710627"><ele>107.19999999999999</ele><time>2026-04-03T12:48:39Z</time></trkpt><trkpt lat="39.902269782949155" lon="18.320312328418975"><ele>107.0</ele><time>2026-04-03T12:48:41Z</time></trkpt><trkpt lat="39.90237177400806" lon="18.320280484588807"><ele>107.0</ele><time>2026-04-03T12:48:43Z</time></trkpt><trkpt lat="39.90249972380814" lon="18.32025324934626"><ele>106.99999999999999</ele><time>2026-04-03T12:48:45Z</time></trkpt><trkpt lat="39.90256358027599" lon="18.320239199780783"><ele>106.99999999999999</ele><time>2026-04-03T12:48:46Z</time></trkpt><trkpt lat="39.902625223438896" lon="18.320219124345368"><ele>107.0</ele><time>2026-04-03T12:48:47Z</time></trkpt><trkpt lat="39.90274267357748" lon="18.320160036997162"><ele>107.0</ele><time>2026-04-03T12:48:49Z</time></trkpt><trkpt lat="39.90280520779157" lon="18.32013093506651"><ele>106.85714285714286</ele><time>2026-04-03T12:48:50Z</time></trkpt><trkpt lat="39.902880617599635" lon="18.32011669533739"><ele>106.71428571428572</ele><time>2026-04-03T12:48:51Z</time></trkpt><trkpt lat="39.9029508763889" lon="18.320079643762096"><ele>106.57142857142858</ele><time>2026-04-03T12:48:52Z</time></trkpt><trkpt lat="39.903017851516786" lon="18.320043117092624"><ele>106.42857142857143</ele><time>2026-04-03T12:48:53Z</time></trkpt><trkpt lat="39.90308612940424" lon="18.320005879875193"><ele>106.28571428571428</ele><time>2026-04-03T12:48:54Z</time></trkpt><trkpt lat="39.90315265210764" lon="18.31996960706966"><ele>106.14285714285715</ele><time>2026-04-03T12:48:55Z</time></trkpt><trkpt lat="39.90321481373784" lon="18.31993859997745"><ele>106.0</ele><time>2026-04-03T12:48:56Z</time></trkpt><trkpt lat="39.903279231263966" lon="18.319910721891695"><ele>106.0</ele><time>2026-04-03T12:48:57Z</time></trkpt><trkpt lat="39.903338410215845" lon="18.31986833596557"><ele>106.0</ele><time>2026-04-03T12:48:58Z</time></trkpt><trkpt lat="39.90340157883858" lon="18.319848868772777"><ele>106.0</ele><time>2026-04-03T12:48:59.001Z</time></trkpt><trkpt lat="39.9034689110467" lon="18.319853032995105"><ele>106.0</ele><time>2026-04-03T12:49:00.001Z</time></trkpt><trkpt lat="39.903534240098004" lon="18.319836734470094"><ele>106.0</ele><time>2026-04-03T12:49:01.001Z</time></trkpt><trkpt lat="39.90360296225775" lon="18.319816520435324"><ele>106.0</ele><time>2026-04-03T12:49:02.001Z</time></trkpt><trkpt lat="39.903668443520516" lon="18.319768708478392"><ele>106.0</ele><time>2026-04-03T12:49:03.001Z</time></trkpt><trkpt lat="39.9037379064537" lon="18.31973840248104"><ele>105.85714285714286</ele><time>2026-04-03T12:49:04.001Z</time></trkpt><trkpt lat="39.90381157554558" lon="18.31972408002726"><ele>105.71428571428571</ele><time>2026-04-03T12:49:05.001Z</time></trkpt><trkpt lat="39.90387123505164" lon="18.319664254118813"><ele>105.57142857142857</ele><time>2026-04-03T12:49:06.001Z</time></trkpt><trkpt lat="39.903942417430876" lon="18.319644443645974"><ele>105.42857142857143</ele><time>2026-04-03T12:49:07.001Z</time></trkpt><trkpt lat="39.90400360601802" lon="18.31960702145034"><ele>105.28571428571428</ele><time>2026-04-03T12:49:08.001Z</time></trkpt><trkpt lat="39.90405672834893" lon="18.319560345208366"><ele>105.14285714285714</ele><time>2026-04-03T12:49:09.001Z</time></trkpt><trkpt lat="39.90411518405623" lon="18.319521610243005"><ele>105.0</ele><time>2026-04-03T12:49:10.001Z</time></trkpt><trkpt lat="39.90418510800374" lon="18.319500692565562"><ele>105.0</ele><time>2026-04-03T12:49:11.001Z</time></trkpt><trkpt lat="39.9042565104768" lon="18.319461658537904"><ele>105.0</ele><time>2026-04-03T12:49:12.001Z</time></trkpt><trkpt lat="39.904331009045315" lon="18.319422539396367"><ele>105.0</ele><time>2026-04-03T12:49:13.001Z</time></trkpt><trkpt lat="39.904414080928525" lon="18.319381365684585"><ele>105.0</ele><time>2026-04-03T12:49:14.001Z</time></trkpt><trkpt lat="39.904503822660864" lon="18.319336886203658"><ele>105.0</ele><time>2026-04-03T12:49:15.001Z</time></trkpt><trkpt lat="39.9045974833311" lon="18.3192904642259"><ele>105.0</ele><time>2026-04-03T12:49:16.001Z</time></trkpt><trkpt lat="39.904687360565866" lon="18.31923342458908"><ele>105.0</ele><time>2026-04-03T12:49:17.001Z</time></trkpt><trkpt lat="39.90477760529206" lon="18.319193885049575"><ele>105.0</ele><time>2026-04-03T12:49:18.001Z</time></trkpt><trkpt lat="39.90485786689552" lon="18.319154107452047"><ele>105.0</ele><time>2026-04-03T12:49:19.001Z</time></trkpt><trkpt lat="39.90491597583327" lon="18.31911950974553"><ele>105.0</ele><time>2026-04-03T12:49:20.001Z</time></trkpt><trkpt lat="39.90501872127478" lon="18.319062059120657"><ele>105.0</ele><time>2026-04-03T12:49:22.001Z</time></trkpt><trkpt lat="39.90512786313882" lon="18.31900520423826"><ele>104.66666666666667</ele><time>2026-04-03T12:49:24.001Z</time></trkpt><trkpt lat="39.90519047703709" lon="18.318968063971152"><ele>104.33333333333334</ele><time>2026-04-03T12:49:25.001Z</time></trkpt><trkpt lat="39.905252512286175" lon="18.318933325920604"><ele>104.0</ele><time>2026-04-03T12:49:26.001Z</time></trkpt><trkpt lat="39.90531066690763" lon="18.31889760685323"><ele>103.66666666666667</ele><time>2026-04-03T12:49:27.001Z</time></trkpt><trkpt lat="39.90541679333245" lon="18.31883085812717"><ele>103.33333333333334</ele><time>2026-04-03T12:49:29.001Z</time></trkpt><trkpt lat="39.90551974540072" lon="18.31876437106529"><ele>103.0</ele><time>2026-04-03T12:49:31.001Z</time></trkpt><trkpt lat="39.9056177628554" lon="18.318716808275177"><ele>103.00000000000001</ele><time>2026-04-03T12:49:33.001Z</time></trkpt><trkpt lat="39.90568761501152" lon="18.318699751793275"><ele>103.0</ele><time>2026-04-03T12:49:35.001Z</time></trkpt><trkpt lat="39.90577051611697" lon="18.318685830619696"><ele>103.0</ele><time>2026-04-03T12:49:38.001Z</time></trkpt><trkpt lat="39.90585450601476" lon="18.318665627931082"><ele>103.0</ele><time>2026-04-03T12:49:41.002Z</time></trkpt><trkpt lat="39.90591830568333" lon="18.318662127359932"><ele>103.00000000000001</ele><time>2026-04-03T12:49:44.002Z</time></trkpt><trkpt lat="39.90598134851299" lon="18.318659660483984"><ele>103.0</ele><time>2026-04-03T12:49:47.002Z</time></trkpt><trkpt lat="39.90607857116952" lon="18.31870237895337"><ele>102.80000000000001</ele><time>2026-04-03T12:49:51.002Z</time></trkpt><trkpt lat="39.906174860302116" lon="18.318738311285056"><ele>102.6</ele><time>2026-04-03T12:49:53.002Z</time></trkpt><trkpt lat="39.90629398080353" lon="18.318794801455198"><ele>102.4</ele><time>2026-04-03T12:49:55.002Z</time></trkpt><trkpt lat="39.90637079126892" lon="18.31882610218763"><ele>102.19999999999999</ele><time>2026-04-03T12:49:56.002Z</time></trkpt><trkpt lat="39.90645162535934" lon="18.318858778911757"><ele>102.0</ele><time>2026-04-03T12:49:57.002Z</time></trkpt><trkpt lat="39.9065343382858" lon="18.31889070615482"><ele>102.33333333333333</ele><time>2026-04-03T12:49:58.002Z</time></trkpt><trkpt lat="39.90661609088309" lon="18.318920592842606"><ele>102.66666666666666</ele><time>2026-04-03T12:49:59.002Z</time></trkpt><trkpt lat="39.906702556619756" lon="18.3189428073979"><ele>103.0</ele><time>2026-04-03T12:50:00.002Z</time></trkpt><trkpt lat="39.90679078929382" lon="18.318953732045227"><ele>103.33333333333333</ele><time>2026-04-03T12:50:01.002Z</time></trkpt><trkpt lat="39.90687721157243" lon="18.318963285833796"><ele>103.66666666666666</ele><time>2026-04-03T12:50:02.002Z</time></trkpt><trkpt lat="39.90696406637643" lon="18.318971875225625"><ele>104.0</ele><time>2026-04-03T12:50:03.002Z</time></trkpt><trkpt lat="39.90705238683568" lon="18.318980609565934"><ele>104.16666666666666</ele><time>2026-04-03T12:50:04.002Z</time></trkpt><trkpt lat="39.90713927121914" lon="18.318989201848975"><ele>104.33333333333333</ele><time>2026-04-03T12:50:05.002Z</time></trkpt><trkpt lat="39.90722765321362" lon="18.31899445112414"><ele>104.5</ele><time>2026-04-03T12:50:06.002Z</time></trkpt><trkpt lat="39.907313150705946" lon="18.318999910752733"><ele>104.66666666666666</ele><time>2026-04-03T12:50:07.002Z</time></trkpt><trkpt lat="39.9073995880493" lon="18.319003554063645"><ele>104.83333333333333</ele><time>2026-04-03T12:50:08.002Z</time></trkpt><trkpt lat="39.90748744662799" lon="18.319003284655555"><ele>105.0</ele><time>2026-04-03T12:50:09.002Z</time></trkpt><trkpt lat="39.907574067342516" lon="18.319000871818293"><ele>105.0</ele><time>2026-04-03T12:50:10.002Z</time></trkpt><trkpt lat="39.90764908305011" lon="18.318998181574617"><ele>105.0</ele><time>2026-04-03T12:50:11.002Z</time></trkpt><trkpt lat="39.907761846538186" lon="18.31899413759383"><ele>105.0</ele><time>2026-04-03T12:50:13.002Z</time></trkpt><trkpt lat="39.907880779224506" lon="18.31899052806295"><ele>105.0</ele><time>2026-04-03T12:50:15.002Z</time></trkpt><trkpt lat="39.90795106381238" lon="18.318989928128374"><ele>105.0</ele><time>2026-04-03T12:50:16.002Z</time></trkpt><trkpt lat="39.90802162514011" lon="18.31898985727738"><ele>105.0</ele><time>2026-04-03T12:50:17.002Z</time></trkpt><trkpt lat="39.908095390094275" lon="18.318992248225257"><ele>105.0</ele><time>2026-04-03T12:50:18.002Z</time></trkpt><trkpt lat="39.90816981987767" lon="18.31899783269232"><ele>105.0</ele><time>2026-04-03T12:50:19.002Z</time></trkpt><trkpt lat="39.90823994786003" lon="18.319006100118102"><ele>105.0</ele><time>2026-04-03T12:50:20.002Z</time></trkpt><trkpt lat="39.9083054621049" lon="18.31902059993866"><ele>105.0</ele><time>2026-04-03T12:50:21.002Z</time></trkpt><trkpt lat="39.90841698375663" lon="18.319080308819284"><ele>105.0</ele><time>2026-04-03T12:50:23.002Z</time></trkpt><trkpt lat="39.90850586753921" lon="18.319160200825777"><ele>105.0</ele><time>2026-04-03T12:50:25.003Z</time></trkpt><trkpt lat="39.908578247921334" lon="18.319230199844156"><ele>105.0</ele><time>2026-04-03T12:50:27.003Z</time></trkpt><trkpt lat="39.90866445562101" lon="18.319207373164556"><ele>105.0</ele><time>2026-04-03T12:50:28.003Z</time></trkpt><trkpt lat="39.908761732432275" lon="18.31912436074386"><ele>105.0</ele><time>2026-04-03T12:50:30Z</time></trkpt><trkpt lat="39.908821884130376" lon="18.31908876258331"><ele>105.0</ele><time>2026-04-03T12:50:31Z</time></trkpt><trkpt lat="39.90888388090553" lon="18.319051326877933"><ele>105.0</ele><time>2026-04-03T12:50:32Z</time></trkpt><trkpt lat="39.90894485367234" lon="18.319017098342705"><ele>105.0</ele><time>2026-04-03T12:50:33Z</time></trkpt><trkpt lat="39.90900456947642" lon="18.31898257584167"><ele>105.0</ele><time>2026-04-03T12:50:34Z</time></trkpt><trkpt lat="39.909063895238795" lon="18.31894943629714"><ele>105.0</ele><time>2026-04-03T12:50:35Z</time></trkpt><trkpt lat="39.90917777942542" lon="18.318883452502543"><ele>105.0</ele><time>2026-04-03T12:50:37Z</time></trkpt><trkpt lat="39.909276991906744" lon="18.31882243812748"><ele>105.0</ele><time>2026-04-03T12:50:39Z</time></trkpt><trkpt lat="39.90935493381058" lon="18.318776513693102"><ele>105.0</ele><time>2026-04-03T12:50:41Z</time></trkpt><trkpt lat="39.90943164612106" lon="18.3187303840539"><ele>104.66666666666667</ele><time>2026-04-03T12:50:44Z</time></trkpt><trkpt lat="39.90950670163501" lon="18.318690463707"><ele>104.33333333333334</ele><time>2026-04-03T12:50:47Z</time></trkpt><trkpt lat="39.90959015539844" lon="18.318644438009365"><ele>104.0</ele><time>2026-04-03T12:50:50Z</time></trkpt><trkpt lat="39.90967144031588" lon="18.318606181693497"><ele>103.66666666666667</ele><time>2026-04-03T12:50:53Z</time></trkpt><trkpt lat="39.90973277607492" lon="18.318568751548483"><ele>103.33333333333334</ele><time>2026-04-03T12:50:55Z</time></trkpt><trkpt lat="39.909808771818994" lon="18.31852201967585"><ele>103.0</ele><time>2026-04-03T12:50:58Z</time></trkpt><trkpt lat="39.90986977237971" lon="18.318486782481372"><ele>103.00000000000001</ele><time>2026-04-03T12:51:00Z</time></trkpt><trkpt lat="39.90994796582309" lon="18.31843885797774"><ele>103.0</ele><time>2026-04-03T12:51:03.001Z</time></trkpt><trkpt lat="39.910008532976406" lon="18.318396089221345"><ele>103.0</ele><time>2026-04-03T12:51:31.001Z</time></trkpt><trkpt lat="39.91008396246441" lon="18.318368895095137"><ele>103.0</ele><time>2026-04-03T12:51:36.001Z</time></trkpt><trkpt lat="39.91015541828808" lon="18.31832833607263"><ele>103.00000000000001</ele><time>2026-04-03T12:51:40.001Z</time></trkpt><trkpt lat="39.91023245269353" lon="18.318284491420016"><ele>103.0</ele><time>2026-04-03T12:51:44.002Z</time></trkpt><trkpt lat="39.91029143295373" lon="18.318251730728367"><ele>103.16666666666667</ele><time>2026-04-03T12:51:47.002Z</time></trkpt><trkpt lat="39.910370137090865" lon="18.318206919523764"><ele>103.33333333333334</ele><time>2026-04-03T12:51:50.002Z</time></trkpt><trkpt lat="39.91044660558237" lon="18.31815064748656"><ele>103.5</ele><time>2026-04-03T12:51:53.002Z</time></trkpt><trkpt lat="39.91051448298519" lon="18.318106019422714"><ele>103.66666666666666</ele><time>2026-04-03T12:51:56.002Z</time></trkpt><trkpt lat="39.910581970417645" lon="18.318041942494908"><ele>103.83333333333333</ele><time>2026-04-03T12:51:59.002Z</time></trkpt><trkpt lat="39.91063373558672" lon="18.31798808035489"><ele>104.0</ele><time>2026-04-03T12:52:01.002Z</time></trkpt><trkpt lat="39.910691981276855" lon="18.317929233120456"><ele>103.99999999999999</ele><time>2026-04-03T12:52:03.002Z</time></trkpt><trkpt lat="39.91076112146873" lon="18.31786291707436"><ele>104.0</ele><time>2026-04-03T12:52:05.002Z</time></trkpt><trkpt lat="39.9108315316136" lon="18.31780141061218"><ele>104.0</ele><time>2026-04-03T12:52:07.002Z</time></trkpt><trkpt lat="39.91090220103873" lon="18.317740113072027"><ele>104.0</ele><time>2026-04-03T12:52:09.002Z</time></trkpt><trkpt lat="39.91096783688344" lon="18.31766930625335"><ele>103.99999999999999</ele><time>2026-04-03T12:52:11.002Z</time></trkpt><trkpt lat="39.91103523025826" lon="18.317599320902776"><ele>104.0</ele><time>2026-04-03T12:52:13.002Z</time></trkpt><trkpt lat="39.91110288569573" lon="18.317529905049273"><ele>104.0</ele><time>2026-04-03T12:52:15.002Z</time></trkpt><trkpt lat="39.91118349834075" lon="18.317453690220443"><ele>104.0</ele><time>2026-04-03T12:52:17.002Z</time></trkpt><trkpt lat="39.91127072139678" lon="18.317375092942036"><ele>104.0</ele><time>2026-04-03T12:52:19.002Z</time></trkpt><trkpt lat="39.91133918822775" lon="18.31730791733202"><ele>104.0</ele><time>2026-04-03T12:52:21.002Z</time></trkpt><trkpt lat="39.911406142331124" lon="18.31722633904175"><ele>104.0</ele><time>2026-04-03T12:52:24.002Z</time></trkpt><trkpt lat="39.91146074097924" lon="18.317138484583847"><ele>103.99999999999999</ele><time>2026-04-03T12:52:27.002Z</time></trkpt><trkpt lat="39.91150884084249" lon="18.317064992120518"><ele>104.0</ele><time>2026-04-03T12:52:30.003Z</time></trkpt><trkpt lat="39.91156123411163" lon="18.316969866769565"><ele>104.0</ele><time>2026-04-03T12:52:33.003Z</time></trkpt><trkpt lat="39.911607126234514" lon="18.316896934319953"><ele>104.0</ele><time>2026-04-03T12:52:35Z</time></trkpt><trkpt lat="39.91165500400158" lon="18.31683233605315"><ele>103.99999999999999</ele><time>2026-04-03T12:52:37Z</time></trkpt><trkpt lat="39.91171561383706" lon="18.31676963204697"><ele>104.0</ele><time>2026-04-03T12:52:39Z</time></trkpt><trkpt lat="39.91177787269028" lon="18.316711855460365"><ele>103.99999999999999</ele><time>2026-04-03T12:52:41Z</time></trkpt><trkpt lat="39.91184185193162" lon="18.316650427266424"><ele>104.0</ele><time>2026-04-03T12:52:43Z</time></trkpt><trkpt lat="39.911919289219554" lon="18.316586974194003"><ele>104.0</ele><time>2026-04-03T12:52:45Z</time></trkpt><trkpt lat="39.911998009079475" lon="18.31651700447446"><ele>104.0</ele><time>2026-04-03T12:52:47Z</time></trkpt><trkpt lat="39.91207357830285" lon="18.316452716612893"><ele>103.99999999999999</ele><time>2026-04-03T12:52:49Z</time></trkpt><trkpt lat="39.9121396376172" lon="18.316391608881286"><ele>104.0</ele><time>2026-04-03T12:52:51Z</time></trkpt><trkpt lat="39.91220660361435" lon="18.31633444048719"><ele>103.99999999999999</ele><time>2026-04-03T12:52:53.001Z</time></trkpt><trkpt lat="39.91227459462984" lon="18.316295454171126"><ele>104.0</ele><time>2026-04-03T12:52:55.001Z</time></trkpt><trkpt lat="39.91234365471401" lon="18.316256019641724"><ele>104.0</ele><time>2026-04-03T12:52:57.001Z</time></trkpt><trkpt lat="39.91242969799818" lon="18.316205497458714"><ele>104.0</ele><time>2026-04-03T12:53:00.001Z</time></trkpt><trkpt lat="39.91250142737452" lon="18.31616456531371"><ele>103.99999999999999</ele><time>2026-04-03T12:53:03.001Z</time></trkpt><trkpt lat="39.912571652953844" lon="18.316128014806896"><ele>104.0</ele><time>2026-04-03T12:53:07.001Z</time></trkpt><trkpt lat="39.9126499639427" lon="18.316071310193507"><ele>103.99999999999999</ele><time>2026-04-03T12:53:10.001Z</time></trkpt><trkpt lat="39.9127065400581" lon="18.31602628198256"><ele>104.0</ele><time>2026-04-03T12:53:12.001Z</time></trkpt><trkpt lat="39.91276803408727" lon="18.31600765544367"><ele>104.0</ele><time>2026-04-03T12:53:14.001Z</time></trkpt><trkpt lat="39.912848465565176" lon="18.315950576740466"><ele>104.0</ele><time>2026-04-03T12:53:17.001Z</time></trkpt><trkpt lat="39.91292985901624" lon="18.31589448262653"><ele>103.99999999999999</ele><time>2026-04-03T12:53:20.001Z</time></trkpt><trkpt lat="39.91299446246366" lon="18.315851655643122"><ele>104.0</ele><time>2026-04-03T12:53:22.001Z</time></trkpt><trkpt lat="39.91305396179968" lon="18.315812212256688"><ele>104.0</ele><time>2026-04-03T12:53:24.001Z</time></trkpt><trkpt lat="39.91313926297268" lon="18.315757232169574"><ele>104.0</ele><time>2026-04-03T12:53:27.001Z</time></trkpt><trkpt lat="39.91322255491013" lon="18.315705502903214"><ele>104.0</ele><time>2026-04-03T12:53:30.001Z</time></trkpt><trkpt lat="39.91329775840133" lon="18.31566191153519"><ele>104.0</ele><time>2026-04-03T12:53:32.001Z</time></trkpt><trkpt lat="39.91337947889075" lon="18.315595435198237"><ele>104.0</ele><time>2026-04-03T12:53:34.001Z</time></trkpt><trkpt lat="39.91348132255256" lon="18.315535747154936"><ele>104.2</ele><time>2026-04-03T12:53:36.001Z</time></trkpt><trkpt lat="39.91357961624572" lon="18.315462277576504"><ele>104.4</ele><time>2026-04-03T12:53:38.001Z</time></trkpt><trkpt lat="39.91367095549976" lon="18.315391274704616"><ele>104.6</ele><time>2026-04-03T12:53:40.002Z</time></trkpt><trkpt lat="39.91371748740706" lon="18.315333101281592"><ele>104.8</ele><time>2026-04-03T12:53:41.002Z</time></trkpt><trkpt lat="39.91381104871947" lon="18.315316033061066"><ele>105.0</ele><time>2026-04-03T12:53:42.002Z</time></trkpt><trkpt lat="39.91390469109393" lon="18.315284912729997"><ele>105.0</ele><time>2026-04-03T12:53:43.002Z</time></trkpt><trkpt lat="39.91401103292818" lon="18.315251245742928"><ele>105.0</ele><time>2026-04-03T12:53:44.002Z</time></trkpt><trkpt lat="39.914130092938166" lon="18.315213733273747"><ele>105.0</ele><time>2026-04-03T12:53:45.002Z</time></trkpt><trkpt lat="39.914245926836045" lon="18.315175121504875"><ele>105.0</ele><time>2026-04-03T12:53:46.002Z</time></trkpt><trkpt lat="39.914367453703605" lon="18.315138535138857"><ele>105.0</ele><time>2026-04-03T12:53:47.002Z</time></trkpt><trkpt lat="39.91449455719196" lon="18.31510016171084"><ele>105.0</ele><time>2026-04-03T12:53:48.002Z</time></trkpt><trkpt lat="39.91462647824562" lon="18.31505594927354"><ele>105.0</ele><time>2026-04-03T12:53:49.002Z</time></trkpt><trkpt lat="39.91476362947125" lon="18.31501104093931"><ele>105.0</ele><time>2026-04-03T12:53:50.002Z</time></trkpt><trkpt lat="39.91490425325387" lon="18.314968715534096"><ele>105.0</ele><time>2026-04-03T12:53:51.002Z</time></trkpt><trkpt lat="39.91504962609871" lon="18.314926254519587"><ele>105.0</ele><time>2026-04-03T12:53:52.002Z</time></trkpt><trkpt lat="39.915198435271115" lon="18.314877631413534"><ele>105.0</ele><time>2026-04-03T12:53:53.002Z</time></trkpt><trkpt lat="39.9153512681051" lon="18.31482921382293"><ele>105.0</ele><time>2026-04-03T12:53:54.002Z</time></trkpt><trkpt lat="39.91550724638493" lon="18.3147790781557"><ele>105.0</ele><time>2026-04-03T12:53:55.002Z</time></trkpt><trkpt lat="39.91566628256922" lon="18.314728499605526"><ele>105.0</ele><time>2026-04-03T12:53:56.002Z</time></trkpt><trkpt lat="39.91582735679885" lon="18.31467628669381"><ele>104.66666666666666</ele><time>2026-04-03T12:53:57.002Z</time></trkpt><trkpt lat="39.915989662659925" lon="18.31462630617805"><ele>104.33333333333333</ele><time>2026-04-03T12:53:58.002Z</time></trkpt><trkpt lat="39.91615189158714" lon="18.31457756799181"><ele>104.0</ele><time>2026-04-03T12:53:59.002Z</time></trkpt><trkpt lat="39.91631258562136" lon="18.314524472508495"><ele>104.0</ele><time>2026-04-03T12:54:00.002Z</time></trkpt><trkpt lat="39.91647238381309" lon="18.31447438535527"><ele>104.0</ele><time>2026-04-03T12:54:01.002Z</time></trkpt><trkpt lat="39.91663054819739" lon="18.314423684301982"><ele>104.0</ele><time>2026-04-03T12:54:02.002Z</time></trkpt><trkpt lat="39.91678929665712" lon="18.314376525736716"><ele>104.33333333333333</ele><time>2026-04-03T12:54:03.002Z</time></trkpt><trkpt lat="39.91694759291427" lon="18.31432855900001"><ele>104.66666666666666</ele><time>2026-04-03T12:54:04.002Z</time></trkpt><trkpt lat="39.91710421555656" lon="18.31427866689629"><ele>105.0</ele><time>2026-04-03T12:54:05.002Z</time></trkpt><trkpt lat="39.91725944420295" lon="18.314224731976193"><ele>105.0</ele><time>2026-04-03T12:54:06.002Z</time></trkpt><trkpt lat="39.91741709508975" lon="18.314171627141857"><ele>105.0</ele><time>2026-04-03T12:54:07.002Z</time></trkpt><trkpt lat="39.91757863563446" lon="18.314107085911708"><ele>105.0</ele><time>2026-04-03T12:54:08.002Z</time></trkpt><trkpt lat="39.91774804045601" lon="18.314033913156823"><ele>105.66666666666666</ele><time>2026-04-03T12:54:09.002Z</time></trkpt><trkpt lat="39.91791964386764" lon="18.313950114381573"><ele>106.33333333333333</ele><time>2026-04-03T12:54:10.002Z</time></trkpt><trkpt lat="39.91808653443026" lon="18.31385335445091"><ele>107.0</ele><time>2026-04-03T12:54:11.002Z</time></trkpt><trkpt lat="39.91825150635092" lon="18.31374964469492"><ele>106.66666666666666</ele><time>2026-04-03T12:54:12.002Z</time></trkpt><trkpt lat="39.91841624912731" lon="18.313632751346415"><ele>106.33333333333334</ele><time>2026-04-03T12:54:13.002Z</time></trkpt><trkpt lat="39.91858000769646" lon="18.313507468219353"><ele>106.0</ele><time>2026-04-03T12:54:14.002Z</time></trkpt><trkpt lat="39.91874158749133" lon="18.313370010194536"><ele>106.0</ele><time>2026-04-03T12:54:15.002Z</time></trkpt><trkpt lat="39.91889983632536" lon="18.313221865139777"><ele>106.0</ele><time>2026-04-03T12:54:16.002Z</time></trkpt><trkpt lat="39.91905106285721" lon="18.313065353669288"><ele>106.0</ele><time>2026-04-03T12:54:17.002Z</time></trkpt><trkpt lat="39.919197862915915" lon="18.312901409880862"><ele>106.0</ele><time>2026-04-03T12:54:18.002Z</time></trkpt><trkpt lat="39.919342123952894" lon="18.31273731273312"><ele>106.0</ele><time>2026-04-03T12:54:19.002Z</time></trkpt><trkpt lat="39.91948522115004" lon="18.312571757834508"><ele>106.0</ele><time>2026-04-03T12:54:20.002Z</time></trkpt><trkpt lat="39.919627424622725" lon="18.312408271339123"><ele>106.0</ele><time>2026-04-03T12:54:21.002Z</time></trkpt><trkpt lat="39.91976872458169" lon="18.312248979383504"><ele>106.0</ele><time>2026-04-03T12:54:22.002Z</time></trkpt><trkpt lat="39.91990838649941" lon="18.31208909864563"><ele>106.0</ele><time>2026-04-03T12:54:23.002Z</time></trkpt><trkpt lat="39.920046560899294" lon="18.311930873794477"><ele>106.33333333333334</ele><time>2026-04-03T12:54:24.003Z</time></trkpt><trkpt lat="39.92018128116591" lon="18.311776177720503"><ele>106.66666666666666</ele><time>2026-04-03T12:54:25.003Z</time></trkpt><trkpt lat="39.92031280772714" lon="18.311624143518742"><ele>107.0</ele><time>2026-04-03T12:54:26.003Z</time></trkpt><trkpt lat="39.920444266194345" lon="18.311474280852448"><ele>106.33333333333333</ele><time>2026-04-03T12:54:27.003Z</time></trkpt><trkpt lat="39.920572591096885" lon="18.31132670453937"><ele>105.66666666666666</ele><time>2026-04-03T12:54:28.003Z</time></trkpt><trkpt lat="39.920700884172625" lon="18.311181665084817"><ele>105.0</ele><time>2026-04-03T12:54:29.003Z</time></trkpt><trkpt lat="39.92082949900689" lon="18.311037039257034"><ele>105.33333333333334</ele><time>2026-04-03T12:54:30.003Z</time></trkpt><trkpt lat="39.92095641616534" lon="18.310891343043913"><ele>105.66666666666667</ele><time>2026-04-03T12:54:31.003Z</time></trkpt><trkpt lat="39.921083645886334" lon="18.31074231597679"><ele>106.0</ele><time>2026-04-03T12:54:32.003Z</time></trkpt><trkpt lat="39.921211005265306" lon="18.310591082389692"><ele>105.0</ele><time>2026-04-03T12:54:33.003Z</time></trkpt><trkpt lat="39.92133924405492" lon="18.310440553415958"><ele>104.0</ele><time>2026-04-03T12:54:34.003Z</time></trkpt><trkpt lat="39.9214682079699" lon="18.31029315318077"><ele>103.0</ele><time>2026-04-03T12:54:35.003Z</time></trkpt><trkpt lat="39.92159853118891" lon="18.3101481493839"><ele>103.0</ele><time>2026-04-03T12:54:36.003Z</time></trkpt><trkpt lat="39.92172838900818" lon="18.31000404414177"><ele>103.0</ele><time>2026-04-03T12:54:37.003Z</time></trkpt><trkpt lat="39.92185698257286" lon="18.30985892370411"><ele>103.0</ele><time>2026-04-03T12:54:38.003Z</time></trkpt><trkpt lat="39.92198263052337" lon="18.309711358778596"><ele>103.66666666666667</ele><time>2026-04-03T12:54:39.003Z</time></trkpt><trkpt lat="39.922108804435275" lon="18.309564287129202"><ele>104.33333333333334</ele><time>2026-04-03T12:54:40.003Z</time></trkpt><trkpt lat="39.92223473585951" lon="18.30941803099663"><ele>105.0</ele><time>2026-04-03T12:54:41.001Z</time></trkpt><trkpt lat="39.92236186352274" lon="18.309275239717692"><ele>105.0</ele><time>2026-04-03T12:54:42.001Z</time></trkpt><trkpt lat="39.92248793557399" lon="18.309133102015533"><ele>105.0</ele><time>2026-04-03T12:54:43.001Z</time></trkpt><trkpt lat="39.92261330586753" lon="18.308993672132857"><ele>105.0</ele><time>2026-04-03T12:54:44.001Z</time></trkpt><trkpt lat="39.92273374881065" lon="18.308854149813254"><ele>105.33333333333334</ele><time>2026-04-03T12:54:45.001Z</time></trkpt><trkpt lat="39.92285189611986" lon="18.308718145068692"><ele>105.66666666666667</ele><time>2026-04-03T12:54:46.001Z</time></trkpt><trkpt lat="39.922968822928226" lon="18.308587112047345"><ele>106.0</ele><time>2026-04-03T12:54:47.001Z</time></trkpt><trkpt lat="39.92309389434586" lon="18.308461043965384"><ele>106.0</ele><time>2026-04-03T12:54:48.001Z</time></trkpt><trkpt lat="39.92322563920229" lon="18.308337430608848"><ele>106.0</ele><time>2026-04-03T12:54:49.001Z</time></trkpt><trkpt lat="39.92336179032392" lon="18.308214888462405"><ele>106.0</ele><time>2026-04-03T12:54:50.001Z</time></trkpt><trkpt lat="39.92349794178879" lon="18.308093432043933"><ele>106.0</ele><time>2026-04-03T12:54:51.001Z</time></trkpt><trkpt lat="39.9235628970815" lon="18.308036606493005"><ele>106.0</ele><time>2026-04-03T12:54:52.001Z</time></trkpt><trkpt lat="39.92377558678942" lon="18.307863335770648"><ele>106.0</ele><time>2026-04-03T12:54:53.001Z</time></trkpt><trkpt lat="39.92391042010595" lon="18.307752729081354"><ele>106.0</ele><time>2026-04-03T12:54:54.001Z</time></trkpt><trkpt lat="39.924048906325375" lon="18.30765144829792"><ele>106.0</ele><time>2026-04-03T12:54:55.001Z</time></trkpt><trkpt lat="39.92418224026864" lon="18.307547259168615"><ele>106.0</ele><time>2026-04-03T12:54:56.001Z</time></trkpt><trkpt lat="39.92432631199417" lon="18.307443097683123"><ele>106.0</ele><time>2026-04-03T12:54:57.001Z</time></trkpt><trkpt lat="39.92447384537023" lon="18.307343100078928"><ele>106.0</ele><time>2026-04-03T12:54:58.001Z</time></trkpt><trkpt lat="39.92463222652044" lon="18.30723893379875"><ele>106.0</ele><time>2026-04-03T12:54:59.001Z</time></trkpt><trkpt lat="39.92479352850754" lon="18.307136450121234"><ele>106.0</ele><time>2026-04-03T12:55:00.001Z</time></trkpt><trkpt lat="39.924961169622975" lon="18.307040576266264"><ele>106.0</ele><time>2026-04-03T12:55:01.001Z</time></trkpt><trkpt lat="39.925135855147246" lon="18.306946114774348"><ele>106.0</ele><time>2026-04-03T12:55:02.001Z</time></trkpt><trkpt lat="39.925304118355974" lon="18.306854647534582"><ele>107.33333333333334</ele><time>2026-04-03T12:55:03.001Z</time></trkpt><trkpt lat="39.92547473834107" lon="18.306762683343685"><ele>108.66666666666666</ele><time>2026-04-03T12:55:04Z</time></trkpt><trkpt lat="39.925645613140944" lon="18.306673088636316"><ele>110.0</ele><time>2026-04-03T12:55:05Z</time></trkpt><trkpt lat="39.92581289347926" lon="18.30658219041682"><ele>110.33333333333333</ele><time>2026-04-03T12:55:06Z</time></trkpt><trkpt lat="39.925980281589084" lon="18.306490686311705"><ele>110.66666666666666</ele><time>2026-04-03T12:55:07Z</time></trkpt><trkpt lat="39.92614268400693" lon="18.306406931161405"><ele>111.0</ele><time>2026-04-03T12:55:08Z</time></trkpt><trkpt lat="39.926306146015555" lon="18.306315696371875"><ele>111.0</ele><time>2026-04-03T12:55:09Z</time></trkpt><trkpt lat="39.92646664964402" lon="18.306223340750876"><ele>111.0</ele><time>2026-04-03T12:55:10Z</time></trkpt><trkpt lat="39.92662731519748" lon="18.30613311731353"><ele>111.0</ele><time>2026-04-03T12:55:11Z</time></trkpt><trkpt lat="39.926780079342706" lon="18.306049180969403"><ele>111.0</ele><time>2026-04-03T12:55:12Z</time></trkpt><trkpt lat="39.92693412041857" lon="18.30596128075895"><ele>111.0</ele><time>2026-04-03T12:55:13Z</time></trkpt><trkpt lat="39.92708202120014" lon="18.30587945001786"><ele>111.0</ele><time>2026-04-03T12:55:14Z</time></trkpt><trkpt lat="39.92723473341687" lon="18.30579960393254"><ele>111.0</ele><time>2026-04-03T12:55:15Z</time></trkpt><trkpt lat="39.927386814637735" lon="18.30572057374459"><ele>111.0</ele><time>2026-04-03T12:55:16Z</time></trkpt><trkpt lat="39.92753884813945" lon="18.305639733620975"><ele>111.0</ele><time>2026-04-03T12:55:17Z</time></trkpt><trkpt lat="39.92769405227326" lon="18.305555262707664"><ele>111.66666666666666</ele><time>2026-04-03T12:55:18Z</time></trkpt><trkpt lat="39.927849640003245" lon="18.30546891884492"><ele>112.33333333333333</ele><time>2026-04-03T12:55:19Z</time></trkpt><trkpt lat="39.92800718552467" lon="18.305371534611258"><ele>113.0</ele><time>2026-04-03T12:55:20Z</time></trkpt><trkpt lat="39.92816683582753" lon="18.305278202741125"><ele>113.0</ele><time>2026-04-03T12:55:21Z</time></trkpt><trkpt lat="39.92832631734082" lon="18.305194218471527"><ele>113.0</ele><time>2026-04-03T12:55:22Z</time></trkpt><trkpt lat="39.928491679401105" lon="18.305102574704765"><ele>113.0</ele><time>2026-04-03T12:55:23Z</time></trkpt><trkpt lat="39.9286570300342" lon="18.305016532031036"><ele>112.66666666666666</ele><time>2026-04-03T12:55:24Z</time></trkpt><trkpt lat="39.928824767642496" lon="18.304926139925342"><ele>112.33333333333334</ele><time>2026-04-03T12:55:25Z</time></trkpt><trkpt lat="39.9289859948914" lon="18.30483554523143"><ele>112.0</ele><time>2026-04-03T12:55:26Z</time></trkpt><trkpt lat="39.929151848148216" lon="18.30473771097713"><ele>113.66666666666667</ele><time>2026-04-03T12:55:27Z</time></trkpt><trkpt lat="39.929314363275616" lon="18.304647146165085"><ele>115.33333333333334</ele><time>2026-04-03T12:55:28Z</time></trkpt><trkpt lat="39.92947193142866" lon="18.304563125176152"><ele>117.0</ele><time>2026-04-03T12:55:29Z</time></trkpt><trkpt lat="39.92962565573229" lon="18.304482342165738"><ele>117.0</ele><time>2026-04-03T12:55:30Z</time></trkpt><trkpt lat="39.92977478198381" lon="18.30439754241545"><ele>117.0</ele><time>2026-04-03T12:55:31Z</time></trkpt><trkpt lat="39.92992286297202" lon="18.304317577913093"><ele>117.0</ele><time>2026-04-03T12:55:32Z</time></trkpt><trkpt lat="39.930070879545575" lon="18.304241528934845"><ele>116.33333333333334</ele><time>2026-04-03T12:55:33Z</time></trkpt><trkpt lat="39.93021559674584" lon="18.304170300775677"><ele>115.66666666666667</ele><time>2026-04-03T12:55:34Z</time></trkpt><trkpt lat="39.93035716236341" lon="18.304098695105402"><ele>115.0</ele><time>2026-04-03T12:55:35.001Z</time></trkpt><trkpt lat="39.93049807935684" lon="18.304025127104584"><ele>115.0</ele><time>2026-04-03T12:55:36.001Z</time></trkpt><trkpt lat="39.930639258014295" lon="18.303950034646515"><ele>115.0</ele><time>2026-04-03T12:55:37.001Z</time></trkpt><trkpt lat="39.930784976850084" lon="18.303874184275173"><ele>115.0</ele><time>2026-04-03T12:55:38.001Z</time></trkpt><trkpt lat="39.930935149872596" lon="18.303793862095386"><ele>117.0</ele><time>2026-04-03T12:55:39.001Z</time></trkpt><trkpt lat="39.93108953185429" lon="18.303706457466273"><ele>119.0</ele><time>2026-04-03T12:55:40.001Z</time></trkpt><trkpt lat="39.9312386210131" lon="18.303613699614377"><ele>121.0</ele><time>2026-04-03T12:55:41.001Z</time></trkpt><trkpt lat="39.93138618793377" lon="18.303518376817348"><ele>121.0</ele><time>2026-04-03T12:55:42.001Z</time></trkpt><trkpt lat="39.9315314095966" lon="18.303426522628996"><ele>121.0</ele><time>2026-04-03T12:55:43.001Z</time></trkpt><trkpt lat="39.93167477038528" lon="18.303348681991103"><ele>121.0</ele><time>2026-04-03T12:55:44.001Z</time></trkpt><trkpt lat="39.931806358251855" lon="18.30328637436599"><ele>121.0</ele><time>2026-04-03T12:55:45.001Z</time></trkpt><trkpt lat="39.93192857851923" lon="18.303234922243558"><ele>121.0</ele><time>2026-04-03T12:55:46.001Z</time></trkpt><trkpt lat="39.93203332702086" lon="18.303191507865925"><ele>121.0</ele><time>2026-04-03T12:55:47.001Z</time></trkpt><trkpt lat="39.93212111465711" lon="18.3031593720561"><ele>121.0</ele><time>2026-04-03T12:55:48.001Z</time></trkpt><trkpt lat="39.93219479725468" lon="18.30315107382369"><ele>121.0</ele><time>2026-04-03T12:55:49.001Z</time></trkpt><trkpt lat="39.93230682089942" lon="18.303183571670967"><ele>121.0</ele><time>2026-04-03T12:55:51.001Z</time></trkpt><trkpt lat="39.93240594019324" lon="18.303154666787016"><ele>121.0</ele><time>2026-04-03T12:55:53.001Z</time></trkpt><trkpt lat="39.93247099925667" lon="18.303064923785712"><ele>121.0</ele><time>2026-04-03T12:55:55.001Z</time></trkpt><trkpt lat="39.93250063492512" lon="18.30290817897921"><ele>121.0</ele><time>2026-04-03T12:55:57.001Z</time></trkpt><trkpt lat="39.932510711653094" lon="18.302800820071123"><ele>121.0</ele><time>2026-04-03T12:55:58.001Z</time></trkpt><trkpt lat="39.932529281054066" lon="18.302676934296027"><ele>121.6</ele><time>2026-04-03T12:55:59.001Z</time></trkpt><trkpt lat="39.93256013163802" lon="18.302547424745015"><ele>122.19999999999999</ele><time>2026-04-03T12:56:00.001Z</time></trkpt><trkpt lat="39.93259005061387" lon="18.30243122100522"><ele>122.80000000000001</ele><time>2026-04-03T12:56:01.001Z</time></trkpt><trkpt lat="39.93262336698249" lon="18.302323805377927"><ele>123.4</ele><time>2026-04-03T12:56:02.001Z</time></trkpt><trkpt lat="39.932658857501444" lon="18.302217973778003"><ele>124.0</ele><time>2026-04-03T12:56:03.001Z</time></trkpt><trkpt lat="39.93269997606291" lon="18.302110790168268"><ele>124.33333333333334</ele><time>2026-04-03T12:56:04.001Z</time></trkpt><trkpt lat="39.9327538271865" lon="18.30201187395197"><ele>124.66666666666667</ele><time>2026-04-03T12:56:05.001Z</time></trkpt><trkpt lat="39.93280737553117" lon="18.301923980487985"><ele>125.0</ele><time>2026-04-03T12:56:06.001Z</time></trkpt><trkpt lat="39.932859116580765" lon="18.301843534152397"><ele>125.33333333333334</ele><time>2026-04-03T12:56:07.001Z</time></trkpt><trkpt lat="39.93290699707927" lon="18.301770267520634"><ele>125.66666666666667</ele><time>2026-04-03T12:56:08.001Z</time></trkpt><trkpt lat="39.932946077892" lon="18.3017036881806"><ele>126.0</ele><time>2026-04-03T12:56:09.001Z</time></trkpt><trkpt lat="39.93294080654253" lon="18.301574550541698"><ele>126.0</ele><time>2026-04-03T12:56:11.001Z</time></trkpt><trkpt lat="39.93285894573859" lon="18.301522573478383"><ele>126.0</ele><time>2026-04-03T12:56:13.001Z</time></trkpt><trkpt lat="39.93277805682595" lon="18.301603205006938"><ele>126.0</ele><time>2026-04-03T12:56:15.001Z</time></trkpt><trkpt lat="39.93278882270668" lon="18.301708140981724"><ele>126.0</ele><time>2026-04-03T12:56:16.001Z</time></trkpt><trkpt lat="39.93278581720858" lon="18.30180048527941"><ele>126.0</ele><time>2026-04-03T12:56:17.001Z</time></trkpt><trkpt lat="39.93276582769757" lon="18.30190126027985"><ele>126.0</ele><time>2026-04-03T12:56:18.001Z</time></trkpt><trkpt lat="39.932717746852006" lon="18.302014051735743"><ele>126.0</ele><time>2026-04-03T12:56:19.001Z</time></trkpt><trkpt lat="39.93265278173718" lon="18.30213346072302"><ele>126.0</ele><time>2026-04-03T12:56:20.001Z</time></trkpt><trkpt lat="39.93258125725228" lon="18.30225754488307"><ele>126.0</ele><time>2026-04-03T12:56:21.001Z</time></trkpt><trkpt lat="39.932509089747825" lon="18.3023757181732"><ele>126.0</ele><time>2026-04-03T12:56:22.001Z</time></trkpt><trkpt lat="39.93244140725486" lon="18.30248593901321"><ele>125.4</ele><time>2026-04-03T12:56:23.001Z</time></trkpt><trkpt lat="39.93237698158892" lon="18.30258693831202"><ele>124.8</ele><time>2026-04-03T12:56:24.001Z</time></trkpt><trkpt lat="39.93230656309272" lon="18.302672792589963"><ele>124.20000000000002</ele><time>2026-04-03T12:56:25.001Z</time></trkpt><trkpt lat="39.93223058356189" lon="18.30274382835514"><ele>123.60000000000001</ele><time>2026-04-03T12:56:26.001Z</time></trkpt><trkpt lat="39.932163086222445" lon="18.30280825721596"><ele>123.0</ele><time>2026-04-03T12:56:27.002Z</time></trkpt><trkpt lat="39.932118734391054" lon="18.302890404646227"><ele>123.0</ele><time>2026-04-03T12:56:28.002Z</time></trkpt><trkpt lat="39.932137630708326" lon="18.30307450012246"><ele>123.00000000000001</ele><time>2026-04-03T12:56:30.002Z</time></trkpt><trkpt lat="39.93219119679434" lon="18.303158273838676"><ele>123.00000000000001</ele><time>2026-04-03T12:56:31.002Z</time></trkpt><trkpt lat="39.932274196273994" lon="18.30323490963078"><ele>123.0</ele><time>2026-04-03T12:56:32.002Z</time></trkpt><trkpt lat="39.932375815689156" lon="18.303310539943713"><ele>123.0</ele><time>2026-04-03T12:56:33.002Z</time></trkpt><trkpt lat="39.93248538669907" lon="18.30339651904601"><ele>122.5</ele><time>2026-04-03T12:56:34.002Z</time></trkpt><trkpt lat="39.93259396301257" lon="18.30348027041955"><ele>122.0</ele><time>2026-04-03T12:56:35.002Z</time></trkpt><trkpt lat="39.93269992207413" lon="18.303565707728445"><ele>121.5</ele><time>2026-04-03T12:56:36.002Z</time></trkpt><trkpt lat="39.93281855437588" lon="18.303660223475653"><ele>121.0</ele><time>2026-04-03T12:56:37.002Z</time></trkpt><trkpt lat="39.93294033283452" lon="18.303753140830235"><ele>121.0</ele><time>2026-04-03T12:56:38.002Z</time></trkpt><trkpt lat="39.933055841890145" lon="18.30384293140742"><ele>121.0</ele><time>2026-04-03T12:56:39.002Z</time></trkpt><trkpt lat="39.93316976018063" lon="18.30393049968231"><ele>121.0</ele><time>2026-04-03T12:56:40.002Z</time></trkpt><trkpt lat="39.93328473864205" lon="18.304012507853738"><ele>121.0</ele><time>2026-04-03T12:56:41.002Z</time></trkpt><trkpt lat="39.93340294650554" lon="18.30409191208873"><ele>119.5</ele><time>2026-04-03T12:56:42.002Z</time></trkpt><trkpt lat="39.93351968732974" lon="18.304176236970605"><ele>118.0</ele><time>2026-04-03T12:56:43.002Z</time></trkpt><trkpt lat="39.9336389344808" lon="18.3042632874942"><ele>116.5</ele><time>2026-04-03T12:56:44.002Z</time></trkpt><trkpt lat="39.93374863272666" lon="18.30437418383838"><ele>115.0</ele><time>2026-04-03T12:56:45.002Z</time></trkpt><trkpt lat="39.93386368475209" lon="18.30446991652206"><ele>115.0</ele><time>2026-04-03T12:56:46.002Z</time></trkpt><trkpt lat="39.93397064348863" lon="18.304579177330723"><ele>115.0</ele><time>2026-04-03T12:56:47Z</time></trkpt><trkpt lat="39.934076092683455" lon="18.304697021010696"><ele>115.0</ele><time>2026-04-03T12:56:48Z</time></trkpt><trkpt lat="39.93417749928072" lon="18.304810346998273"><ele>115.0</ele><time>2026-04-03T12:56:49Z</time></trkpt><trkpt lat="39.93427009539399" lon="18.304909646273728"><ele>113.4</ele><time>2026-04-03T12:56:50Z</time></trkpt><trkpt lat="39.93433604297637" lon="18.30501038947192"><ele>111.8</ele><time>2026-04-03T12:56:51Z</time></trkpt><trkpt lat="39.93438389154267" lon="18.305098408280365"><ele>110.19999999999999</ele><time>2026-04-03T12:56:52Z</time></trkpt><trkpt lat="39.9343966438071" lon="18.305181694810628"><ele>108.6</ele><time>2026-04-03T12:56:53Z</time></trkpt><trkpt lat="39.934561216743994" lon="18.30516616554954"><ele>107.0</ele><time>2026-04-03T12:56:58Z</time></trkpt><trkpt lat="39.93462613446573" lon="18.305084177970176"><ele>107.0</ele><time>2026-04-03T12:56:59Z</time></trkpt><trkpt lat="39.934705988846886" lon="18.30500232838757"><ele>106.99999999999999</ele><time>2026-04-03T12:57:00Z</time></trkpt><trkpt lat="39.934783592788264" lon="18.304927797931622"><ele>106.99999999999999</ele><time>2026-04-03T12:57:01Z</time></trkpt><trkpt lat="39.93487261873008" lon="18.304840995558315"><ele>107.0</ele><time>2026-04-03T12:57:02Z</time></trkpt><trkpt lat="39.93496760736118" lon="18.304754879141772"><ele>107.0</ele><time>2026-04-03T12:57:03Z</time></trkpt><trkpt lat="39.93505569965283" lon="18.30467024245452"><ele>106.8</ele><time>2026-04-03T12:57:04.001Z</time></trkpt><trkpt lat="39.935143377783504" lon="18.304591309355963"><ele>106.6</ele><time>2026-04-03T12:57:05.001Z</time></trkpt><trkpt lat="39.93522777701163" lon="18.304513494124222"><ele>106.39999999999999</ele><time>2026-04-03T12:57:06.001Z</time></trkpt><trkpt lat="39.935311256072744" lon="18.304434976781593"><ele>106.19999999999999</ele><time>2026-04-03T12:57:07.001Z</time></trkpt><trkpt lat="39.93539622936627" lon="18.304358730143825"><ele>106.0</ele><time>2026-04-03T12:57:08.001Z</time></trkpt><trkpt lat="39.93549289027594" lon="18.304279783338536"><ele>106.0</ele><time>2026-04-03T12:57:09.001Z</time></trkpt><trkpt lat="39.93559131273509" lon="18.304191226628618"><ele>106.0</ele><time>2026-04-03T12:57:10.001Z</time></trkpt><trkpt lat="39.93569143263326" lon="18.304099232978384"><ele>106.0</ele><time>2026-04-03T12:57:11.001Z</time></trkpt><trkpt lat="39.93579169697766" lon="18.30400534535203"><ele>106.0</ele><time>2026-04-03T12:57:12.001Z</time></trkpt><trkpt lat="39.93589075802278" lon="18.30391338270539"><ele>107.0</ele><time>2026-04-03T12:57:13.001Z</time></trkpt><trkpt lat="39.935985477428865" lon="18.303823725584973"><ele>108.0</ele><time>2026-04-03T12:57:14.001Z</time></trkpt><trkpt lat="39.93607881962382" lon="18.303741043034577"><ele>109.0</ele><time>2026-04-03T12:57:15.001Z</time></trkpt><trkpt lat="39.936166639992976" lon="18.303662139038426"><ele>110.0</ele><time>2026-04-03T12:57:16.001Z</time></trkpt><trkpt lat="39.93624617901973" lon="18.303589998189246"><ele>111.0</ele><time>2026-04-03T12:57:17.001Z</time></trkpt><trkpt lat="39.936313287775114" lon="18.303532768879542"><ele>111.0</ele><time>2026-04-03T12:57:18.001Z</time></trkpt><trkpt lat="39.93641740336426" lon="18.30347260036231"><ele>111.0</ele><time>2026-04-03T12:57:20.001Z</time></trkpt><trkpt lat="39.93652564740883" lon="18.30337955715997"><ele>111.0</ele><time>2026-04-03T12:57:22.001Z</time></trkpt><trkpt lat="39.936579714395585" lon="18.303303331266722"><ele>111.0</ele><time>2026-04-03T12:57:23.001Z</time></trkpt><trkpt lat="39.93664859700953" lon="18.30322291089147"><ele>111.0</ele><time>2026-04-03T12:57:24.001Z</time></trkpt><trkpt lat="39.93672756849711" lon="18.30313923527696"><ele>111.6</ele><time>2026-04-03T12:57:25.001Z</time></trkpt><trkpt lat="39.936805608297604" lon="18.303062693976962"><ele>112.19999999999999</ele><time>2026-04-03T12:57:26.001Z</time></trkpt><trkpt lat="39.93688204557322" lon="18.302990515311016"><ele>112.80000000000001</ele><time>2026-04-03T12:57:27.001Z</time></trkpt><trkpt lat="39.936961533364666" lon="18.30292142326508"><ele>113.4</ele><time>2026-04-03T12:57:28.001Z</time></trkpt><trkpt lat="39.93703980226012" lon="18.30284843371602"><ele>114.0</ele><time>2026-04-03T12:57:29.001Z</time></trkpt><trkpt lat="39.93712149240243" lon="18.302775441339207"><ele>114.0</ele><time>2026-04-03T12:57:30.001Z</time></trkpt><trkpt lat="39.9372100026686" lon="18.302698924635564"><ele>114.0</ele><time>2026-04-03T12:57:31.001Z</time></trkpt><trkpt lat="39.93729107171691" lon="18.30261757081073"><ele>114.0</ele><time>2026-04-03T12:57:32.001Z</time></trkpt><trkpt lat="39.937380075524715" lon="18.302538663221394"><ele>114.0</ele><time>2026-04-03T12:57:33.001Z</time></trkpt><trkpt lat="39.93747123969682" lon="18.30245850756207"><ele>114.0</ele><time>2026-04-03T12:57:34.001Z</time></trkpt><trkpt lat="39.93756462730038" lon="18.30237348262787"><ele>113.25</ele><time>2026-04-03T12:57:35.001Z</time></trkpt><trkpt lat="39.93766079247006" lon="18.302284911871716"><ele>112.5</ele><time>2026-04-03T12:57:36.001Z</time></trkpt><trkpt lat="39.93775721261478" lon="18.302195250883095"><ele>111.75</ele><time>2026-04-03T12:57:37.001Z</time></trkpt><trkpt lat="39.93784447612818" lon="18.302109065954248"><ele>111.0</ele><time>2026-04-03T12:57:38.001Z</time></trkpt><trkpt lat="39.937939202061095" lon="18.30202890730474"><ele>112.19999999999999</ele><time>2026-04-03T12:57:39.001Z</time></trkpt><trkpt lat="39.93803044985143" lon="18.301944443838686"><ele>113.39999999999999</ele><time>2026-04-03T12:57:40.001Z</time></trkpt><trkpt lat="39.938123152066076" lon="18.301861981174817"><ele>114.6</ele><time>2026-04-03T12:57:41.001Z</time></trkpt><trkpt lat="39.93821030616267" lon="18.301780893914756"><ele>115.8</ele><time>2026-04-03T12:57:42.001Z</time></trkpt><trkpt lat="39.93829783970566" lon="18.301695530692637"><ele>117.0</ele><time>2026-04-03T12:57:43.001Z</time></trkpt><trkpt lat="39.93839124586696" lon="18.30161590363963"><ele>117.0</ele><time>2026-04-03T12:57:44.001Z</time></trkpt><trkpt lat="39.93847593463437" lon="18.301539922003165"><ele>116.99999999999999</ele><time>2026-04-03T12:57:45.001Z</time></trkpt><trkpt lat="39.938555835323164" lon="18.301463118315652"><ele>116.99999999999999</ele><time>2026-04-03T12:57:46.001Z</time></trkpt><trkpt lat="39.93862578631335" lon="18.301402893364074"><ele>117.0</ele><time>2026-04-03T12:57:47.002Z</time></trkpt><trkpt lat="39.93868858020139" lon="18.30135204939828"><ele>117.0</ele><time>2026-04-03T12:57:48.002Z</time></trkpt><trkpt lat="39.938766794823444" lon="18.301284527433936"><ele>118.16666666666667</ele><time>2026-04-03T12:57:50.002Z</time></trkpt><trkpt lat="39.93885274367251" lon="18.301204204789762"><ele>119.33333333333334</ele><time>2026-04-03T12:57:52.002Z</time></trkpt><trkpt lat="39.93890834381024" lon="18.301149197640747"><ele>120.5</ele><time>2026-04-03T12:57:53.002Z</time></trkpt><trkpt lat="39.93897233283614" lon="18.301084511051194"><ele>121.66666666666667</ele><time>2026-04-03T12:57:54.002Z</time></trkpt><trkpt lat="39.93904704363613" lon="18.30101443536591"><ele>122.83333333333334</ele><time>2026-04-03T12:57:55.002Z</time></trkpt><trkpt lat="39.93912396078664" lon="18.300945130213933"><ele>124.0</ele><time>2026-04-03T12:57:56.002Z</time></trkpt><trkpt lat="39.93919442877847" lon="18.300882263769587"><ele>123.83333333333334</ele><time>2026-04-03T12:57:57.002Z</time></trkpt><trkpt lat="39.939257881609066" lon="18.30082511587833"><ele>123.66666666666667</ele><time>2026-04-03T12:57:58.002Z</time></trkpt><trkpt lat="39.93932707272076" lon="18.30076875352328"><ele>123.5</ele><time>2026-04-03T12:57:59.002Z</time></trkpt><trkpt lat="39.939400639289744" lon="18.300707061965266"><ele>123.33333333333334</ele><time>2026-04-03T12:58:00.002Z</time></trkpt><trkpt lat="39.93947982559089" lon="18.300636720472674"><ele>123.16666666666667</ele><time>2026-04-03T12:58:01.002Z</time></trkpt><trkpt lat="39.93956110311503" lon="18.30056172146783"><ele>123.0</ele><time>2026-04-03T12:58:02.002Z</time></trkpt><trkpt lat="39.93963924442183" lon="18.300488671760846"><ele>124.16666666666667</ele><time>2026-04-03T12:58:03.002Z</time></trkpt><trkpt lat="39.93971499330001" lon="18.300420331119867"><ele>125.33333333333334</ele><time>2026-04-03T12:58:04.002Z</time></trkpt><trkpt lat="39.93978326003016" lon="18.300357773048905"><ele>126.5</ele><time>2026-04-03T12:58:05.002Z</time></trkpt><trkpt lat="39.93984698198003" lon="18.300296304889354"><ele>127.66666666666667</ele><time>2026-04-03T12:58:06.002Z</time></trkpt><trkpt lat="39.93990704381908" lon="18.300244951858698"><ele>128.83333333333334</ele><time>2026-04-03T12:58:07.002Z</time></trkpt><trkpt lat="39.93993675818457" lon="18.3001624826274"><ele>130.0</ele><time>2026-04-03T12:58:08.002Z</time></trkpt><trkpt lat="39.9400357022981" lon="18.300176740359223"><ele>130.0</ele><time>2026-04-03T12:58:09.002Z</time></trkpt><trkpt lat="39.94010162174526" lon="18.300158574439486"><ele>130.0</ele><time>2026-04-03T12:58:10.002Z</time></trkpt><trkpt lat="39.94016333254887" lon="18.30014156881917"><ele>130.0</ele><time>2026-04-03T12:58:11.002Z</time></trkpt><trkpt lat="39.94027322902386" lon="18.300118119162896"><ele>130.0</ele><time>2026-04-03T12:58:13.002Z</time></trkpt><trkpt lat="39.94036802305157" lon="18.30010383014532"><ele>130.0</ele><time>2026-04-03T12:58:15.002Z</time></trkpt><trkpt lat="39.940449932932786" lon="18.30009237646147"><ele>130.0</ele><time>2026-04-03T12:58:17.002Z</time></trkpt><trkpt lat="39.94052296014934" lon="18.300083757325844"><ele>130.00000000000003</ele><time>2026-04-03T12:58:19.002Z</time></trkpt><trkpt lat="39.94058590882916" lon="18.30007528575237"><ele>130.0</ele><time>2026-04-03T12:58:21.002Z</time></trkpt><trkpt lat="39.940653658322134" lon="18.300064864215937"><ele>130.0</ele><time>2026-04-03T12:58:23.002Z</time></trkpt><trkpt lat="39.9407341535084" lon="18.30005059802706"><ele>130.0</ele><time>2026-04-03T12:58:25.002Z</time></trkpt><trkpt lat="39.94081296512951" lon="18.300021315271927"><ele>130.0</ele><time>2026-04-03T12:58:27.002Z</time></trkpt><trkpt lat="39.940886936121146" lon="18.299984512302405"><ele>130.00000000000003</ele><time>2026-04-03T12:58:29.002Z</time></trkpt><trkpt lat="39.9409507836433" lon="18.299952305943375"><ele>130.0</ele><time>2026-04-03T12:58:31.002Z</time></trkpt><trkpt lat="39.941035661641564" lon="18.299907674804867"><ele>130.66666666666669</ele><time>2026-04-03T12:58:34.002Z</time></trkpt><trkpt lat="39.941120624241684" lon="18.299859664880525"><ele>131.33333333333334</ele><time>2026-04-03T12:58:37.003Z</time></trkpt><trkpt lat="39.94118023115621" lon="18.29982610126664"><ele>132.0</ele><time>2026-04-03T12:58:39.003Z</time></trkpt><trkpt lat="39.941249706123386" lon="18.299796636875545"><ele>132.66666666666666</ele><time>2026-04-03T12:58:41.003Z</time></trkpt><trkpt lat="39.94132142804753" lon="18.299777935325373"><ele>133.33333333333331</ele><time>2026-04-03T12:58:43.003Z</time></trkpt><trkpt lat="39.94140682675603" lon="18.299749847056674"><ele>134.0</ele><time>2026-04-03T12:58:46.003Z</time></trkpt><trkpt lat="39.94145976499838" lon="18.299702413885722"><ele>134.5</ele><time>2026-04-03T12:58:50.003Z</time></trkpt><trkpt lat="39.9415333665153" lon="18.29966162706531"><ele>135.0</ele><time>2026-04-03T12:58:54.001Z</time></trkpt><trkpt lat="39.941600321651826" lon="18.299623238707383"><ele>135.5</ele><time>2026-04-03T12:58:57.001Z</time></trkpt><trkpt lat="39.941678235359504" lon="18.299598697884928"><ele>136.0</ele><time>2026-04-03T12:59:00.001Z</time></trkpt><trkpt lat="39.94175052551347" lon="18.29955117172651"><ele>136.5</ele><time>2026-04-03T12:59:04.001Z</time></trkpt><trkpt lat="39.941829489097024" lon="18.299496550415824"><ele>137.0</ele><time>2026-04-03T12:59:07.001Z</time></trkpt><trkpt lat="39.941885887531846" lon="18.29945818781321"><ele>137.0</ele><time>2026-04-03T12:59:09.001Z</time></trkpt><trkpt lat="39.94196772748802" lon="18.29940403387624"><ele>137.0</ele><time>2026-04-03T12:59:12.001Z</time></trkpt><trkpt lat="39.94202685880399" lon="18.299366035557483"><ele>137.0</ele><time>2026-04-03T12:59:14.001Z</time></trkpt><trkpt lat="39.94210598232531" lon="18.29931570540634"><ele>137.0</ele><time>2026-04-03T12:59:16.001Z</time></trkpt><trkpt lat="39.942194182188594" lon="18.29925903260805"><ele>137.0</ele><time>2026-04-03T12:59:18.001Z</time></trkpt><trkpt lat="39.942287973880255" lon="18.299200592420952"><ele>137.0</ele><time>2026-04-03T12:59:20.001Z</time></trkpt><trkpt lat="39.94238336169423" lon="18.299142590337784"><ele>137.0</ele><time>2026-04-03T12:59:22.001Z</time></trkpt><trkpt lat="39.94248232505273" lon="18.29907552055498"><ele>137.0</ele><time>2026-04-03T12:59:24.001Z</time></trkpt><trkpt lat="39.9425759828898" lon="18.29899826839312"><ele>137.0</ele><time>2026-04-03T12:59:26.001Z</time></trkpt><trkpt lat="39.94266783031413" lon="18.298923355509196"><ele>137.0</ele><time>2026-04-03T12:59:28.001Z</time></trkpt><trkpt lat="39.942761640984536" lon="18.29884860822215"><ele>137.0</ele><time>2026-04-03T12:59:30.001Z</time></trkpt><trkpt lat="39.942855255575864" lon="18.29877790986825"><ele>135.2</ele><time>2026-04-03T12:59:32.001Z</time></trkpt><trkpt lat="39.942946156276925" lon="18.298702740475164"><ele>133.39999999999998</ele><time>2026-04-03T12:59:34.001Z</time></trkpt><trkpt lat="39.94304609315234" lon="18.298652825784778"><ele>131.60000000000002</ele><time>2026-04-03T12:59:36.001Z</time></trkpt><trkpt lat="39.94314192155918" lon="18.298580106951785"><ele>129.8</ele><time>2026-04-03T12:59:38.001Z</time></trkpt><trkpt lat="39.943234070897326" lon="18.298477258000883"><ele>128.0</ele><time>2026-04-03T12:59:40.001Z</time></trkpt><trkpt lat="39.943345713749544" lon="18.29839930919375"><ele>127.28571428571428</ele><time>2026-04-03T12:59:42.001Z</time></trkpt><trkpt lat="39.94340192269911" lon="18.298357649188826"><ele>126.57142857142856</ele><time>2026-04-03T12:59:43.001Z</time></trkpt><trkpt lat="39.94345774734459" lon="18.29831200054994"><ele>125.85714285714286</ele><time>2026-04-03T12:59:44.001Z</time></trkpt><trkpt lat="39.943516096817376" lon="18.298265289056975"><ele>125.14285714285714</ele><time>2026-04-03T12:59:45.001Z</time></trkpt><trkpt lat="39.94357312359674" lon="18.29821651427585"><ele>124.42857142857143</ele><time>2026-04-03T12:59:46.001Z</time></trkpt><trkpt lat="39.94363275633255" lon="18.298166861397824"><ele>123.71428571428572</ele><time>2026-04-03T12:59:47.001Z</time></trkpt><trkpt lat="39.94369252673996" lon="18.298119806363513"><ele>123.00000000000001</ele><time>2026-04-03T12:59:48.001Z</time></trkpt><trkpt lat="39.94375353626962" lon="18.298070146423317"><ele>123.00000000000001</ele><time>2026-04-03T12:59:49.001Z</time></trkpt><trkpt lat="39.94381521775971" lon="18.298019627779528"><ele>123.0</ele><time>2026-04-03T12:59:50.001Z</time></trkpt><trkpt lat="39.94387945036204" lon="18.297971353510302"><ele>123.00000000000001</ele><time>2026-04-03T12:59:51.001Z</time></trkpt><trkpt lat="39.94394225815196" lon="18.297921967783598"><ele>123.00000000000001</ele><time>2026-04-03T12:59:52.001Z</time></trkpt><trkpt lat="39.94400542605448" lon="18.297873972429358"><ele>123.0</ele><time>2026-04-03T12:59:53.001Z</time></trkpt><trkpt lat="39.94406711615935" lon="18.297825471784037"><ele>123.00000000000001</ele><time>2026-04-03T12:59:54.001Z</time></trkpt><trkpt lat="39.944128687470375" lon="18.29777973193543"><ele>123.00000000000001</ele><time>2026-04-03T12:59:55.001Z</time></trkpt><trkpt lat="39.944189435361864" lon="18.297734465476122"><ele>122.2857142857143</ele><time>2026-04-03T12:59:56.001Z</time></trkpt><trkpt lat="39.94424842358817" lon="18.29768871287663"><ele>121.57142857142858</ele><time>2026-04-03T12:59:57.001Z</time></trkpt><trkpt lat="39.94430727360388" lon="18.29764114732541"><ele>120.85714285714286</ele><time>2026-04-03T12:59:58.001Z</time></trkpt><trkpt lat="39.944365124681376" lon="18.297594324293925"><ele>120.14285714285715</ele><time>2026-04-03T12:59:59.001Z</time></trkpt><trkpt lat="39.94442164678868" lon="18.29754915722215"><ele>119.42857142857144</ele><time>2026-04-03T13:00:00.001Z</time></trkpt><trkpt lat="39.94447853597631" lon="18.29750597088005"><ele>118.71428571428571</ele><time>2026-04-03T13:00:01.001Z</time></trkpt><trkpt lat="39.94453625574119" lon="18.29746202412235"><ele>118.0</ele><time>2026-04-03T13:00:02.001Z</time></trkpt><trkpt lat="39.94462549339813" lon="18.297391792180214"><ele>118.00000000000001</ele><time>2026-04-03T13:00:04.001Z</time></trkpt><trkpt lat="39.944682913563284" lon="18.29734733167665"><ele>118.0</ele><time>2026-04-03T13:00:06.002Z</time></trkpt><trkpt lat="39.94473991932465" lon="18.29730462728226"><ele>118.0</ele><time>2026-04-03T13:00:08.002Z</time></trkpt><trkpt lat="39.94484090450103" lon="18.297229077618013"><ele>118.0</ele><time>2026-04-03T13:00:10.002Z</time></trkpt><trkpt lat="39.944897080219235" lon="18.29718461317414"><ele>118.00000000000001</ele><time>2026-04-03T13:00:11.002Z</time></trkpt><trkpt lat="39.944955530522634" lon="18.29713792937854"><ele>118.0</ele><time>2026-04-03T13:00:12.002Z</time></trkpt><trkpt lat="39.94501754765201" lon="18.297091231953075"><ele>117.33333333333334</ele><time>2026-04-03T13:00:13.002Z</time></trkpt><trkpt lat="39.9450817009129" lon="18.29704181740261"><ele>116.66666666666667</ele><time>2026-04-03T13:00:14.002Z</time></trkpt><trkpt lat="39.94514589675998" lon="18.296991426601597"><ele>116.0</ele><time>2026-04-03T13:00:15.002Z</time></trkpt><trkpt lat="39.94520955892698" lon="18.296942629517932"><ele>115.33333333333334</ele><time>2026-04-03T13:00:16.002Z</time></trkpt><trkpt lat="39.94527204317495" lon="18.296894837968146"><ele>114.66666666666667</ele><time>2026-04-03T13:00:17.002Z</time></trkpt><trkpt lat="39.945332430125276" lon="18.296849341405707"><ele>114.0</ele><time>2026-04-03T13:00:18.002Z</time></trkpt><trkpt lat="39.94542751722981" lon="18.296778187489117"><ele>114.0</ele><time>2026-04-03T13:00:20.002Z</time></trkpt><trkpt lat="39.94550789844699" lon="18.296713527462117"><ele>114.0</ele><time>2026-04-03T13:00:22.002Z</time></trkpt><trkpt lat="39.94556872094563" lon="18.296671633473974"><ele>114.0</ele><time>2026-04-03T13:00:23.002Z</time></trkpt><trkpt lat="39.945638529577565" lon="18.2966203374155"><ele>114.0</ele><time>2026-04-03T13:00:24.002Z</time></trkpt><trkpt lat="39.945716911488184" lon="18.296561368056135"><ele>114.0</ele><time>2026-04-03T13:00:25.002Z</time></trkpt><trkpt lat="39.94580472064607" lon="18.296496366250295"><ele>114.0</ele><time>2026-04-03T13:00:26.002Z</time></trkpt><trkpt lat="39.94589813768726" lon="18.29642540200142"><ele>113.4</ele><time>2026-04-03T13:00:27.002Z</time></trkpt><trkpt lat="39.94599339808626" lon="18.2963522176581"><ele>112.80000000000001</ele><time>2026-04-03T13:00:28.002Z</time></trkpt><trkpt lat="39.946081672340796" lon="18.296281937420723"><ele>112.19999999999999</ele><time>2026-04-03T13:00:29.002Z</time></trkpt><trkpt lat="39.94616872748655" lon="18.296214107190504"><ele>111.6</ele><time>2026-04-03T13:00:30.002Z</time></trkpt><trkpt lat="39.946254795818994" lon="18.296146101096554"><ele>111.0</ele><time>2026-04-03T13:00:31.002Z</time></trkpt><trkpt lat="39.946339926053334" lon="18.296077761954443"><ele>111.0</ele><time>2026-04-03T13:00:32.002Z</time></trkpt><trkpt lat="39.94642511813844" lon="18.29601077004093"><ele>111.0</ele><time>2026-04-03T13:00:33.002Z</time></trkpt><trkpt lat="39.9465080723159" lon="18.29594903396407"><ele>111.0</ele><time>2026-04-03T13:00:34.002Z</time></trkpt><trkpt lat="39.946589835566684" lon="18.295887320258974"><ele>111.0</ele><time>2026-04-03T13:00:35.002Z</time></trkpt><trkpt lat="39.94666890442251" lon="18.29582672375713"><ele>111.0</ele><time>2026-04-03T13:00:36.002Z</time></trkpt><trkpt lat="39.94674528416686" lon="18.295769225176993"><ele>110.83333333333333</ele><time>2026-04-03T13:00:37.002Z</time></trkpt><trkpt lat="39.94681978021716" lon="18.29571355321548"><ele>110.66666666666666</ele><time>2026-04-03T13:00:38.002Z</time></trkpt><trkpt lat="39.94688936247326" lon="18.295657752552874"><ele>110.5</ele><time>2026-04-03T13:00:39.002Z</time></trkpt><trkpt lat="39.94694882944312" lon="18.29561009924684"><ele>110.33333333333333</ele><time>2026-04-03T13:00:40.002Z</time></trkpt><trkpt lat="39.94701080985062" lon="18.295554042485048"><ele>110.16666666666666</ele><time>2026-04-03T13:00:41.002Z</time></trkpt><trkpt lat="39.9470810043356" lon="18.295496786347435"><ele>110.0</ele><time>2026-04-03T13:00:42.002Z</time></trkpt><trkpt lat="39.94716709219844" lon="18.29544328695782"><ele>110.0</ele><time>2026-04-03T13:00:43.002Z</time></trkpt><trkpt lat="39.94726305094415" lon="18.295378713192537"><ele>110.0</ele><time>2026-04-03T13:00:44.002Z</time></trkpt><trkpt lat="39.947356347718554" lon="18.29530964473613"><ele>110.0</ele><time>2026-04-03T13:00:45.002Z</time></trkpt><trkpt lat="39.94745275591578" lon="18.295233742833418"><ele>110.0</ele><time>2026-04-03T13:00:46.002Z</time></trkpt><trkpt lat="39.94755399811745" lon="18.295154953175633"><ele>110.0</ele><time>2026-04-03T13:00:47.002Z</time></trkpt><trkpt lat="39.94765418768332" lon="18.295075971870478"><ele>109.49999999999999</ele><time>2026-04-03T13:00:48.002Z</time></trkpt><trkpt lat="39.94774741288528" lon="18.295002609137825"><ele>109.0</ele><time>2026-04-03T13:00:49.002Z</time></trkpt><trkpt lat="39.94783313850383" lon="18.29493712358601"><ele>108.5</ele><time>2026-04-03T13:00:50.002Z</time></trkpt><trkpt lat="39.94790524480963" lon="18.29488531632532"><ele>108.0</ele><time>2026-04-03T13:00:51.002Z</time></trkpt><trkpt lat="39.94797902488724" lon="18.29484694858696"><ele>107.49999999999999</ele><time>2026-04-03T13:00:52.002Z</time></trkpt><trkpt lat="39.94804393314933" lon="18.294831251551596"><ele>107.0</ele><time>2026-04-03T13:00:53.002Z</time></trkpt><trkpt lat="39.94815904106967" lon="18.294843352218653"><ele>107.0</ele><time>2026-04-03T13:00:55.002Z</time></trkpt><trkpt lat="39.94825829592333" lon="18.2948826822343"><ele>106.99999999999999</ele><time>2026-04-03T13:00:57.002Z</time></trkpt><trkpt lat="39.94835365593528" lon="18.294832588147507"><ele>106.99999999999999</ele><time>2026-04-03T13:00:59Z</time></trkpt><trkpt lat="39.948445195427325" lon="18.29471330887449"><ele>107.0</ele><time>2026-04-03T13:01:01Z</time></trkpt><trkpt lat="39.94849601715301" lon="18.294652607289763"><ele>107.0</ele><time>2026-04-03T13:01:02Z</time></trkpt><trkpt lat="39.94854232591677" lon="18.294577203490764"><ele>106.33333333333333</ele><time>2026-04-03T13:01:03Z</time></trkpt><trkpt lat="39.94859629038079" lon="18.29450778441646"><ele>105.66666666666666</ele><time>2026-04-03T13:01:04Z</time></trkpt><trkpt lat="39.948696002498" lon="18.294486709048723"><ele>105.0</ele><time>2026-04-03T13:01:05Z</time></trkpt><trkpt lat="39.94877537531954" lon="18.29443122658379"><ele>104.33333333333334</ele><time>2026-04-03T13:01:06Z</time></trkpt><trkpt lat="39.94885279457699" lon="18.294377695235326"><ele>103.66666666666667</ele><time>2026-04-03T13:01:07Z</time></trkpt><trkpt lat="39.948932204748616" lon="18.294332799805723"><ele>103.0</ele><time>2026-04-03T13:01:08Z</time></trkpt><trkpt lat="39.949012088011365" lon="18.29429616422716"><ele>103.00000000000001</ele><time>2026-04-03T13:01:09Z</time></trkpt><trkpt lat="39.94909040801762" lon="18.294266896474277"><ele>103.0</ele><time>2026-04-03T13:01:10Z</time></trkpt><trkpt lat="39.94916847872603" lon="18.294243622702005"><ele>103.0</ele><time>2026-04-03T13:01:11Z</time></trkpt><trkpt lat="39.94924862799809" lon="18.294218715053173"><ele>103.0</ele><time>2026-04-03T13:01:12Z</time></trkpt><trkpt lat="39.94932719454369" lon="18.29419171095528"><ele>103.00000000000001</ele><time>2026-04-03T13:01:13Z</time></trkpt><trkpt lat="39.94940378057813" lon="18.29416399843395"><ele>103.0</ele><time>2026-04-03T13:01:14Z</time></trkpt><trkpt lat="39.9494775069939" lon="18.2941602764367"><ele>102.66666666666667</ele><time>2026-04-03T13:01:15Z</time></trkpt><trkpt lat="39.94954337011159" lon="18.294141089269512"><ele>102.33333333333334</ele><time>2026-04-03T13:01:16Z</time></trkpt><trkpt lat="39.94960801252439" lon="18.294122257687597"><ele>102.0</ele><time>2026-04-03T13:01:17Z</time></trkpt><trkpt lat="39.949670952873305" lon="18.294103921918836"><ele>101.66666666666666</ele><time>2026-04-03T13:01:18.001Z</time></trkpt><trkpt lat="39.949732463697714" lon="18.29408387513902"><ele>101.33333333333333</ele><time>2026-04-03T13:01:19.001Z</time></trkpt><trkpt lat="39.94985189514952" lon="18.29403654432338"><ele>101.0</ele><time>2026-04-03T13:01:21.001Z</time></trkpt><trkpt lat="39.949928835515216" lon="18.294013137302706"><ele>101.0</ele><time>2026-04-03T13:01:22.001Z</time></trkpt><trkpt lat="39.95001895522649" lon="18.29398813695716"><ele>101.0</ele><time>2026-04-03T13:01:23.001Z</time></trkpt><trkpt lat="39.95011767133705" lon="18.2939559404479"><ele>101.0</ele><time>2026-04-03T13:01:24.001Z</time></trkpt><trkpt lat="39.95022627835977" lon="18.29391467751621"><ele>101.0</ele><time>2026-04-03T13:01:25.001Z</time></trkpt><trkpt lat="39.950340908779324" lon="18.293867744582776"><ele>101.0</ele><time>2026-04-03T13:01:26.001Z</time></trkpt><trkpt lat="39.950452057005315" lon="18.293818074807906"><ele>100.5</ele><time>2026-04-03T13:01:27.001Z</time></trkpt><trkpt lat="39.95056305044146" lon="18.293768742579722"><ele>100.0</ele><time>2026-04-03T13:01:28.001Z</time></trkpt><trkpt lat="39.95067254323417" lon="18.293719833961298"><ele>99.5</ele><time>2026-04-03T13:01:29.001Z</time></trkpt><trkpt lat="39.950779542382634" lon="18.293671640913647"><ele>99.0</ele><time>2026-04-03T13:01:30.001Z</time></trkpt><trkpt lat="39.95088024652192" lon="18.293626436469516"><ele>99.0</ele><time>2026-04-03T13:01:31.001Z</time></trkpt><trkpt lat="39.9509761547944" lon="18.293582347009504"><ele>99.0</ele><time>2026-04-03T13:01:32.001Z</time></trkpt><trkpt lat="39.95107111651303" lon="18.293537564961948"><ele>99.0</ele><time>2026-04-03T13:01:33.001Z</time></trkpt><trkpt lat="39.95116631811784" lon="18.293494428255105"><ele>99.0</ele><time>2026-04-03T13:01:34.001Z</time></trkpt><trkpt lat="39.951263059887765" lon="18.293451691916115"><ele>99.0</ele><time>2026-04-03T13:01:35.001Z</time></trkpt><trkpt lat="39.95136037342913" lon="18.293409003402225"><ele>99.0</ele><time>2026-04-03T13:01:36.001Z</time></trkpt><trkpt lat="39.951458230841766" lon="18.293366283107144"><ele>99.0</ele><time>2026-04-03T13:01:37.001Z</time></trkpt><trkpt lat="39.95155153702802" lon="18.293318375432314"><ele>99.0</ele><time>2026-04-03T13:01:38.001Z</time></trkpt><trkpt lat="39.95164060302367" lon="18.293270497369765"><ele>99.0</ele><time>2026-04-03T13:01:39.001Z</time></trkpt><trkpt lat="39.95172948100423" lon="18.293224606751053"><ele>99.0</ele><time>2026-04-03T13:01:40.001Z</time></trkpt><trkpt lat="39.951814451831545" lon="18.29317295666422"><ele>98.5</ele><time>2026-04-03T13:01:41.001Z</time></trkpt><trkpt lat="39.951982794867334" lon="18.293041603347774"><ele>98.0</ele><time>2026-04-03T13:01:43.001Z</time></trkpt><trkpt lat="39.95206684476609" lon="18.292972466165224"><ele>97.5</ele><time>2026-04-03T13:01:44.001Z</time></trkpt><trkpt lat="39.95214893979981" lon="18.2929061734251"><ele>97.0</ele><time>2026-04-03T13:01:45.001Z</time></trkpt><trkpt lat="39.9522345543406" lon="18.29284423148619"><ele>97.0</ele><time>2026-04-03T13:01:46.001Z</time></trkpt><trkpt lat="39.952327427371465" lon="18.292793237639675"><ele>97.0</ele><time>2026-04-03T13:01:47.001Z</time></trkpt><trkpt lat="39.95243214750764" lon="18.292748772970597"><ele>97.0</ele><time>2026-04-03T13:01:48.001Z</time></trkpt><trkpt lat="39.952545092605774" lon="18.292710550493492"><ele>97.0</ele><time>2026-04-03T13:01:49.001Z</time></trkpt><trkpt lat="39.95266137083626" lon="18.292672935113828"><ele>97.0</ele><time>2026-04-03T13:01:50.001Z</time></trkpt><trkpt lat="39.952782815673494" lon="18.292634593580477"><ele>96.75</ele><time>2026-04-03T13:01:51.001Z</time></trkpt><trkpt lat="39.95290545291708" lon="18.292597916202393"><ele>96.5</ele><time>2026-04-03T13:01:52.001Z</time></trkpt><trkpt lat="39.95302809447752" lon="18.292560923559783"><ele>96.25</ele><time>2026-04-03T13:01:53.001Z</time></trkpt><trkpt lat="39.9531514935688" lon="18.292522176815076"><ele>96.0</ele><time>2026-04-03T13:01:54.001Z</time></trkpt><trkpt lat="39.95327113483411" lon="18.292479349533068"><ele>96.25</ele><time>2026-04-03T13:01:55.001Z</time></trkpt><trkpt lat="39.95338864554342" lon="18.292432022899263"><ele>96.5</ele><time>2026-04-03T13:01:56.001Z</time></trkpt><trkpt lat="39.95350390387731" lon="18.292376879280294"><ele>96.75</ele><time>2026-04-03T13:01:57.001Z</time></trkpt><trkpt lat="39.953618941255556" lon="18.29231795743583"><ele>97.0</ele><time>2026-04-03T13:01:58.001Z</time></trkpt><trkpt lat="39.95373438750309" lon="18.29225646273346"><ele>97.0</ele><time>2026-04-03T13:01:59.001Z</time></trkpt><trkpt lat="39.95385242172921" lon="18.292198116992516"><ele>97.0</ele><time>2026-04-03T13:02:00.001Z</time></trkpt><trkpt lat="39.953971726920756" lon="18.292138187390318"><ele>97.0</ele><time>2026-04-03T13:02:01.001Z</time></trkpt><trkpt lat="39.95409167260632" lon="18.292079126520516"><ele>97.0</ele><time>2026-04-03T13:02:02.001Z</time></trkpt><trkpt lat="39.95421432323472" lon="18.292021500499526"><ele>97.0</ele><time>2026-04-03T13:02:03.001Z</time></trkpt><trkpt lat="39.95433398216513" lon="18.2919646352373"><ele>97.0</ele><time>2026-04-03T13:02:04.001Z</time></trkpt><trkpt lat="39.954450636531924" lon="18.291908870256044"><ele>97.0</ele><time>2026-04-03T13:02:05.001Z</time></trkpt><trkpt lat="39.954568927596284" lon="18.29186645287195"><ele>97.0</ele><time>2026-04-03T13:02:06.001Z</time></trkpt><trkpt lat="39.95469249978901" lon="18.29183659912314"><ele>97.0</ele><time>2026-04-03T13:02:07.001Z</time></trkpt><trkpt lat="39.95482039308372" lon="18.291804014974492"><ele>97.0</ele><time>2026-04-03T13:02:08.001Z</time></trkpt><trkpt lat="39.954948648178046" lon="18.29176970302561"><ele>97.0</ele><time>2026-04-03T13:02:09.001Z</time></trkpt><trkpt lat="39.955080902127044" lon="18.291733165435772"><ele>97.0</ele><time>2026-04-03T13:02:10.001Z</time></trkpt><trkpt lat="39.9552151925785" lon="18.291697675216817"><ele>97.5</ele><time>2026-04-03T13:02:11.001Z</time></trkpt><trkpt lat="39.955352949736735" lon="18.29166164434691"><ele>98.0</ele><time>2026-04-03T13:02:12.001Z</time></trkpt><trkpt lat="39.95549328676031" lon="18.2916248684749"><ele>98.5</ele><time>2026-04-03T13:02:13.001Z</time></trkpt><trkpt lat="39.955636141426446" lon="18.291589925744717"><ele>99.0</ele><time>2026-04-03T13:02:14.001Z</time></trkpt><trkpt lat="39.955781204918736" lon="18.291555580311012"><ele>98.33333333333334</ele><time>2026-04-03T13:02:15.001Z</time></trkpt><trkpt lat="39.95592922934974" lon="18.291522841506527"><ele>97.66666666666667</ele><time>2026-04-03T13:02:16.001Z</time></trkpt><trkpt lat="39.95607881475139" lon="18.291490185867104"><ele>97.0</ele><time>2026-04-03T13:02:17.002Z</time></trkpt><trkpt lat="39.95623099869541" lon="18.291458618099714"><ele>97.0</ele><time>2026-04-03T13:02:18.002Z</time></trkpt><trkpt lat="39.95638452335028" lon="18.29142523798135"><ele>97.0</ele><time>2026-04-03T13:02:19.002Z</time></trkpt><trkpt lat="39.95653916433474" lon="18.291388892163432"><ele>97.0</ele><time>2026-04-03T13:02:20.002Z</time></trkpt><trkpt lat="39.95669568196402" lon="18.29134863470187"><ele>98.0</ele><time>2026-04-03T13:02:21.002Z</time></trkpt><trkpt lat="39.95685258315" lon="18.291304531651562"><ele>99.0</ele><time>2026-04-03T13:02:22.002Z</time></trkpt><trkpt lat="39.95701003090672" lon="18.29125708704234"><ele>100.0</ele><time>2026-04-03T13:02:23.002Z</time></trkpt><trkpt lat="39.957162668305976" lon="18.291209580817693"><ele>100.0</ele><time>2026-04-03T13:02:24.002Z</time></trkpt><trkpt lat="39.95730563789018" lon="18.291163498789466"><ele>100.0</ele><time>2026-04-03T13:02:25.002Z</time></trkpt><trkpt lat="39.95744235464078" lon="18.291118088733356"><ele>100.0</ele><time>2026-04-03T13:02:26.002Z</time></trkpt><trkpt lat="39.957572582427304" lon="18.291074496134343"><ele>100.0</ele><time>2026-04-03T13:02:27.002Z</time></trkpt><trkpt lat="39.95769118784327" lon="18.291031444911418"><ele>100.33333333333334</ele><time>2026-04-03T13:02:28.002Z</time></trkpt><trkpt lat="39.95779773879003" lon="18.29099078035663"><ele>100.66666666666667</ele><time>2026-04-03T13:02:29.002Z</time></trkpt><trkpt lat="39.957891156070424" lon="18.29095414705727"><ele>101.0</ele><time>2026-04-03T13:02:30.002Z</time></trkpt><trkpt lat="39.957973836805444" lon="18.290923599928902"><ele>101.33333333333334</ele><time>2026-04-03T13:02:31.002Z</time></trkpt><trkpt lat="39.958037526665585" lon="18.290901386778447"><ele>101.66666666666667</ele><time>2026-04-03T13:02:32.002Z</time></trkpt><trkpt lat="39.958112013769906" lon="18.290876764724864"><ele>102.0</ele><time>2026-04-03T13:02:34.002Z</time></trkpt><trkpt lat="39.95818518734376" lon="18.29085001190911"><ele>102.0</ele><time>2026-04-03T13:02:49.002Z</time></trkpt><trkpt lat="39.95825772724474" lon="18.290831067055247"><ele>102.0</ele><time>2026-04-03T13:02:51.002Z</time></trkpt><trkpt lat="39.95836553209875" lon="18.290800455495695"><ele>102.0</ele><time>2026-04-03T13:02:53.002Z</time></trkpt><trkpt lat="39.95842793347637" lon="18.290781088540935"><ele>102.0</ele><time>2026-04-03T13:02:54.002Z</time></trkpt><trkpt lat="39.95849604904656" lon="18.29075953798584"><ele>102.0</ele><time>2026-04-03T13:02:55.002Z</time></trkpt><trkpt lat="39.95856178707545" lon="18.29073694009317"><ele>102.0</ele><time>2026-04-03T13:02:56.002Z</time></trkpt><trkpt lat="39.95862948034134" lon="18.29071405479092"><ele>102.0</ele><time>2026-04-03T13:02:57.002Z</time></trkpt><trkpt lat="39.95870636739935" lon="18.290689888153132"><ele>102.0</ele><time>2026-04-03T13:02:58.002Z</time></trkpt><trkpt lat="39.95879096409278" lon="18.29066598639286"><ele>102.0</ele><time>2026-04-03T13:02:59.002Z</time></trkpt><trkpt lat="39.958886064813484" lon="18.290644088621914"><ele>102.0</ele><time>2026-04-03T13:03:00.002Z</time></trkpt><trkpt lat="39.958986457394495" lon="18.29062577450509"><ele>102.0</ele><time>2026-04-03T13:03:01.002Z</time></trkpt><trkpt lat="39.959082813177616" lon="18.290610612607953"><ele>102.0</ele><time>2026-04-03T13:03:02.002Z</time></trkpt><trkpt lat="39.959179601108744" lon="18.290590936903293"><ele>102.0</ele><time>2026-04-03T13:03:03.002Z</time></trkpt><trkpt lat="39.95927893421525" lon="18.29055730654967"><ele>102.0</ele><time>2026-04-03T13:03:04.002Z</time></trkpt><trkpt lat="39.959387294780804" lon="18.2905092565701"><ele>102.0</ele><time>2026-04-03T13:03:05Z</time></trkpt><trkpt lat="39.95950406408378" lon="18.29044551999917"><ele>102.0</ele><time>2026-04-03T13:03:06Z</time></trkpt><trkpt lat="39.95961974638586" lon="18.2903789134578"><ele>102.0</ele><time>2026-04-03T13:03:07Z</time></trkpt><trkpt lat="39.95973826683877" lon="18.290313401436705"><ele>102.0</ele><time>2026-04-03T13:03:08Z</time></trkpt><trkpt lat="39.95986518388241" lon="18.290247785931378"><ele>102.0</ele><time>2026-04-03T13:03:09Z</time></trkpt><trkpt lat="39.95999869048034" lon="18.290179376038378"><ele>102.0</ele><time>2026-04-03T13:03:10Z</time></trkpt><trkpt lat="39.96013840015493" lon="18.290109424982408"><ele>102.0</ele><time>2026-04-03T13:03:11Z</time></trkpt><trkpt lat="39.96028270848161" lon="18.290039712298203"><ele>102.0</ele><time>2026-04-03T13:03:12Z</time></trkpt><trkpt lat="39.960422401401594" lon="18.289967771592362"><ele>102.0</ele><time>2026-04-03T13:03:13Z</time></trkpt><trkpt lat="39.96056175390549" lon="18.289895506483287"><ele>102.0</ele><time>2026-04-03T13:03:14Z</time></trkpt><trkpt lat="39.96070305174514" lon="18.28981769834651"><ele>102.0</ele><time>2026-04-03T13:03:15Z</time></trkpt><trkpt lat="39.960848380802595" lon="18.289735539381663"><ele>102.0</ele><time>2026-04-03T13:03:16Z</time></trkpt><trkpt lat="39.96099635935832" lon="18.289652727389424"><ele>102.0</ele><time>2026-04-03T13:03:17Z</time></trkpt><trkpt lat="39.96114737496982" lon="18.289567161639184"><ele>102.0</ele><time>2026-04-03T13:03:18Z</time></trkpt><trkpt lat="39.96130278465113" lon="18.289483319738718"><ele>102.0</ele><time>2026-04-03T13:03:19Z</time></trkpt><trkpt lat="39.96145736373813" lon="18.28939806208802"><ele>102.0</ele><time>2026-04-03T13:03:20Z</time></trkpt><trkpt lat="39.961607023657706" lon="18.28931658042924"><ele>102.0</ele><time>2026-04-03T13:03:21Z</time></trkpt><trkpt lat="39.961752622071636" lon="18.28923758005349"><ele>102.0</ele><time>2026-04-03T13:03:22Z</time></trkpt><trkpt lat="39.96189227083125" lon="18.28916016191812"><ele>102.5</ele><time>2026-04-03T13:03:23Z</time></trkpt><trkpt lat="39.96202175459018" lon="18.28908908895991"><ele>103.0</ele><time>2026-04-03T13:03:24Z</time></trkpt><trkpt lat="39.962137957499344" lon="18.28902400393726"><ele>103.5</ele><time>2026-04-03T13:03:25Z</time></trkpt><trkpt lat="39.96224266981421" lon="18.288964320030672"><ele>104.0</ele><time>2026-04-03T13:03:26Z</time></trkpt><trkpt lat="39.962347065064236" lon="18.288903374617092"><ele>104.25</ele><time>2026-04-03T13:03:27Z</time></trkpt><trkpt lat="39.96245559579534" lon="18.288841662452473"><ele>104.5</ele><time>2026-04-03T13:03:28Z</time></trkpt><trkpt lat="39.96256386561529" lon="18.28877387236996"><ele>104.75</ele><time>2026-04-03T13:03:29Z</time></trkpt><trkpt lat="39.962671742679085" lon="18.28870236435197"><ele>105.0</ele><time>2026-04-03T13:03:30.001Z</time></trkpt><trkpt lat="39.96278274355546" lon="18.288629012651455"><ele>104.25</ele><time>2026-04-03T13:03:31.001Z</time></trkpt><trkpt lat="39.962900039470355" lon="18.28855505993385"><ele>103.5</ele><time>2026-04-03T13:03:32.001Z</time></trkpt><trkpt lat="39.96302312142229" lon="18.288485152716127"><ele>102.75</ele><time>2026-04-03T13:03:33.001Z</time></trkpt><trkpt lat="39.963149933354465" lon="18.288436718089304"><ele>102.0</ele><time>2026-04-03T13:03:34.001Z</time></trkpt><trkpt lat="39.96327469273507" lon="18.288400265388873"><ele>102.16666666666667</ele><time>2026-04-03T13:03:35.001Z</time></trkpt><trkpt lat="39.96338835098066" lon="18.288367919056878"><ele>102.33333333333334</ele><time>2026-04-03T13:03:36.001Z</time></trkpt><trkpt lat="39.96348772739273" lon="18.2883388450371"><ele>102.5</ele><time>2026-04-03T13:03:37.001Z</time></trkpt><trkpt lat="39.96356356377259" lon="18.288313759479443"><ele>102.66666666666667</ele><time>2026-04-03T13:03:38.001Z</time></trkpt><trkpt lat="39.96364741497367" lon="18.28830368990213"><ele>102.83333333333334</ele><time>2026-04-03T13:03:40.001Z</time></trkpt><trkpt lat="39.963704366856646" lon="18.288258023501527"><ele>103.0</ele><time>2026-04-03T13:03:56.001Z</time></trkpt><trkpt lat="39.963738401697164" lon="18.28816705884795"><ele>103.33333333333334</ele><time>2026-04-03T13:03:59.001Z</time></trkpt><trkpt lat="39.963709548679404" lon="18.288064004758194"><ele>103.66666666666667</ele><time>2026-04-03T13:04:00.001Z</time></trkpt><trkpt lat="39.9637052103675" lon="18.287916950568885"><ele>104.0</ele><time>2026-04-03T13:04:02.001Z</time></trkpt><trkpt lat="39.963699864978175" lon="18.28783288446201"><ele>104.33333333333334</ele><time>2026-04-03T13:04:03.001Z</time></trkpt><trkpt lat="39.96369188662638" lon="18.287740160710772"><ele>104.66666666666667</ele><time>2026-04-03T13:04:04.001Z</time></trkpt><trkpt lat="39.96368421462467" lon="18.287637536837344"><ele>105.0</ele><time>2026-04-03T13:04:05.001Z</time></trkpt><trkpt lat="39.963677075657166" lon="18.28753337333164"><ele>105.0</ele><time>2026-04-03T13:04:06.001Z</time></trkpt><trkpt lat="39.96366946997529" lon="18.28743220734571"><ele>105.0</ele><time>2026-04-03T13:04:07.001Z</time></trkpt><trkpt lat="39.96366344004755" lon="18.287336898150862"><ele>105.0</ele><time>2026-04-03T13:04:08.001Z</time></trkpt><trkpt lat="39.963656082323226" lon="18.28724497750386"><ele>105.0</ele><time>2026-04-03T13:04:09.001Z</time></trkpt><trkpt lat="39.9636486749152" lon="18.287155604600507"><ele>105.0</ele><time>2026-04-03T13:04:10.001Z</time></trkpt><trkpt lat="39.96364041739057" lon="18.287054328145825"><ele>105.0</ele><time>2026-04-03T13:04:11.001Z</time></trkpt><trkpt lat="39.96363240276648" lon="18.2869393408129"><ele>105.0</ele><time>2026-04-03T13:04:12.001Z</time></trkpt><trkpt lat="39.963624587721085" lon="18.286815493026026"><ele>105.0</ele><time>2026-04-03T13:04:13.001Z</time></trkpt><trkpt lat="39.96361597854588" lon="18.286683257165006"><ele>105.0</ele><time>2026-04-03T13:04:14.001Z</time></trkpt><trkpt lat="39.96360617200695" lon="18.286543834702798"><ele>105.0</ele><time>2026-04-03T13:04:15.001Z</time></trkpt><trkpt lat="39.96359497197712" lon="18.28640130213845"><ele>105.0</ele><time>2026-04-03T13:04:16.001Z</time></trkpt><trkpt lat="39.9635830788763" lon="18.286257232700642"><ele>105.0</ele><time>2026-04-03T13:04:17.001Z</time></trkpt><trkpt lat="39.96357318318535" lon="18.28611327264763"><ele>105.0</ele><time>2026-04-03T13:04:18.001Z</time></trkpt><trkpt lat="39.963563119905814" lon="18.285969350575268"><ele>105.0</ele><time>2026-04-03T13:04:19.001Z</time></trkpt><trkpt lat="39.963551480211855" lon="18.285825875976073"><ele>105.0</ele><time>2026-04-03T13:04:20.001Z</time></trkpt><trkpt lat="39.96354034762383" lon="18.28567879484129"><ele>105.0</ele><time>2026-04-03T13:04:21.001Z</time></trkpt><trkpt lat="39.96352858967351" lon="18.28552942981482"><ele>105.25</ele><time>2026-04-03T13:04:22.001Z</time></trkpt><trkpt lat="39.96351607479736" lon="18.28537778292935"><ele>105.5</ele><time>2026-04-03T13:04:23.001Z</time></trkpt><trkpt lat="39.96350379163652" lon="18.28522066614388"><ele>105.75</ele><time>2026-04-03T13:04:24.001Z</time></trkpt><trkpt lat="39.96349290382998" lon="18.285061507990193"><ele>106.0</ele><time>2026-04-03T13:04:25.001Z</time></trkpt><trkpt lat="39.96348066589626" lon="18.28490310851963"><ele>106.25</ele><time>2026-04-03T13:04:26.001Z</time></trkpt><trkpt lat="39.96346927052601" lon="18.284739893146412"><ele>106.5</ele><time>2026-04-03T13:04:27.002Z</time></trkpt><trkpt lat="39.96345718188649" lon="18.284571291723324"><ele>106.75</ele><time>2026-04-03T13:04:28.002Z</time></trkpt><trkpt lat="39.9634457597916" lon="18.284396737699403"><ele>107.0</ele><time>2026-04-03T13:04:29.002Z</time></trkpt><trkpt lat="39.963434156762034" lon="18.284219031521257"><ele>107.0</ele><time>2026-04-03T13:04:30.002Z</time></trkpt><trkpt lat="39.96342148665099" lon="18.28403880899336"><ele>107.0</ele><time>2026-04-03T13:04:31.002Z</time></trkpt><trkpt lat="39.9634052533053" lon="18.283851765417296"><ele>107.0</ele><time>2026-04-03T13:04:32.002Z</time></trkpt><trkpt lat="39.96338851749882" lon="18.28365705627563"><ele>107.0</ele><time>2026-04-03T13:04:33.002Z</time></trkpt><trkpt lat="39.96337445457503" lon="18.283455289797992"><ele>108.0</ele><time>2026-04-03T13:04:34.002Z</time></trkpt><trkpt lat="39.96336205032799" lon="18.283249633043898"><ele>109.0</ele><time>2026-04-03T13:04:35.002Z</time></trkpt><trkpt lat="39.963349748207534" lon="18.283037872251885"><ele>110.0</ele><time>2026-04-03T13:04:36.002Z</time></trkpt><trkpt lat="39.96333379131966" lon="18.28282241048688"><ele>110.66666666666666</ele><time>2026-04-03T13:04:37.002Z</time></trkpt><trkpt lat="39.963316885224266" lon="18.282604183120316"><ele>111.33333333333334</ele><time>2026-04-03T13:04:38.002Z</time></trkpt><trkpt lat="39.96329955994635" lon="18.282383264622975"><ele>112.0</ele><time>2026-04-03T13:04:39.002Z</time></trkpt><trkpt lat="39.96328451749996" lon="18.282156412703515"><ele>112.66666666666667</ele><time>2026-04-03T13:04:40.002Z</time></trkpt><trkpt lat="39.96326734379598" lon="18.281926739357104"><ele>113.33333333333334</ele><time>2026-04-03T13:04:41.002Z</time></trkpt><trkpt lat="39.96324899082446" lon="18.281692481335423"><ele>114.0</ele><time>2026-04-03T13:04:42.002Z</time></trkpt><trkpt lat="39.963230375215005" lon="18.28145569667291"><ele>114.0</ele><time>2026-04-03T13:04:43.002Z</time></trkpt><trkpt lat="39.96321281354173" lon="18.2812157567119"><ele>114.0</ele><time>2026-04-03T13:04:44.002Z</time></trkpt><trkpt lat="39.96319462278085" lon="18.280975101528554"><ele>114.0</ele><time>2026-04-03T13:04:45.002Z</time></trkpt><trkpt lat="39.96317486133396" lon="18.28074263813494"><ele>114.66666666666666</ele><time>2026-04-03T13:04:46.002Z</time></trkpt><trkpt lat="39.96315550482818" lon="18.280516175023337"><ele>115.33333333333333</ele><time>2026-04-03T13:04:47.002Z</time></trkpt><trkpt lat="39.96313942563162" lon="18.28029062564228"><ele>116.0</ele><time>2026-04-03T13:04:48.002Z</time></trkpt><trkpt lat="39.963123831892" lon="18.280064743557347"><ele>116.0</ele><time>2026-04-03T13:04:49.002Z</time></trkpt><trkpt lat="39.96310704556641" lon="18.279837200354724"><ele>116.0</ele><time>2026-04-03T13:04:50.002Z</time></trkpt><trkpt lat="39.963091028747414" lon="18.279607639735023"><ele>116.0</ele><time>2026-04-03T13:04:51.002Z</time></trkpt><trkpt lat="39.963073017045076" lon="18.279372182652914"><ele>116.33333333333333</ele><time>2026-04-03T13:04:52.002Z</time></trkpt><trkpt lat="39.96305660306283" lon="18.279139876961402"><ele>116.66666666666666</ele><time>2026-04-03T13:04:53.002Z</time></trkpt><trkpt lat="39.96303851414957" lon="18.2789095636703"><ele>117.0</ele><time>2026-04-03T13:04:54.002Z</time></trkpt><trkpt lat="39.963021070857764" lon="18.278680165644722"><ele>117.0</ele><time>2026-04-03T13:04:55.002Z</time></trkpt><trkpt lat="39.96300358288473" lon="18.27845338291038"><ele>117.0</ele><time>2026-04-03T13:04:56.002Z</time></trkpt><trkpt lat="39.96298627374242" lon="18.2782288610198"><ele>117.0</ele><time>2026-04-03T13:04:57.002Z</time></trkpt><trkpt lat="39.962967546937165" lon="18.27800408856016"><ele>117.66666666666666</ele><time>2026-04-03T13:04:58.002Z</time></trkpt><trkpt lat="39.96294902724859" lon="18.27777304963312"><ele>118.33333333333333</ele><time>2026-04-03T13:04:59.002Z</time></trkpt><trkpt lat="39.96293254740387" lon="18.277532275499322"><ele>119.0</ele><time>2026-04-03T13:05:00.002Z</time></trkpt><trkpt lat="39.96291792377132" lon="18.27728524445407"><ele>119.0</ele><time>2026-04-03T13:05:01.002Z</time></trkpt><trkpt lat="39.96290053080645" lon="18.277041437307922"><ele>119.0</ele><time>2026-04-03T13:05:02.002Z</time></trkpt><trkpt lat="39.96288178324558" lon="18.276796185010756"><ele>119.0</ele><time>2026-04-03T13:05:03.002Z</time></trkpt><trkpt lat="39.96286296601902" lon="18.276547096068636"><ele>118.66666666666666</ele><time>2026-04-03T13:05:04.002Z</time></trkpt><trkpt lat="39.9628432925235" lon="18.276293004611954"><ele>118.33333333333334</ele><time>2026-04-03T13:05:05.002Z</time></trkpt><trkpt lat="39.962825551327306" lon="18.276035695758278"><ele>118.0</ele><time>2026-04-03T13:05:06.002Z</time></trkpt><trkpt lat="39.962807996961025" lon="18.275774708211127"><ele>118.66666666666667</ele><time>2026-04-03T13:05:07.002Z</time></trkpt><trkpt lat="39.9627861931202" lon="18.27551558177234"><ele>119.33333333333334</ele><time>2026-04-03T13:05:08.002Z</time></trkpt><trkpt lat="39.962764945750656" lon="18.27524997532767"><ele>120.0</ele><time>2026-04-03T13:05:09.002Z</time></trkpt><trkpt lat="39.962746162278115" lon="18.2749851874542"><ele>120.66666666666666</ele><time>2026-04-03T13:05:10.002Z</time></trkpt><trkpt lat="39.96272790255698" lon="18.274722827297747"><ele>121.33333333333333</ele><time>2026-04-03T13:05:11Z</time></trkpt><trkpt lat="39.96270975459277" lon="18.274466819494442"><ele>122.0</ele><time>2026-04-03T13:05:12Z</time></trkpt><trkpt lat="39.96268953708809" lon="18.27421442998543"><ele>122.0</ele><time>2026-04-03T13:05:13Z</time></trkpt><trkpt lat="39.9626682282372" lon="18.273963124170567"><ele>122.0</ele><time>2026-04-03T13:05:14Z</time></trkpt><trkpt lat="39.96264896257708" lon="18.273707765386607"><ele>122.0</ele><time>2026-04-03T13:05:15Z</time></trkpt><trkpt lat="39.962631023363286" lon="18.273444430778774"><ele>122.33333333333333</ele><time>2026-04-03T13:05:16Z</time></trkpt><trkpt lat="39.96261203797439" lon="18.273172195578038"><ele>122.66666666666666</ele><time>2026-04-03T13:05:17Z</time></trkpt><trkpt lat="39.96259169214304" lon="18.27289184145171"><ele>123.0</ele><time>2026-04-03T13:05:18Z</time></trkpt><trkpt lat="39.9625718236854" lon="18.272604075982382"><ele>123.66666666666666</ele><time>2026-04-03T13:05:19Z</time></trkpt><trkpt lat="39.9625516606948" lon="18.272315412260518"><ele>124.33333333333333</ele><time>2026-04-03T13:05:20Z</time></trkpt><trkpt lat="39.96252807700171" lon="18.272031763542532"><ele>125.0</ele><time>2026-04-03T13:05:21Z</time></trkpt><trkpt lat="39.962503549494606" lon="18.271754063660367"><ele>125.33333333333333</ele><time>2026-04-03T13:05:22Z</time></trkpt><trkpt lat="39.962480111337804" lon="18.271481070566253"><ele>125.66666666666666</ele><time>2026-04-03T13:05:23Z</time></trkpt><trkpt lat="39.962460452447" lon="18.271212133492256"><ele>126.0</ele><time>2026-04-03T13:05:24Z</time></trkpt><trkpt lat="39.96244288896413" lon="18.270950493587083"><ele>125.33333333333334</ele><time>2026-04-03T13:05:25Z</time></trkpt><trkpt lat="39.96242438858647" lon="18.27069537741625"><ele>124.66666666666667</ele><time>2026-04-03T13:05:26Z</time></trkpt><trkpt lat="39.962404732389196" lon="18.270447842464097"><ele>124.0</ele><time>2026-04-03T13:05:27Z</time></trkpt><trkpt lat="39.9623863843572" lon="18.270206072312536"><ele>124.0</ele><time>2026-04-03T13:05:28Z</time></trkpt><trkpt lat="39.96236905248579" lon="18.26996785267228"><ele>124.0</ele><time>2026-04-03T13:05:29Z</time></trkpt><trkpt lat="39.96235113279734" lon="18.269735244476852"><ele>124.0</ele><time>2026-04-03T13:05:30Z</time></trkpt><trkpt lat="39.96233252520556" lon="18.269514639588923"><ele>124.33333333333334</ele><time>2026-04-03T13:05:31Z</time></trkpt><trkpt lat="39.96231556266398" lon="18.269298776566863"><ele>124.66666666666666</ele><time>2026-04-03T13:05:32Z</time></trkpt><trkpt lat="39.96229920394871" lon="18.269081256606096"><ele>125.0</ele><time>2026-04-03T13:05:33Z</time></trkpt><trkpt lat="39.962284546518255" lon="18.26885698063184"><ele>125.0</ele><time>2026-04-03T13:05:34Z</time></trkpt><trkpt lat="39.9622677609222" lon="18.268624081542136"><ele>125.0</ele><time>2026-04-03T13:05:35Z</time></trkpt><trkpt lat="39.96225188528406" lon="18.268384993423723"><ele>125.0</ele><time>2026-04-03T13:05:36Z</time></trkpt><trkpt lat="39.962233974772964" lon="18.26813678639551"><ele>124.66666666666666</ele><time>2026-04-03T13:05:37Z</time></trkpt><trkpt lat="39.96221105660174" lon="18.26788073731365"><ele>124.33333333333334</ele><time>2026-04-03T13:05:38Z</time></trkpt><trkpt lat="39.9621877997395" lon="18.267613611810575"><ele>124.0</ele><time>2026-04-03T13:05:39Z</time></trkpt><trkpt lat="39.962167647920396" lon="18.267337438559167"><ele>123.33333333333334</ele><time>2026-04-03T13:05:40Z</time></trkpt><trkpt lat="39.96214907288149" lon="18.26705095328344"><ele>122.66666666666666</ele><time>2026-04-03T13:05:41Z</time></trkpt><trkpt lat="39.96213069154516" lon="18.266755408191965"><ele>122.0</ele><time>2026-04-03T13:05:42.001Z</time></trkpt><trkpt lat="39.962110687068545" lon="18.266450529813802"><ele>122.0</ele><time>2026-04-03T13:05:43.001Z</time></trkpt><trkpt lat="39.962089464379964" lon="18.266137263526563"><ele>122.0</ele><time>2026-04-03T13:05:44.001Z</time></trkpt><trkpt lat="39.96206685746139" lon="18.265815904554156"><ele>123.0</ele><time>2026-04-03T13:05:45.001Z</time></trkpt><trkpt lat="39.96204246442031" lon="18.265490133572005"><ele>124.0</ele><time>2026-04-03T13:05:46.001Z</time></trkpt><trkpt lat="39.96201849070085" lon="18.265170309331296"><ele>124.0</ele><time>2026-04-03T13:05:47.001Z</time></trkpt><trkpt lat="39.9619941456024" lon="18.264855146278055"><ele>124.0</ele><time>2026-04-03T13:05:48.001Z</time></trkpt><trkpt lat="39.96196955735074" lon="18.264535680297534"><ele>125.0</ele><time>2026-04-03T13:05:49.001Z</time></trkpt><trkpt lat="39.961946126995876" lon="18.264211865164626"><ele>126.0</ele><time>2026-04-03T13:05:50.001Z</time></trkpt><trkpt lat="39.96192201861071" lon="18.263891025117513"><ele>126.5</ele><time>2026-04-03T13:05:51.001Z</time></trkpt><trkpt lat="39.961896632870115" lon="18.26358036813145"><ele>127.0</ele><time>2026-04-03T13:05:52.001Z</time></trkpt><trkpt lat="39.96187124265896" lon="18.263284754799308"><ele>127.66666666666667</ele><time>2026-04-03T13:05:53.001Z</time></trkpt><trkpt lat="39.96185161998418" lon="18.26301814516111"><ele>128.33333333333334</ele><time>2026-04-03T13:05:54.001Z</time></trkpt><trkpt lat="39.961832741382146" lon="18.26277888056662"><ele>129.0</ele><time>2026-04-03T13:05:55.001Z</time></trkpt><trkpt lat="39.96181662720569" lon="18.26254641395216"><ele>129.0</ele><time>2026-04-03T13:05:56.001Z</time></trkpt><trkpt lat="39.961800280943464" lon="18.262322948172926"><ele>129.0</ele><time>2026-04-03T13:05:57.001Z</time></trkpt><trkpt lat="39.96178275453664" lon="18.26210094190032"><ele>129.0</ele><time>2026-04-03T13:05:58.001Z</time></trkpt><trkpt lat="39.96176509410069" lon="18.261875458903226"><ele>129.66666666666666</ele><time>2026-04-03T13:05:59.001Z</time></trkpt><trkpt lat="39.961748953499715" lon="18.2616474232623"><ele>130.33333333333331</ele><time>2026-04-03T13:06:00.001Z</time></trkpt><trkpt lat="39.96173175503571" lon="18.2614202199313"><ele>131.0</ele><time>2026-04-03T13:06:01.001Z</time></trkpt><trkpt lat="39.96171395297872" lon="18.261201822443365"><ele>131.33333333333331</ele><time>2026-04-03T13:06:02.001Z</time></trkpt><trkpt lat="39.9616972840561" lon="18.260978072585747"><ele>131.66666666666666</ele><time>2026-04-03T13:06:03.001Z</time></trkpt><trkpt lat="39.96167942580887" lon="18.26075674785623"><ele>132.0</ele><time>2026-04-03T13:06:04.001Z</time></trkpt><trkpt lat="39.96165889035092" lon="18.260537806611232"><ele>132.0</ele><time>2026-04-03T13:06:05.001Z</time></trkpt><trkpt lat="39.96163912435295" lon="18.260316626971843"><ele>132.0</ele><time>2026-04-03T13:06:06.001Z</time></trkpt><trkpt lat="39.9616201787013" lon="18.260096632778986"><ele>132.0</ele><time>2026-04-03T13:06:07.001Z</time></trkpt><trkpt lat="39.96160282273128" lon="18.259877315940784"><ele>131.66666666666666</ele><time>2026-04-03T13:06:08.001Z</time></trkpt><trkpt lat="39.96158823233672" lon="18.259664146025354"><ele>131.33333333333331</ele><time>2026-04-03T13:06:09.001Z</time></trkpt><trkpt lat="39.96157256474734" lon="18.2594696934501"><ele>131.0</ele><time>2026-04-03T13:06:10.001Z</time></trkpt><trkpt lat="39.96156067927322" lon="18.25928452244504"><ele>131.0</ele><time>2026-04-03T13:06:11.001Z</time></trkpt><trkpt lat="39.96155524429277" lon="18.259115022838554"><ele>131.0</ele><time>2026-04-03T13:06:12.001Z</time></trkpt><trkpt lat="39.96155517441288" lon="18.258968453277607"><ele>131.0</ele><time>2026-04-03T13:06:13.001Z</time></trkpt><trkpt lat="39.961567387667024" lon="18.258839154279727"><ele>131.0</ele><time>2026-04-03T13:06:14.001Z</time></trkpt><trkpt lat="39.96160606777985" lon="18.258719341794986"><ele>131.0</ele><time>2026-04-03T13:06:15.001Z</time></trkpt><trkpt lat="39.96166821345773" lon="18.258611363962157"><ele>130.75</ele><time>2026-04-03T13:06:16.001Z</time></trkpt><trkpt lat="39.96174535752839" lon="18.25849925860476"><ele>130.5</ele><time>2026-04-03T13:06:17.001Z</time></trkpt><trkpt lat="39.96182947472414" lon="18.258386993851214"><ele>130.25</ele><time>2026-04-03T13:06:18.001Z</time></trkpt><trkpt lat="39.96193175530376" lon="18.258305120521538"><ele>130.0</ele><time>2026-04-03T13:06:19.001Z</time></trkpt><trkpt lat="39.96205084144223" lon="18.258245084978174"><ele>130.0</ele><time>2026-04-03T13:06:20.001Z</time></trkpt><trkpt lat="39.96218537152117" lon="18.25819843202296"><ele>130.0</ele><time>2026-04-03T13:06:21.001Z</time></trkpt><trkpt lat="39.962331137680955" lon="18.258149831594224"><ele>130.0</ele><time>2026-04-03T13:06:22.001Z</time></trkpt><trkpt lat="39.962488462304044" lon="18.25809978769659"><ele>129.0</ele><time>2026-04-03T13:06:23.001Z</time></trkpt><trkpt lat="39.96265598319649" lon="18.258044838178776"><ele>128.0</ele><time>2026-04-03T13:06:24.001Z</time></trkpt><trkpt lat="39.96283575541246" lon="18.25798609982275"><ele>127.0</ele><time>2026-04-03T13:06:25.001Z</time></trkpt><trkpt lat="39.963024894851415" lon="18.25792478808633"><ele>127.0</ele><time>2026-04-03T13:06:26.001Z</time></trkpt><trkpt lat="39.96321005131931" lon="18.257862422069532"><ele>127.0</ele><time>2026-04-03T13:06:27.001Z</time></trkpt><trkpt lat="39.963401201989406" lon="18.25779888536752"><ele>127.0</ele><time>2026-04-03T13:06:28.001Z</time></trkpt><trkpt lat="39.963598928706396" lon="18.257731527869595"><ele>126.66666666666667</ele><time>2026-04-03T13:06:29.001Z</time></trkpt><trkpt lat="39.96379388380776" lon="18.257668027568098"><ele>126.33333333333334</ele><time>2026-04-03T13:06:30.001Z</time></trkpt><trkpt lat="39.96398824242813" lon="18.257602218333346"><ele>126.0</ele><time>2026-04-03T13:06:31.001Z</time></trkpt><trkpt lat="39.964188313302024" lon="18.257536866205903"><ele>125.66666666666666</ele><time>2026-04-03T13:06:32.001Z</time></trkpt><trkpt lat="39.96438865462235" lon="18.25746978308094"><ele>125.33333333333333</ele><time>2026-04-03T13:06:33.001Z</time></trkpt><trkpt lat="39.964584577089" lon="18.257403632988606"><ele>125.0</ele><time>2026-04-03T13:06:34.001Z</time></trkpt><trkpt lat="39.964780972287635" lon="18.25733989643901"><ele>125.0</ele><time>2026-04-03T13:06:35.001Z</time></trkpt><trkpt lat="39.964974165525135" lon="18.257277241154924"><ele>125.0</ele><time>2026-04-03T13:06:36.001Z</time></trkpt><trkpt lat="39.96516704392671" lon="18.257216413752236"><ele>125.0</ele><time>2026-04-03T13:06:37.001Z</time></trkpt><trkpt lat="39.96535654956733" lon="18.2571537951448"><ele>125.0</ele><time>2026-04-03T13:06:38.002Z</time></trkpt><trkpt lat="39.96554649374064" lon="18.25709185159092"><ele>125.0</ele><time>2026-04-03T13:06:39.002Z</time></trkpt><trkpt lat="39.96573513551383" lon="18.257027903879568"><ele>125.0</ele><time>2026-04-03T13:06:40.002Z</time></trkpt><trkpt lat="39.96592299345854" lon="18.256965015489982"><ele>124.0</ele><time>2026-04-03T13:06:41.002Z</time></trkpt><trkpt lat="39.96611144643787" lon="18.2569027233589"><ele>123.0</ele><time>2026-04-03T13:06:42.002Z</time></trkpt><trkpt lat="39.96630142337692" lon="18.25683888451591"><ele>122.0</ele><time>2026-04-03T13:06:43.002Z</time></trkpt><trkpt lat="39.96649403257872" lon="18.256776682862892"><ele>122.0</ele><time>2026-04-03T13:06:44.002Z</time></trkpt><trkpt lat="39.966687525016184" lon="18.25671519399361"><ele>122.0</ele><time>2026-04-03T13:06:45.002Z</time></trkpt><trkpt lat="39.96687999564879" lon="18.256652233582955"><ele>122.0</ele><time>2026-04-03T13:06:46.002Z</time></trkpt><trkpt lat="39.96707086078972" lon="18.25658950415488"><ele>122.0</ele><time>2026-04-03T13:06:47.002Z</time></trkpt><trkpt lat="39.96725789282356" lon="18.256527269976278"><ele>122.0</ele><time>2026-04-03T13:06:48.002Z</time></trkpt><trkpt lat="39.967443066480605" lon="18.256465117214834"><ele>122.0</ele><time>2026-04-03T13:06:49.002Z</time></trkpt><trkpt lat="39.96762664611019" lon="18.2564058681227"><ele>122.0</ele><time>2026-04-03T13:06:50.002Z</time></trkpt><trkpt lat="39.96780777394184" lon="18.256346301492197"><ele>122.0</ele><time>2026-04-03T13:06:51.002Z</time></trkpt><trkpt lat="39.96798924635601" lon="18.25628610813272"><ele>122.0</ele><time>2026-04-03T13:06:52.002Z</time></trkpt><trkpt lat="39.96817223450551" lon="18.256227411053963"><ele>122.0</ele><time>2026-04-03T13:06:53.002Z</time></trkpt><trkpt lat="39.96835678083466" lon="18.256167613208817"><ele>122.0</ele><time>2026-04-03T13:06:54.002Z</time></trkpt><trkpt lat="39.96854330947817" lon="18.25610697010867"><ele>122.0</ele><time>2026-04-03T13:06:55.002Z</time></trkpt><trkpt lat="39.96873250972405" lon="18.25604728348237"><ele>121.0</ele><time>2026-04-03T13:06:56.002Z</time></trkpt><trkpt lat="39.96892294069443" lon="18.25598438164898"><ele>120.0</ele><time>2026-04-03T13:06:57.002Z</time></trkpt><trkpt lat="39.96911494680231" lon="18.255922003020068"><ele>119.0</ele><time>2026-04-03T13:06:58.002Z</time></trkpt><trkpt lat="39.96930922094935" lon="18.255860153954668"><ele>118.33333333333333</ele><time>2026-04-03T13:06:59.002Z</time></trkpt><trkpt lat="39.96950502519235" lon="18.255795396976612"><ele>117.66666666666666</ele><time>2026-04-03T13:07:00.002Z</time></trkpt><trkpt lat="39.96970066210157" lon="18.25573002679717"><ele>117.0</ele><time>2026-04-03T13:07:01.002Z</time></trkpt><trkpt lat="39.969897447424614" lon="18.255663555138995"><ele>117.66666666666666</ele><time>2026-04-03T13:07:02.002Z</time></trkpt><trkpt lat="39.97009164616006" lon="18.255600053168358"><ele>118.33333333333333</ele><time>2026-04-03T13:07:03.002Z</time></trkpt><trkpt lat="39.97028150682567" lon="18.255539713553016"><ele>119.0</ele><time>2026-04-03T13:07:04.002Z</time></trkpt><trkpt lat="39.97046933153163" lon="18.25547989886022"><ele>119.0</ele><time>2026-04-03T13:07:05.002Z</time></trkpt><trkpt lat="39.970654584522805" lon="18.255417684791063"><ele>119.0</ele><time>2026-04-03T13:07:06.002Z</time></trkpt><trkpt lat="39.97083777557127" lon="18.255354370270656"><ele>119.0</ele><time>2026-04-03T13:07:07.002Z</time></trkpt><trkpt lat="39.97102005874146" lon="18.25529041793523"><ele>117.66666666666666</ele><time>2026-04-03T13:07:08.002Z</time></trkpt><trkpt lat="39.97120131985106" lon="18.25523127369879"><ele>116.33333333333334</ele><time>2026-04-03T13:07:09.002Z</time></trkpt><trkpt lat="39.97138113748268" lon="18.255172778368596"><ele>115.0</ele><time>2026-04-03T13:07:10.002Z</time></trkpt><trkpt lat="39.97155780337355" lon="18.25511737355751"><ele>113.66666666666667</ele><time>2026-04-03T13:07:11.002Z</time></trkpt><trkpt lat="39.97172838161508" lon="18.255062670857146"><ele>112.33333333333334</ele><time>2026-04-03T13:07:12.002Z</time></trkpt><trkpt lat="39.97189591792969" lon="18.255008490571292"><ele>111.0</ele><time>2026-04-03T13:07:13.002Z</time></trkpt><trkpt lat="39.97206075582819" lon="18.25495141136187"><ele>111.0</ele><time>2026-04-03T13:07:14.002Z</time></trkpt><trkpt lat="39.972224538793824" lon="18.254894494043846"><ele>111.0</ele><time>2026-04-03T13:07:15.002Z</time></trkpt><trkpt lat="39.972385406695196" lon="18.254837867279225"><ele>111.0</ele><time>2026-04-03T13:07:16Z</time></trkpt><trkpt lat="39.97254507775611" lon="18.25478474839438"><ele>113.0</ele><time>2026-04-03T13:07:17Z</time></trkpt><trkpt lat="39.97270670724468" lon="18.254733081774543"><ele>115.0</ele><time>2026-04-03T13:07:18Z</time></trkpt><trkpt lat="39.97286732656672" lon="18.25468144920551"><ele>117.0</ele><time>2026-04-03T13:07:19Z</time></trkpt><trkpt lat="39.973028427256374" lon="18.254631431875662"><ele>117.0</ele><time>2026-04-03T13:07:20Z</time></trkpt><trkpt lat="39.973189304436644" lon="18.254578556226914"><ele>117.0</ele><time>2026-04-03T13:07:21Z</time></trkpt><trkpt lat="39.973349132255514" lon="18.254524519067157"><ele>117.0</ele><time>2026-04-03T13:07:22Z</time></trkpt><trkpt lat="39.973508578743775" lon="18.25447075244381"><ele>115.0</ele><time>2026-04-03T13:07:23Z</time></trkpt><trkpt lat="39.9736720220329" lon="18.2544179366161"><ele>113.0</ele><time>2026-04-03T13:07:24Z</time></trkpt><trkpt lat="39.97383662996932" lon="18.25436400054283"><ele>111.0</ele><time>2026-04-03T13:07:25Z</time></trkpt><trkpt lat="39.97400474413226" lon="18.25430884352716"><ele>111.0</ele><time>2026-04-03T13:07:26Z</time></trkpt><trkpt lat="39.974176121431384" lon="18.254253764063485"><ele>111.0</ele><time>2026-04-03T13:07:27Z</time></trkpt><trkpt lat="39.97434979262457" lon="18.25419745549343"><ele>111.0</ele><time>2026-04-03T13:07:28Z</time></trkpt><trkpt lat="39.974526260429215" lon="18.25414081979982"><ele>111.0</ele><time>2026-04-03T13:07:29Z</time></trkpt><trkpt lat="39.97470341959752" lon="18.254086843546148"><ele>111.0</ele><time>2026-04-03T13:07:30Z</time></trkpt><trkpt lat="39.9748816695483" lon="18.254031655262544"><ele>111.0</ele><time>2026-04-03T13:07:31Z</time></trkpt><trkpt lat="39.975059285960114" lon="18.253975143103176"><ele>113.33333333333334</ele><time>2026-04-03T13:07:32Z</time></trkpt><trkpt lat="39.97523711421825" lon="18.253916697046613"><ele>115.66666666666667</ele><time>2026-04-03T13:07:33Z</time></trkpt><trkpt lat="39.975412001429255" lon="18.253855637018408"><ele>118.0</ele><time>2026-04-03T13:07:34Z</time></trkpt><trkpt lat="39.97558389723636" lon="18.253795589433327"><ele>118.0</ele><time>2026-04-03T13:07:35Z</time></trkpt><trkpt lat="39.975748034542434" lon="18.253734602844332"><ele>118.0</ele><time>2026-04-03T13:07:36Z</time></trkpt><trkpt lat="39.97590691637699" lon="18.25366926307531"><ele>118.0</ele><time>2026-04-03T13:07:37Z</time></trkpt><trkpt lat="39.976059982664445" lon="18.253596957186527"><ele>116.33333333333334</ele><time>2026-04-03T13:07:38Z</time></trkpt><trkpt lat="39.97620923140982" lon="18.25351416068038"><ele>114.66666666666666</ele><time>2026-04-03T13:07:39Z</time></trkpt><trkpt lat="39.9763551693084" lon="18.25342767968285"><ele>113.0</ele><time>2026-04-03T13:07:40Z</time></trkpt><trkpt lat="39.97649403762901" lon="18.253340619092736"><ele>113.0</ele><time>2026-04-03T13:07:41Z</time></trkpt><trkpt lat="39.97662463579822" lon="18.253253011758098"><ele>113.0</ele><time>2026-04-03T13:07:42Z</time></trkpt><trkpt lat="39.97674838913831" lon="18.253170079670586"><ele>113.0</ele><time>2026-04-03T13:07:43Z</time></trkpt><trkpt lat="39.976866596201894" lon="18.253092469337965"><ele>113.0</ele><time>2026-04-03T13:07:44Z</time></trkpt><trkpt lat="39.97697739953592" lon="18.253017797501013"><ele>113.4</ele><time>2026-04-03T13:07:45Z</time></trkpt><trkpt lat="39.97707310456605" lon="18.25295470181622"><ele>113.80000000000001</ele><time>2026-04-03T13:07:46.001Z</time></trkpt><trkpt lat="39.97714628546231" lon="18.252907490728322"><ele>114.2</ele><time>2026-04-03T13:07:47.001Z</time></trkpt><trkpt lat="39.977249370975976" lon="18.25284196872948"><ele>114.6</ele><time>2026-04-03T13:07:49.001Z</time></trkpt><trkpt lat="39.97735965729195" lon="18.252770588812243"><ele>115.0</ele><time>2026-04-03T13:07:51.001Z</time></trkpt><trkpt lat="39.97742270357899" lon="18.25272814397722"><ele>115.00000000000001</ele><time>2026-04-03T13:07:52.001Z</time></trkpt><trkpt lat="39.97748725027742" lon="18.25268838025142"><ele>115.0</ele><time>2026-04-03T13:07:53.001Z</time></trkpt><trkpt lat="39.97755245025411" lon="18.25264319221422"><ele>115.0</ele><time>2026-04-03T13:07:54.001Z</time></trkpt><trkpt lat="39.97762499313396" lon="18.25259271833622"><ele>115.0</ele><time>2026-04-03T13:07:55.001Z</time></trkpt><trkpt lat="39.9777046514759" lon="18.252536671337225"><ele>115.00000000000001</ele><time>2026-04-03T13:07:56.001Z</time></trkpt><trkpt lat="39.97779202038603" lon="18.252476804040327"><ele>115.0</ele><time>2026-04-03T13:07:57.001Z</time></trkpt><trkpt lat="39.97788714705363" lon="18.252412783282505"><ele>114.75</ele><time>2026-04-03T13:07:58.001Z</time></trkpt><trkpt lat="39.97798688059146" lon="18.25234516908576"><ele>114.5</ele><time>2026-04-03T13:07:59.001Z</time></trkpt><trkpt lat="39.97808924904601" lon="18.252274457624434"><ele>114.25</ele><time>2026-04-03T13:08:00.001Z</time></trkpt><trkpt lat="39.97819094825418" lon="18.252205340415344"><ele>114.0</ele><time>2026-04-03T13:08:01.001Z</time></trkpt><trkpt lat="39.97829177793229" lon="18.25213474596846"><ele>113.25</ele><time>2026-04-03T13:08:02.001Z</time></trkpt><trkpt lat="39.97839434196286" lon="18.252064494611037"><ele>112.5</ele><time>2026-04-03T13:08:03.001Z</time></trkpt><trkpt lat="39.97849767853912" lon="18.251994673008262"><ele>111.75</ele><time>2026-04-03T13:08:04.001Z</time></trkpt><trkpt lat="39.97860062265509" lon="18.251924769476986"><ele>111.0</ele><time>2026-04-03T13:08:05.001Z</time></trkpt><trkpt lat="39.97870176797927" lon="18.251855920446378"><ele>111.0</ele><time>2026-04-03T13:08:06.001Z</time></trkpt><trkpt lat="39.9788022267177" lon="18.251786961094606"><ele>111.0</ele><time>2026-04-03T13:08:07.001Z</time></trkpt><trkpt lat="39.9788994716544" lon="18.251718807793004"><ele>111.0</ele><time>2026-04-03T13:08:08.001Z</time></trkpt><trkpt lat="39.97899483465371" lon="18.251652891732938"><ele>111.0</ele><time>2026-04-03T13:08:09.001Z</time></trkpt><trkpt lat="39.97908629144626" lon="18.251590196698956"><ele>111.0</ele><time>2026-04-03T13:08:10.001Z</time></trkpt><trkpt lat="39.97916813507159" lon="18.25153570618336"><ele>110.83333333333333</ele><time>2026-04-03T13:08:11.001Z</time></trkpt><trkpt lat="39.979229811214466" lon="18.251493452090894"><ele>110.66666666666666</ele><time>2026-04-03T13:08:12.001Z</time></trkpt><trkpt lat="39.97930844509536" lon="18.251439341260372"><ele>110.5</ele><time>2026-04-03T13:08:14.001Z</time></trkpt><trkpt lat="39.97939692021244" lon="18.25138210002611"><ele>110.33333333333333</ele><time>2026-04-03T13:08:16.001Z</time></trkpt><trkpt lat="39.979461504092576" lon="18.251339247284164"><ele>110.16666666666666</ele><time>2026-04-03T13:08:17.001Z</time></trkpt><trkpt lat="39.97953659525489" lon="18.251288367201955"><ele>110.0</ele><time>2026-04-03T13:08:18.001Z</time></trkpt><trkpt lat="39.979622135905885" lon="18.251229974665144"><ele>110.0</ele><time>2026-04-03T13:08:19.001Z</time></trkpt><trkpt lat="39.97971564491228" lon="18.25116889620149"><ele>110.0</ele><time>2026-04-03T13:08:20.001Z</time></trkpt><trkpt lat="39.979811318289464" lon="18.25110608591995"><ele>110.0</ele><time>2026-04-03T13:08:21.001Z</time></trkpt><trkpt lat="39.97990152029724" lon="18.251046967258006"><ele>110.0</ele><time>2026-04-03T13:08:22.001Z</time></trkpt><trkpt lat="39.97998425568447" lon="18.250990862869504"><ele>110.0</ele><time>2026-04-03T13:08:23.001Z</time></trkpt><trkpt lat="39.980063141074645" lon="18.250934786920396"><ele>109.99999999999999</ele><time>2026-04-03T13:08:24.001Z</time></trkpt><trkpt lat="39.980141839094586" lon="18.25088044063802"><ele>110.0</ele><time>2026-04-03T13:08:25.001Z</time></trkpt><trkpt lat="39.980224453582466" lon="18.25082341856712"><ele>110.0</ele><time>2026-04-03T13:08:26.001Z</time></trkpt><trkpt lat="39.98030410180355" lon="18.2507688992354"><ele>110.0</ele><time>2026-04-03T13:08:27.001Z</time></trkpt><trkpt lat="39.98038183173802" lon="18.25071547652033"><ele>109.99999999999999</ele><time>2026-04-03T13:08:28.001Z</time></trkpt><trkpt lat="39.98045960979846" lon="18.25066161859548"><ele>110.0</ele><time>2026-04-03T13:08:29.001Z</time></trkpt><trkpt lat="39.98053745323277" lon="18.25060894928771"><ele>109.99999999999999</ele><time>2026-04-03T13:08:30.001Z</time></trkpt><trkpt lat="39.98061324236471" lon="18.250556438621736"><ele>110.0</ele><time>2026-04-03T13:08:31.001Z</time></trkpt><trkpt lat="39.980686864714016" lon="18.25050517457007"><ele>110.0</ele><time>2026-04-03T13:08:32.001Z</time></trkpt><trkpt lat="39.98075672265405" lon="18.25045539479026"><ele>110.0</ele><time>2026-04-03T13:08:33.001Z</time></trkpt><trkpt lat="39.98082669714289" lon="18.250404048834636"><ele>109.99999999999999</ele><time>2026-04-03T13:08:34.001Z</time></trkpt><trkpt lat="39.98089985690961" lon="18.250350871231284"><ele>110.0</ele><time>2026-04-03T13:08:35.001Z</time></trkpt><trkpt lat="39.98097193300113" lon="18.250298539459386"><ele>109.83333333333333</ele><time>2026-04-03T13:08:36.001Z</time></trkpt><trkpt lat="39.98103859811098" lon="18.250251434091865"><ele>109.66666666666666</ele><time>2026-04-03T13:08:37.001Z</time></trkpt><trkpt lat="39.98114074321584" lon="18.250180999006577"><ele>109.5</ele><time>2026-04-03T13:08:39.001Z</time></trkpt><trkpt lat="39.981217046694496" lon="18.25012928611321"><ele>109.33333333333334</ele><time>2026-04-03T13:08:41.001Z</time></trkpt><trkpt lat="39.9812794066687" lon="18.25011062377692"><ele>109.16666666666667</ele><time>2026-04-03T13:08:44.001Z</time></trkpt><trkpt lat="39.981360291414035" lon="18.25015625052933"><ele>109.0</ele><time>2026-04-03T13:08:48.002Z</time></trkpt><trkpt lat="39.98140287012941" lon="18.2502543618807"><ele>109.0</ele><time>2026-04-03T13:08:50.002Z</time></trkpt><trkpt lat="39.981429583095036" lon="18.250365378150224"><ele>109.0</ele><time>2026-04-03T13:08:52.002Z</time></trkpt><trkpt lat="39.98148816550057" lon="18.250466470716372"><ele>109.0</ele><time>2026-04-03T13:08:54.002Z</time></trkpt><trkpt lat="39.981535701437394" lon="18.25058941483449"><ele>109.0</ele><time>2026-04-03T13:08:56.002Z</time></trkpt><trkpt lat="39.98158318876068" lon="18.250704069535807"><ele>109.0</ele><time>2026-04-03T13:08:58.002Z</time></trkpt><trkpt lat="39.9816328836401" lon="18.250849603111735"><ele>108.0</ele><time>2026-04-03T13:09:00.002Z</time></trkpt><trkpt lat="39.98168464080657" lon="18.25099474458668"><ele>107.0</ele><time>2026-04-03T13:09:02.002Z</time></trkpt><trkpt lat="39.98173949126075" lon="18.251148065158116"><ele>106.0</ele><time>2026-04-03T13:09:04.002Z</time></trkpt><trkpt lat="39.98177312717214" lon="18.25125073142554"><ele>105.0</ele><time>2026-04-03T13:09:05.002Z</time></trkpt><trkpt lat="39.98180692793161" lon="18.251357576790063"><ele>104.0</ele><time>2026-04-03T13:09:06.002Z</time></trkpt><trkpt lat="39.98183795672791" lon="18.25146015918511"><ele>103.66666666666666</ele><time>2026-04-03T13:09:07.002Z</time></trkpt><trkpt lat="39.98186672887674" lon="18.251553578401264"><ele>103.33333333333333</ele><time>2026-04-03T13:09:08.002Z</time></trkpt><trkpt lat="39.98189240974315" lon="18.25163304943672"><ele>103.0</ele><time>2026-04-03T13:09:09.002Z</time></trkpt><trkpt lat="39.98193837124379" lon="18.251743716560178"><ele>102.66666666666666</ele><time>2026-04-03T13:09:11.002Z</time></trkpt><trkpt lat="39.98200155313223" lon="18.251758679378707"><ele>102.33333333333333</ele><time>2026-04-03T13:09:13.002Z</time></trkpt><trkpt lat="39.98210802898209" lon="18.251716699479722"><ele>102.0</ele><time>2026-04-03T13:09:15.002Z</time></trkpt><trkpt lat="39.98222496300227" lon="18.251667149003328"><ele>102.0</ele><time>2026-04-03T13:09:17.002Z</time></trkpt><trkpt lat="39.98228888895464" lon="18.251660372890733"><ele>102.0</ele><time>2026-04-03T13:09:18.002Z</time></trkpt><trkpt lat="39.98235114707197" lon="18.25163052191663"><ele>102.0</ele><time>2026-04-03T13:09:19.002Z</time></trkpt><trkpt lat="39.98242104908" lon="18.251597885888053"><ele>102.0</ele><time>2026-04-03T13:09:20.002Z</time></trkpt><trkpt lat="39.98249189531645" lon="18.251569533792058"><ele>102.0</ele><time>2026-04-03T13:09:21.002Z</time></trkpt><trkpt lat="39.98256393194091" lon="18.25154947759795"><ele>102.0</ele><time>2026-04-03T13:09:22Z</time></trkpt><trkpt lat="39.98264180394748" lon="18.251538658831226"><ele>102.0</ele><time>2026-04-03T13:09:23Z</time></trkpt><trkpt lat="39.982724145982814" lon="18.25153605715236"><ele>102.33333333333333</ele><time>2026-04-03T13:09:24Z</time></trkpt><trkpt lat="39.9828127321641" lon="18.251529431486162"><ele>102.66666666666666</ele><time>2026-04-03T13:09:25Z</time></trkpt><trkpt lat="39.982903511141494" lon="18.25150654154584"><ele>103.0</ele><time>2026-04-03T13:09:26Z</time></trkpt><trkpt lat="39.98298619878411" lon="18.251500546198386"><ele>103.33333333333333</ele><time>2026-04-03T13:09:27Z</time></trkpt><trkpt lat="39.983065470249656" lon="18.251495783838422"><ele>103.66666666666666</ele><time>2026-04-03T13:09:28Z</time></trkpt><trkpt lat="39.98314198948214" lon="18.251489131873875"><ele>104.0</ele><time>2026-04-03T13:09:29Z</time></trkpt><trkpt lat="39.983213284542586" lon="18.251468359048054"><ele>104.33333333333333</ele><time>2026-04-03T13:09:30Z</time></trkpt><trkpt lat="39.98327669506596" lon="18.251435670916443"><ele>104.66666666666666</ele><time>2026-04-03T13:09:31Z</time></trkpt><trkpt lat="39.98336094268147" lon="18.251366289969635"><ele>105.0</ele><time>2026-04-03T13:09:33Z</time></trkpt><trkpt lat="39.98342751981338" lon="18.251311144539407"><ele>105.33333333333334</ele><time>2026-04-03T13:09:35Z</time></trkpt><trkpt lat="39.983490507884575" lon="18.251257838940262"><ele>105.66666666666667</ele><time>2026-04-03T13:09:38Z</time></trkpt><trkpt lat="39.98359356476347" lon="18.251184208124123"><ele>106.0</ele><time>2026-04-03T13:09:40Z</time></trkpt><trkpt lat="39.98366268127934" lon="18.251130260994444"><ele>105.33333333333334</ele><time>2026-04-03T13:09:41Z</time></trkpt><trkpt lat="39.983730433630875" lon="18.251070391437977"><ele>104.66666666666667</ele><time>2026-04-03T13:09:42Z</time></trkpt><trkpt lat="39.98379338610724" lon="18.251013258833947"><ele>104.0</ele><time>2026-04-03T13:09:43Z</time></trkpt><trkpt lat="39.98385513610099" lon="18.250958475735718"><ele>103.33333333333334</ele><time>2026-04-03T13:09:44Z</time></trkpt><trkpt lat="39.98397106468241" lon="18.250853481657874"><ele>102.66666666666667</ele><time>2026-04-03T13:09:46Z</time></trkpt><trkpt lat="39.98403214306183" lon="18.25080035068676"><ele>102.0</ele><time>2026-04-03T13:09:47Z</time></trkpt><trkpt lat="39.98409811733373" lon="18.250745442613"><ele>102.0</ele><time>2026-04-03T13:09:48Z</time></trkpt><trkpt lat="39.98416701150367" lon="18.250685949278637"><ele>102.0</ele><time>2026-04-03T13:09:49Z</time></trkpt><trkpt lat="39.98423657513869" lon="18.250625237131395"><ele>102.0</ele><time>2026-04-03T13:09:50Z</time></trkpt><trkpt lat="39.98430242169039" lon="18.25056829443345"><ele>102.0</ele><time>2026-04-03T13:09:51.001Z</time></trkpt><trkpt lat="39.98436521230035" lon="18.25051497046614"><ele>102.0</ele><time>2026-04-03T13:09:52.001Z</time></trkpt><trkpt lat="39.98442483341357" lon="18.250464356612884"><ele>102.0</ele><time>2026-04-03T13:09:53.001Z</time></trkpt><trkpt lat="39.98448072863085" lon="18.250418007602104"><ele>102.5</ele><time>2026-04-03T13:09:54.001Z</time></trkpt><trkpt lat="39.98453523867963" lon="18.25037442171242"><ele>103.0</ele><time>2026-04-03T13:09:55.001Z</time></trkpt><trkpt lat="39.98464623412748" lon="18.25028548562535"><ele>103.5</ele><time>2026-04-03T13:09:57.001Z</time></trkpt><trkpt lat="39.984712886910565" lon="18.250232296210843"><ele>104.0</ele><time>2026-04-03T13:09:58.001Z</time></trkpt><trkpt lat="39.98477537743509" lon="18.25018189698502"><ele>104.5</ele><time>2026-04-03T13:09:59.001Z</time></trkpt><trkpt lat="39.98484020908745" lon="18.25013516216719"><ele>105.0</ele><time>2026-04-03T13:10:00.001Z</time></trkpt><trkpt lat="39.98490703336399" lon="18.25007939183288"><ele>105.0</ele><time>2026-04-03T13:10:01.001Z</time></trkpt><trkpt lat="39.98497914349426" lon="18.25001404317917"><ele>105.0</ele><time>2026-04-03T13:10:02.001Z</time></trkpt><trkpt lat="39.98505944980951" lon="18.249945165234447"><ele>105.0</ele><time>2026-04-03T13:10:03.001Z</time></trkpt><trkpt lat="39.98514519318027" lon="18.249870153709473"><ele>105.0</ele><time>2026-04-03T13:10:04.001Z</time></trkpt><trkpt lat="39.98523127037398" lon="18.249796857150404"><ele>105.0</ele><time>2026-04-03T13:10:05.001Z</time></trkpt><trkpt lat="39.98531277183924" lon="18.249726220326252"><ele>105.4</ele><time>2026-04-03T13:10:06.001Z</time></trkpt><trkpt lat="39.98539310616418" lon="18.249657335548132"><ele>105.8</ele><time>2026-04-03T13:10:07.001Z</time></trkpt><trkpt lat="39.98547082814168" lon="18.249589669557604"><ele>106.19999999999999</ele><time>2026-04-03T13:10:08.001Z</time></trkpt><trkpt lat="39.98554874868933" lon="18.24952265186584"><ele>106.6</ele><time>2026-04-03T13:10:09.001Z</time></trkpt><trkpt lat="39.98562449694063" lon="18.24945645898744"><ele>107.0</ele><time>2026-04-03T13:10:10.001Z</time></trkpt><trkpt lat="39.98569415782931" lon="18.249396671103245"><ele>106.99999999999999</ele><time>2026-04-03T13:10:11.001Z</time></trkpt><trkpt lat="39.9857531394054" lon="18.24934573106613"><ele>107.0</ele><time>2026-04-03T13:10:12.001Z</time></trkpt><trkpt lat="39.98580591415773" lon="18.249299922315547"><ele>107.0</ele><time>2026-04-03T13:10:13.001Z</time></trkpt><trkpt lat="39.98586304697498" lon="18.249252814102853"><ele>107.0</ele><time>2026-04-03T13:10:14.001Z</time></trkpt><trkpt lat="39.98593424767964" lon="18.249203428098447"><ele>106.99999999999999</ele><time>2026-04-03T13:10:15.001Z</time></trkpt><trkpt lat="39.98602227742968" lon="18.24916403405058"><ele>107.0</ele><time>2026-04-03T13:10:16.001Z</time></trkpt><trkpt lat="39.986119111082374" lon="18.249125451899697"><ele>106.39999999999999</ele><time>2026-04-03T13:10:17.001Z</time></trkpt><trkpt lat="39.986216764734955" lon="18.249088440611242"><ele>105.79999999999998</ele><time>2026-04-03T13:10:18.001Z</time></trkpt><trkpt lat="39.98631173963013" lon="18.249051719615505"><ele>105.2</ele><time>2026-04-03T13:10:19.001Z</time></trkpt><trkpt lat="39.98640393906021" lon="18.2490143083159"><ele>104.6</ele><time>2026-04-03T13:10:20.001Z</time></trkpt><trkpt lat="39.986495525851225" lon="18.2489761532603"><ele>104.0</ele><time>2026-04-03T13:10:21.001Z</time></trkpt><trkpt lat="39.98658720870737" lon="18.248936828593315"><ele>104.16666666666666</ele><time>2026-04-03T13:10:22.001Z</time></trkpt><trkpt lat="39.9866778037606" lon="18.248897554412398"><ele>104.33333333333333</ele><time>2026-04-03T13:10:23.001Z</time></trkpt><trkpt lat="39.98676590159316" lon="18.248857245765187"><ele>104.5</ele><time>2026-04-03T13:10:24.001Z</time></trkpt><trkpt lat="39.986851707490736" lon="18.248820108196178"><ele>104.66666666666666</ele><time>2026-04-03T13:10:25.001Z</time></trkpt><trkpt lat="39.98693073026065" lon="18.248785147088025"><ele>104.83333333333333</ele><time>2026-04-03T13:10:26.001Z</time></trkpt><trkpt lat="39.98700647014529" lon="18.24875490367269"><ele>105.0</ele><time>2026-04-03T13:10:27.001Z</time></trkpt><trkpt lat="39.98707286371771" lon="18.248728374085672"><ele>105.0</ele><time>2026-04-03T13:10:28.001Z</time></trkpt><trkpt lat="39.987173321301995" lon="18.248687320269973"><ele>105.0</ele><time>2026-04-03T13:10:30.001Z</time></trkpt><trkpt lat="39.987234716941366" lon="18.24866240166817"><ele>105.0</ele><time>2026-04-03T13:10:31.001Z</time></trkpt><trkpt lat="39.98730811144049" lon="18.248619079922538"><ele>105.0</ele><time>2026-04-03T13:10:32.001Z</time></trkpt><trkpt lat="39.98739411646378" lon="18.24856667817787"><ele>105.0</ele><time>2026-04-03T13:10:33.001Z</time></trkpt><trkpt lat="39.987495281153016" lon="18.248508312957604"><ele>104.4</ele><time>2026-04-03T13:10:34.001Z</time></trkpt><trkpt lat="39.98759246885396" lon="18.248446453901252"><ele>103.8</ele><time>2026-04-03T13:10:35.001Z</time></trkpt><trkpt lat="39.987689348413205" lon="18.24838478907607"><ele>103.19999999999999</ele><time>2026-04-03T13:10:36.001Z</time></trkpt><trkpt lat="39.98779103474303" lon="18.248319658063576"><ele>102.6</ele><time>2026-04-03T13:10:37.001Z</time></trkpt><trkpt lat="39.9878989666696" lon="18.248252664508644"><ele>102.0</ele><time>2026-04-03T13:10:38.001Z</time></trkpt><trkpt lat="39.98801097249298" lon="18.248183660394073"><ele>102.25</ele><time>2026-04-03T13:10:39.001Z</time></trkpt><trkpt lat="39.9881198804151" lon="18.24810621887333"><ele>102.5</ele><time>2026-04-03T13:10:40.001Z</time></trkpt><trkpt lat="39.988228746987794" lon="18.248033400323315"><ele>102.75</ele><time>2026-04-03T13:10:41.001Z</time></trkpt><trkpt lat="39.9883345481373" lon="18.24796482709472"><ele>103.0</ele><time>2026-04-03T13:10:42.001Z</time></trkpt><trkpt lat="39.98843994043545" lon="18.247899320539428"><ele>103.0</ele><time>2026-04-03T13:10:43.001Z</time></trkpt><trkpt lat="39.98854140947411" lon="18.247834092917756"><ele>103.0</ele><time>2026-04-03T13:10:44.001Z</time></trkpt><trkpt lat="39.98863919940338" lon="18.247772099971478"><ele>103.0</ele><time>2026-04-03T13:10:45.001Z</time></trkpt><trkpt lat="39.988733745058994" lon="18.247708813057145"><ele>103.0</ele><time>2026-04-03T13:10:46.001Z</time></trkpt><trkpt lat="39.988827528080506" lon="18.247645452076807"><ele>103.0</ele><time>2026-04-03T13:10:47.001Z</time></trkpt><trkpt lat="39.98892432076948" lon="18.247583883012883"><ele>103.0</ele><time>2026-04-03T13:10:48.001Z</time></trkpt><trkpt lat="39.98902934737799" lon="18.24752777164072"><ele>103.0</ele><time>2026-04-03T13:10:49.001Z</time></trkpt><trkpt lat="39.98914104351415" lon="18.247483385369133"><ele>103.0</ele><time>2026-04-03T13:10:50.001Z</time></trkpt><trkpt lat="39.98925413879841" lon="18.2474429166697"><ele>103.0</ele><time>2026-04-03T13:10:51.002Z</time></trkpt><trkpt lat="39.989364061451546" lon="18.247407491068916"><ele>102.60000000000001</ele><time>2026-04-03T13:10:52.002Z</time></trkpt><trkpt lat="39.98947205077284" lon="18.247376351008498"><ele>102.2</ele><time>2026-04-03T13:10:53.002Z</time></trkpt><trkpt lat="39.98958023036265" lon="18.247347558148466"><ele>101.8</ele><time>2026-04-03T13:10:54.002Z</time></trkpt><trkpt lat="39.98968850222725" lon="18.247318588097006"><ele>101.4</ele><time>2026-04-03T13:10:55.002Z</time></trkpt><trkpt lat="39.98979693805695" lon="18.247291839275583"><ele>101.0</ele><time>2026-04-03T13:10:56.002Z</time></trkpt><trkpt lat="39.98990355271587" lon="18.247268761211185"><ele>100.8</ele><time>2026-04-03T13:10:57.002Z</time></trkpt><trkpt lat="39.990011428025106" lon="18.247249002801546"><ele>100.6</ele><time>2026-04-03T13:10:58.002Z</time></trkpt><trkpt lat="39.99011902744982" lon="18.24722751941594"><ele>100.4</ele><time>2026-04-03T13:10:59.002Z</time></trkpt><trkpt lat="39.990225307798674" lon="18.24720159628924"><ele>100.2</ele><time>2026-04-03T13:11:00.002Z</time></trkpt><trkpt lat="39.99033300608018" lon="18.24717390410752"><ele>100.0</ele><time>2026-04-03T13:11:01.002Z</time></trkpt><trkpt lat="39.99044067923756" lon="18.247144985896565"><ele>100.0</ele><time>2026-04-03T13:11:02.002Z</time></trkpt><trkpt lat="39.99055216108809" lon="18.247116300732458"><ele>100.0</ele><time>2026-04-03T13:11:03.002Z</time></trkpt><trkpt lat="39.99067006565261" lon="18.247087459236475"><ele>100.0</ele><time>2026-04-03T13:11:04.002Z</time></trkpt><trkpt lat="39.99078788079366" lon="18.247058032080993"><ele>100.0</ele><time>2026-04-03T13:11:05.002Z</time></trkpt><trkpt lat="39.99089270319845" lon="18.24703279709439"><ele>99.4</ele><time>2026-04-03T13:11:06.002Z</time></trkpt><trkpt lat="39.990971942673575" lon="18.24701130735419"><ele>98.8</ele><time>2026-04-03T13:11:07.002Z</time></trkpt><trkpt lat="39.991070708685136" lon="18.24698590445473"><ele>98.19999999999999</ele><time>2026-04-03T13:11:09.002Z</time></trkpt><trkpt lat="39.99118014791942" lon="18.24695932765362"><ele>97.6</ele><time>2026-04-03T13:11:11.002Z</time></trkpt><trkpt lat="39.99125950754349" lon="18.246940874724114"><ele>97.0</ele><time>2026-04-03T13:11:12.002Z</time></trkpt><trkpt lat="39.991354684046" lon="18.24691938823858"><ele>97.0</ele><time>2026-04-03T13:11:13.002Z</time></trkpt><trkpt lat="39.991465461819374" lon="18.246895019390475"><ele>97.0</ele><time>2026-04-03T13:11:14.002Z</time></trkpt><trkpt lat="39.991587637195494" lon="18.246867678146412"><ele>97.0</ele><time>2026-04-03T13:11:15.002Z</time></trkpt><trkpt lat="39.991713347264856" lon="18.246837367360264"><ele>97.0</ele><time>2026-04-03T13:11:16.002Z</time></trkpt><trkpt lat="39.99184130942621" lon="18.24680576676829"><ele>96.75</ele><time>2026-04-03T13:11:17.002Z</time></trkpt><trkpt lat="39.99196825027944" lon="18.24677521394065"><ele>96.5</ele><time>2026-04-03T13:11:18.002Z</time></trkpt><trkpt lat="39.99209317533466" lon="18.246743350038162"><ele>96.25</ele><time>2026-04-03T13:11:19.002Z</time></trkpt><trkpt lat="39.99221312377458" lon="18.24671246041449"><ele>96.0</ele><time>2026-04-03T13:11:20.002Z</time></trkpt><trkpt lat="39.99232917391751" lon="18.246680975695767"><ele>96.0</ele><time>2026-04-03T13:11:21.002Z</time></trkpt><trkpt lat="39.992441533956054" lon="18.246650647669565"><ele>96.0</ele><time>2026-04-03T13:11:22.002Z</time></trkpt><trkpt lat="39.9925505695869" lon="18.24662058803065"><ele>96.0</ele><time>2026-04-03T13:11:23.002Z</time></trkpt><trkpt lat="39.99265504388993" lon="18.246594395334178"><ele>96.0</ele><time>2026-04-03T13:11:24.002Z</time></trkpt><trkpt lat="39.99275621728887" lon="18.24656854722908"><ele>96.0</ele><time>2026-04-03T13:11:25.002Z</time></trkpt><trkpt lat="39.992852596165015" lon="18.246544393907747"><ele>95.83333333333333</ele><time>2026-04-03T13:11:26.002Z</time></trkpt><trkpt lat="39.992945877363844" lon="18.24652192931132"><ele>95.66666666666667</ele><time>2026-04-03T13:11:27.002Z</time></trkpt><trkpt lat="39.99303656939722" lon="18.24649962133275"><ele>95.5</ele><time>2026-04-03T13:11:28Z</time></trkpt><trkpt lat="39.99312325911859" lon="18.246479326400916"><ele>95.33333333333334</ele><time>2026-04-03T13:11:29Z</time></trkpt><trkpt lat="39.993206620685775" lon="18.246460147031804"><ele>95.16666666666667</ele><time>2026-04-03T13:11:30Z</time></trkpt><trkpt lat="39.99329266328331" lon="18.246439983697755"><ele>95.0</ele><time>2026-04-03T13:11:31Z</time></trkpt><trkpt lat="39.99338481805285" lon="18.24641759634008"><ele>95.0</ele><time>2026-04-03T13:11:32Z</time></trkpt><trkpt lat="39.993478546013826" lon="18.246395761322557"><ele>95.0</ele><time>2026-04-03T13:11:33Z</time></trkpt><trkpt lat="39.993571264326405" lon="18.24637367507698"><ele>95.0</ele><time>2026-04-03T13:11:34Z</time></trkpt><trkpt lat="39.9936647453592" lon="18.246352270768718"><ele>95.0</ele><time>2026-04-03T13:11:35Z</time></trkpt><trkpt lat="39.99375882524176" lon="18.246329450012354"><ele>95.0</ele><time>2026-04-03T13:11:36Z</time></trkpt><trkpt lat="39.99385537535504" lon="18.246302997861086"><ele>95.0</ele><time>2026-04-03T13:11:37Z</time></trkpt><trkpt lat="39.99395533362745" lon="18.246277022688467"><ele>95.0</ele><time>2026-04-03T13:11:38Z</time></trkpt><trkpt lat="39.99405799276674" lon="18.246252596848862"><ele>95.0</ele><time>2026-04-03T13:11:39Z</time></trkpt><trkpt lat="39.994160041445426" lon="18.246226775203695"><ele>95.0</ele><time>2026-04-03T13:11:40Z</time></trkpt><trkpt lat="39.99426958132795" lon="18.246202733555936"><ele>95.0</ele><time>2026-04-03T13:11:41Z</time></trkpt><trkpt lat="39.99436971549376" lon="18.24617673430142"><ele>95.0</ele><time>2026-04-03T13:11:42Z</time></trkpt><trkpt lat="39.99447269710934" lon="18.246146726762756"><ele>95.0</ele><time>2026-04-03T13:11:43Z</time></trkpt><trkpt lat="39.99458084347436" lon="18.246124130067166"><ele>95.0</ele><time>2026-04-03T13:11:44Z</time></trkpt><trkpt lat="39.994680957898055" lon="18.246099070501803"><ele>95.0</ele><time>2026-04-03T13:11:45Z</time></trkpt><trkpt lat="39.99478062640437" lon="18.24607126508957"><ele>95.0</ele><time>2026-04-03T13:11:46Z</time></trkpt><trkpt lat="39.994881439979714" lon="18.246047678582954"><ele>95.0</ele><time>2026-04-03T13:11:47Z</time></trkpt><trkpt lat="39.994985684956916" lon="18.246022513909345"><ele>95.0</ele><time>2026-04-03T13:11:48Z</time></trkpt><trkpt lat="39.99509018279183" lon="18.24599603360576"><ele>94.0</ele><time>2026-04-03T13:11:49Z</time></trkpt><trkpt lat="39.99519474062142" lon="18.2459700383732"><ele>94.0</ele><time>2026-04-03T13:11:50Z</time></trkpt><trkpt lat="39.995300154980086" lon="18.245944297212823"><ele>94.0</ele><time>2026-04-03T13:11:51Z</time></trkpt></trkseg></trk></gpx>